GFSMA_sfc_thetae_000.txt.gz
Theta_e
319 318 318 319 317 317 317 315 314 313 312 310 309 308 306 305 306 306 304 327 330 329 328 328 329 330 329 326 326 327 327 327 327 327 327 327 327 326 326 326 326 326 325
320 318 317 318 317 317 317 316 314 313 313 314 312 309 306 306 306 306 307 309 327 328 324 325 326 327 328 328 328 327 327 327 327 327 327 327 327 327 327 327 327 327 327
321 320 317 317 318 319 319 318 317 315 313 315 314 312 308 306 306 306 306 307 314 324 325 323 324 324 325 327 328 328 327 331 331 331 330 328 329 329 327 327 327 327 327
322 321 319 317 319 319 319 318 317 316 315 314 313 313 311 309 308 307 307 307 307 311 320 326 326 325 325 326 328 328 328 330 331 331 331 331 331 329 326 326 326 327 328
324 323 323 321 319 318 319 319 317 316 314 314 314 313 313 312 310 311 308 307 306 309 308 318 323 324 326 326 326 328 328 330 330 331 331 330 330 328 326 327 327 328 328
325 324 324 323 321 319 319 319 317 316 316 315 318 317 313 314 314 313 313 313 311 309 308 307 310 318 323 326 325 325 326 328 330 330 330 330 328 327 327 328 328 328 328
326 325 324 324 324 322 320 320 319 317 317 316 313 313 313 314 313 313 312 313 313 312 309 311 310 310 312 324 326 325 325 326 327 329 330 331 328 328 328 328 328 328 327
328 327 325 325 324 324 323 320 320 319 319 317 315 310 309 310 314 316 317 317 316 316 314 311 309 310 310 311 315 324 327 325 326 327 327 328 328 328 328 327 327 326 326
329 329 328 326 326 326 325 324 321 319 317 317 320 316 306 305 305 310 313 316 316 312 311 311 310 310 309 310 314 317 322 325 325 328 329 329 328 327 327 327 326 325 324
329 329 329 328 327 328 327 326 326 323 322 319 319 320 318 312 305 305 308 308 308 309 310 310 311 311 313 314 315 315 317 321 323 326 328 329 327 327 327 325 324 322 321
329 329 329 328 328 329 330 328 328 327 325 322 320 319 318 317 316 311 308 311 311 311 311 313 313 313 314 316 315 315 320 324 325 326 328 328 328 326 325 322 320 318 317
323 326 328 328 328 328 329 329 329 328 326 324 323 321 320 316 314 313 311 311 311 314 314 315 314 315 315 315 315 316 319 322 324 325 327 327 326 323 318 318 316 315 314
321 322 324 326 327 328 329 330 330 329 328 325 323 322 322 321 319 316 313 311 309 312 311 315 315 316 316 315 316 314 316 320 322 322 325 325 322 316 314 313 313 312 311
321 323 324 325 325 327 328 329 330 329 329 327 326 324 323 323 323 320 316 312 309 311 312 311 314 315 316 316 315 314 312 316 317 318 321 320 316 312 309 309 308 308 307
313 313 316 320 322 326 327 327 326 327 327 327 326 326 326 325 324 322 320 318 314 308 309 314 312 315 316 316 315 313 307 311 314 315 316 315 312 308 307 306 305 304 303
309 309 310 311 312 316 319 322 324 325 324 325 325 325 325 326 324 322 320 319 318 314 309 315 314 313 314 314 311 307 304 306 311 313 313 311 308 306 304 303 302 301 299
309 309 308 308 309 310 311 313 316 319 321 323 323 323 323 325 323 322 321 319 317 317 312 315 318 316 306 303 304 302 303 303 306 310 309 306 305 303 302 301 299 298 297
310 310 310 310 310 309 310 310 311 314 315 316 319 321 321 322 322 322 321 319 318 318 315 313 316 315 304 301 302 299 300 301 302 305 306 304 303 301 300 298 297 296 295
308 309 309 309 310 310 310 310 310 311 312 314 316 317 318 319 320 320 321 320 319 318 317 315 314 316 305 300 298 299 298 299 299 302 303 302 300 299 298 296 295 295 295
306 306 307 308 308 309 310 310 310 309 310 312 314 315 317 317 318 319 319 319 319 317 316 315 314 313 300 298 299 297 294 296 295 297 298 296 296 297 296 295 294 294 293
304 304 304 305 305 307 308 308 308 308 308 308 310 312 313 313 310 314 318 318 318 317 316 314 312 308 298 294 295 297 297 295 295 293 291 290 289 288 288 292 292 293 292
302 302 302 303 303 305 306 307 307 307 306 306 307 309 311 309 312 312 313 312 315 316 314 313 312 309 305 303 299 298 296 291 288 290 287 285 285 284 285 285 291 292 292
297 298 300 301 301 302 305 307 307 305 305 305 306 307 308 311 310 313 313 313 312 312 312 315 313 311 309 306 301 296 296 293 288 285 285 282 283 282 284 287 291 292 292
294 295 296 298 299 301 304 305 304 302 301 302 303 304 307 308 310 311 311 311 313 314 314 313 314 314 313 310 303 300 296 287 284 285 285 280 282 281 283 284 291 291 291
292 292 294 295 297 298 301 302 300 297 299 299 302 303 303 304 305 307 307 308 309 311 302 304 308 309 309 306 301 292 287 286 281 282 283 281 280 280 281 281 282 289 290
290 291 291 293 296 294 298 300 299 297 294 297 298 298 301 302 303 304 304 304 304 307 295 293 295 298 300 299 298 295 288 286 283 281 283 281 279 279 278 281 280 281 281

GFSMA_sfc_thetae_003.txt.gz
Theta_e
317 318 319 318 320 319 321 317 317 314 313 310 308 307 306 306 307 305 302 327 333 334 331 331 332 332 333 332 329 328 328 328 328 328 328 328 327 327 327 327 327 327 327
319 317 316 318 317 318 317 317 315 314 311 310 308 307 306 305 304 303 304 304 329 332 332 330 330 331 331 332 332 330 332 330 329 329 329 328 328 328 328 328 328 328 328
320 319 317 317 317 317 315 315 314 312 311 311 311 312 309 306 305 304 304 304 308 326 330 327 328 328 329 330 331 330 333 333 333 333 333 332 332 331 328 328 328 328 328
321 320 320 318 317 317 317 316 316 314 313 312 311 312 312 308 305 305 305 305 305 308 320 328 328 330 331 328 329 330 332 333 333 332 333 332 332 332 328 327 327 327 327
323 322 321 321 316 316 318 318 316 316 315 315 314 313 313 313 312 312 307 306 306 308 307 316 324 325 327 330 327 329 330 333 332 332 332 332 332 332 329 328 329 327 328
322 321 322 321 318 317 317 316 317 315 317 317 317 317 314 315 314 313 313 311 309 307 307 307 309 316 323 326 328 326 328 331 332 332 333 332 332 332 329 327 328 329 329
322 321 322 320 320 320 318 317 318 316 317 313 312 314 314 314 313 314 315 314 314 312 309 309 307 308 311 323 325 327 328 328 331 331 332 332 332 332 328 328 329 329 329
325 323 322 322 322 322 321 318 317 317 318 316 314 308 310 311 314 317 316 313 313 314 313 312 311 310 309 309 313 322 325 326 326 327 330 331 332 330 329 329 330 329 329
328 327 326 324 323 323 322 322 320 318 317 316 317 315 308 306 304 308 313 316 316 315 315 315 313 311 310 309 312 314 319 323 325 327 328 330 331 330 330 330 330 329 328
327 328 328 327 325 325 324 324 325 322 320 318 317 319 318 309 305 304 307 307 311 313 314 314 314 311 310 309 311 313 315 320 323 325 328 330 331 331 332 330 330 328 327
324 327 327 327 326 327 326 327 328 327 325 322 320 319 316 317 316 312 310 312 308 308 310 311 312 311 310 310 310 312 317 320 323 326 328 329 331 332 332 330 329 327 324
320 321 325 327 327 327 327 328 329 328 328 327 325 323 320 315 315 313 312 312 313 315 312 311 311 311 311 311 312 314 317 321 325 327 328 330 330 331 330 330 328 324 321
316 317 319 322 327 328 328 329 328 328 328 327 327 325 324 322 321 319 315 313 313 315 314 312 314 314 314 313 313 313 315 319 322 327 328 330 330 330 328 328 325 322 319
309 310 309 311 313 320 327 328 329 329 328 327 327 327 326 325 324 321 318 316 312 312 313 311 312 314 316 316 315 314 314 317 320 324 328 328 327 326 325 322 320 318 315
310 309 308 308 308 309 311 315 318 322 324 325 325 325 325 324 325 324 323 321 316 309 310 313 312 314 315 315 315 315 314 315 318 321 322 322 322 322 319 317 315 312 311
308 309 308 308 308 308 308 309 309 311 313 316 320 320 321 322 323 323 323 322 320 316 310 315 316 316 313 313 314 314 313 312 315 319 319 317 318 317 315 313 310 309 307
308 308 308 308 308 308 308 308 308 309 309 310 312 314 316 319 319 320 321 321 319 318 313 315 317 317 310 313 309 309 310 309 310 315 317 316 315 314 312 309 308 306 305
306 306 306 307 307 307 308 307 307 308 308 308 310 312 313 316 315 317 318 317 318 319 316 313 315 316 311 307 309 305 305 306 306 310 314 314 313 311 309 307 305 304 302
303 303 304 304 304 304 304 305 306 307 307 309 309 310 311 313 312 313 314 315 316 317 317 315 314 317 316 302 299 300 300 301 303 306 312 312 310 308 306 304 303 302 299
301 302 302 302 302 303 304 303 304 303 303 306 307 308 309 310 310 311 312 313 314 313 314 313 314 314 315 303 303 303 296 298 298 300 305 306 307 306 305 302 301 298 298
299 299 298 298 301 301 303 302 302 302 304 304 305 306 307 307 306 308 310 310 311 310 311 310 310 312 312 298 298 300 301 300 297 296 297 299 298 298 298 300 297 297 296
295 295 295 298 297 300 303 304 304 303 304 300 298 301 303 304 306 309 311 310 310 309 308 308 309 308 309 310 307 303 301 293 291 295 292 292 293 291 291 291 294 295 295
291 291 293 293 294 296 300 304 303 301 296 296 298 298 300 303 302 305 305 307 307 309 309 309 308 309 310 311 310 306 302 300 298 290 292 289 288 287 288 289 293 293 294
288 289 290 290 291 292 298 301 303 294 293 295 296 296 298 295 298 301 302 302 302 304 306 309 309 310 312 313 313 310 305 294 286 287 289 284 284 285 286 287 292 293 293
286 286 287 289 288 290 296 299 296 293 291 292 295 295 293 292 297 300 298 297 298 299 302 303 304 303 305 307 310 296 289 288 284 284 284 284 283 283 283 283 285 292 293
285 286 285 286 290 289 294 294 293 291 289 290 293 292 294 294 297 297 295 295 294 294 297 299 301 303 299 302 306 303 299 292 285 282 283 283 281 282 279 281 281 281 282

GFSMA_sfc_thetae_006.txt.gz
Theta_e
319 318 320 322 322 320 319 318 317 317 314 312 309 308 309 310 312 310 306 315 324 335 334 334 334 333 334 333 332 330 329 329 329 329 329 328 328 328 328 328 328 327 327
322 318 319 320 320 320 319 319 317 317 315 312 311 309 307 307 307 308 307 306 318 331 335 331 333 334 334 334 334 334 334 333 331 331 332 331 331 330 329 329 329 329 329
321 321 318 317 318 315 316 316 315 313 311 310 310 310 309 307 306 305 304 304 306 320 331 331 331 334 335 333 333 334 337 336 334 334 334 334 334 333 332 330 329 329 329
320 319 318 317 316 314 314 313 313 312 311 311 312 309 311 311 310 308 307 305 305 306 313 328 330 331 332 333 330 332 335 335 335 335 334 334 334 334 334 333 332 330 329
320 319 318 318 316 314 314 315 315 313 314 314 313 313 312 312 312 313 309 307 306 307 306 312 320 325 327 330 330 329 333 334 333 333 334 334 334 334 334 334 333 332 330
319 319 320 319 318 315 315 314 315 315 315 316 316 316 316 315 315 315 314 314 311 308 307 307 308 311 321 326 329 330 332 332 331 332 333 334 334 334 334 334 333 332 329
319 319 320 320 319 318 319 318 316 315 315 313 310 314 315 315 315 316 316 315 315 313 310 309 308 308 309 320 325 328 330 331 331 331 331 332 333 334 334 334 334 333 330
322 321 320 321 320 319 319 319 316 316 316 314 313 313 310 314 316 316 317 316 315 315 314 312 310 309 309 308 310 322 326 329 328 330 331 331 332 333 334 335 334 333 332
326 325 325 322 322 320 320 320 319 316 317 320 316 315 309 308 305 308 310 314 315 315 314 313 313 312 312 311 312 313 318 323 326 328 328 330 331 333 333 334 334 332 332
324 325 326 325 325 323 321 322 322 321 320 317 320 318 319 318 311 311 312 307 310 312 314 314 314 314 313 312 313 313 315 318 322 327 327 326 327 329 330 331 331 332 332
317 319 322 323 324 325 325 325 324 323 324 322 320 320 318 317 317 313 310 314 316 312 313 313 314 314 314 313 313 312 316 319 323 326 327 327 328 330 332 332 331 330 331
313 312 312 315 321 324 325 327 327 326 326 325 325 323 320 316 315 314 313 314 314 317 319 312 311 311 312 311 312 313 315 318 321 324 327 327 329 331 332 332 331 330 330
307 308 307 307 308 309 313 319 323 324 325 324 323 323 324 323 322 320 318 316 315 318 318 319 316 316 316 315 312 311 313 316 320 324 326 328 329 329 330 331 330 330 329
306 306 307 307 307 308 308 308 310 313 317 320 320 321 321 321 322 322 319 317 313 315 317 317 319 317 316 316 316 314 312 315 317 321 325 327 326 326 326 328 330 329 328
307 306 306 306 306 307 307 307 307 307 308 309 310 313 315 317 318 320 320 319 315 310 311 316 315 319 317 316 316 316 315 314 316 318 319 320 321 323 323 324 325 325 324
304 304 304 305 305 306 306 306 306 306 306 307 308 308 309 311 313 316 318 318 316 314 309 315 317 319 318 314 315 315 315 313 315 317 318 317 318 320 321 321 322 322 320
301 301 302 302 303 304 303 303 303 304 304 305 306 306 308 310 311 312 314 314 313 313 309 311 316 319 318 315 314 313 314 314 314 315 317 317 317 318 319 319 319 318 316
298 298 300 300 300 299 300 301 301 302 302 300 301 303 305 308 308 309 310 309 310 311 310 307 311 313 314 317 316 315 312 312 313 313 315 315 317 317 317 317 315 313 311
295 296 296 296 296 297 299 299 300 300 299 300 301 303 304 305 304 305 306 306 307 309 310 308 308 311 312 314 311 310 312 310 310 310 313 314 316 316 316 315 312 310 308
292 292 293 292 294 296 295 297 299 296 299 300 303 304 303 300 300 302 303 303 305 306 307 306 307 307 309 310 308 309 305 301 304 304 306 309 312 313 314 312 309 307 305
290 290 290 290 291 294 293 297 294 294 297 300 299 296 297 298 301 303 300 298 302 301 301 302 303 306 307 306 303 303 303 307 301 303 299 302 306 308 309 309 305 303 302
287 288 287 288 290 289 295 298 296 293 297 295 292 293 296 297 300 298 299 300 300 299 299 299 299 300 302 305 307 308 307 303 301 299 300 300 302 301 302 303 302 302 300
285 285 285 286 285 287 294 296 297 292 291 292 291 290 291 295 294 291 294 298 296 299 301 298 297 297 299 302 306 305 305 305 304 296 297 295 293 295 293 296 300 299 299
283 283 284 284 285 285 292 294 296 288 286 287 289 289 291 292 291 293 292 292 292 294 296 297 297 297 299 301 303 302 303 302 290 291 294 290 288 290 289 291 299 298 297
282 282 283 283 283 284 291 294 291 286 286 287 288 289 292 291 294 295 291 290 291 293 298 300 300 300 301 302 303 301 298 293 289 286 286 286 284 283 285 286 290 295 294
282 283 282 283 285 283 288 290 289 286 285 286 287 289 293 292 293 293 290 290 290 292 294 295 296 298 300 300 299 296 297 295 291 284 285 285 283 283 281 282 284 285 290

GFSMA_sfc_thetae_009.txt.gz
Theta_e
319 317 317 317 318 319 318 317 317 317 315 313 312 310 310 308 307 310 310 315 320 323 327 332 336 336 334 333 332 330 332 330 329 329 329 329 329 329 329 329 329 328 329
320 318 317 317 318 318 318 318 318 317 316 314 314 312 310 308 307 309 311 310 318 321 323 327 332 334 335 336 335 337 336 335 334 333 333 333 333 332 330 329 329 329 329
320 320 318 316 317 317 317 317 316 315 313 313 312 313 311 309 308 307 307 306 308 317 322 326 327 332 336 335 335 338 338 337 337 335 335 335 334 334 334 333 333 332 330
320 318 319 318 317 314 315 314 314 313 312 313 313 312 312 312 311 309 308 308 307 306 311 318 325 330 333 335 331 335 337 336 335 335 335 335 334 334 335 335 334 334 334
319 319 318 319 317 316 314 314 314 312 313 313 312 313 313 311 313 313 312 311 309 309 308 312 317 321 326 330 330 331 333 333 333 334 334 334 335 335 335 335 335 335 335
318 318 319 319 317 317 316 314 314 314 314 315 315 315 315 315 315 315 315 315 313 311 309 309 310 311 317 323 328 329 332 332 331 332 332 334 334 335 335 334 334 334 334
318 317 318 318 318 317 318 318 315 314 314 313 313 315 316 316 315 316 317 317 316 315 314 310 309 309 310 319 322 324 329 332 332 332 331 332 333 333 334 334 334 334 334
321 319 318 319 319 318 317 317 316 315 315 315 314 313 311 314 314 315 316 316 316 316 315 314 312 310 310 310 311 318 323 326 328 332 333 332 332 333 333 334 334 333 334
323 323 322 321 321 319 318 319 318 316 315 318 317 314 310 308 309 310 310 314 315 315 315 315 314 312 311 311 312 313 317 320 323 328 330 333 333 333 333 333 333 334 333
314 315 317 319 321 322 320 320 322 321 319 316 319 319 318 318 312 312 315 311 313 313 314 315 314 313 313 312 314 314 315 318 321 325 328 329 331 332 331 333 333 333 332
309 309 308 309 310 314 317 320 322 323 324 321 320 320 320 317 316 313 310 314 318 315 315 314 315 315 315 315 314 314 317 320 323 326 328 330 331 330 330 330 333 333 332
306 307 306 305 305 305 307 308 311 313 318 320 320 320 318 315 315 314 313 314 314 317 320 319 314 315 316 316 315 315 317 319 322 326 329 330 330 331 331 331 333 332 332
304 304 304 304 304 305 305 305 306 306 308 309 310 312 315 315 316 315 314 312 311 316 319 322 322 317 317 316 315 313 314 318 321 323 327 329 329 329 330 331 332 332 332
302 302 303 303 303 304 305 305 305 305 305 305 305 307 308 310 312 313 312 310 307 308 310 311 318 320 320 317 317 315 313 315 316 320 324 326 325 325 326 328 329 329 330
301 300 301 300 302 302 303 303 302 302 303 303 304 304 305 307 308 310 311 312 308 303 304 309 311 316 318 319 317 317 317 316 317 317 319 320 320 320 321 323 324 325 326
297 297 297 299 299 300 299 298 300 301 301 301 303 301 301 303 306 308 309 310 309 306 302 307 308 311 314 316 316 315 315 313 316 318 318 317 317 318 318 320 321 322 323
294 294 294 295 294 294 295 297 296 297 298 298 297 299 299 302 304 305 305 305 304 305 302 304 307 309 310 311 313 315 314 315 315 316 318 318 317 317 317 317 318 320 321
291 291 291 291 290 291 293 293 292 296 294 293 296 297 299 303 302 301 300 300 302 302 300 298 302 304 306 310 311 312 313 315 314 315 316 316 316 316 316 316 316 317 318
288 288 288 288 288 289 291 290 291 293 291 291 294 296 300 298 297 295 296 299 299 297 298 298 300 303 304 307 308 310 311 313 314 312 314 315 315 315 315 315 316 316 316
286 286 287 286 287 288 288 288 290 290 290 292 295 298 294 293 294 294 296 292 292 293 294 294 295 298 300 302 304 304 305 308 306 309 310 310 312 313 314 315 314 313 313
285 285 285 285 285 286 287 288 289 289 290 288 288 290 290 292 294 297 295 292 291 291 292 290 292 294 294 296 297 301 301 304 306 307 306 305 305 306 308 311 311 311 311
283 283 283 283 283 285 290 291 291 290 288 285 284 286 288 290 291 296 296 296 294 291 289 289 290 290 292 294 296 297 297 296 296 303 302 303 304 303 305 308 310 311 309
282 281 282 282 282 283 289 291 292 288 285 285 285 286 287 289 290 291 293 295 294 294 294 291 290 291 292 294 295 294 294 295 297 301 300 299 298 300 303 301 308 309 307
281 281 281 282 282 283 288 290 290 286 285 285 286 286 286 287 289 290 290 289 289 289 290 292 293 294 295 296 297 297 296 296 298 299 297 294 296 296 291 293 304 305 304
280 280 281 281 281 281 287 289 288 285 285 285 286 287 287 287 290 291 288 287 286 287 292 296 296 296 297 296 296 296 294 293 293 295 292 293 287 285 286 288 296 302 301
280 281 281 281 283 281 286 288 288 286 284 285 287 287 289 288 290 291 287 286 286 288 291 291 290 291 292 292 295 294 292 288 289 289 288 288 284 284 282 283 286 295 295

GFSMA_sfc_thetae_012.txt.gz
Theta_e
318 317 317 316 316 317 317 318 317 318 317 316 315 313 313 311 309 309 309 315 319 322 326 327 329 332 334 338 338 337 335 334 333 333 333 333 332 330 330 330 330 330 329
319 318 317 316 316 317 318 318 318 318 317 315 316 314 314 313 312 310 309 309 317 320 324 327 329 328 331 334 339 339 337 337 336 335 334 334 334 334 333 331 331 331 330
319 320 317 316 318 317 317 317 317 316 316 316 314 315 314 313 312 311 309 310 311 318 321 326 327 328 328 329 332 338 338 337 336 336 335 335 335 334 335 335 334 334 333
319 318 318 319 319 315 315 314 315 314 313 313 314 314 314 313 313 311 311 311 310 309 313 319 323 326 329 328 330 332 336 335 335 335 335 335 335 334 335 335 335 335 335
319 318 318 319 317 315 313 314 314 312 314 314 312 313 313 312 312 314 312 311 311 312 311 313 318 321 325 329 329 330 333 333 333 333 334 335 335 335 335 335 334 335 335
317 317 317 317 317 315 315 313 314 317 315 316 316 316 317 317 315 313 314 315 314 313 311 311 312 313 318 322 326 329 333 334 332 332 332 332 333 335 335 334 334 335 335
317 316 316 316 316 315 317 318 318 315 315 315 313 315 316 316 315 316 316 316 315 316 314 312 312 312 312 320 322 324 327 331 333 333 333 332 332 333 334 335 334 333 334
320 320 318 317 317 316 316 315 316 317 317 317 313 314 311 314 314 316 316 316 315 317 316 315 314 311 311 311 312 320 323 326 329 330 333 334 334 334 334 334 334 334 334
309 309 310 312 314 316 317 317 318 318 316 318 319 314 310 310 315 317 311 314 315 315 315 316 315 315 313 311 313 314 318 321 325 328 330 332 334 335 335 335 335 334 334
307 306 306 305 306 308 307 310 311 315 316 315 318 320 319 316 311 310 317 314 313 313 315 315 315 315 315 314 314 314 315 318 322 327 330 330 330 331 332 336 335 334 333
305 304 304 303 303 304 304 304 304 305 306 309 309 311 312 312 313 310 306 309 315 317 317 315 316 316 316 315 314 314 317 320 324 327 330 332 332 332 332 333 335 335 333
302 302 302 302 302 302 303 303 303 303 303 305 305 305 305 305 305 306 305 305 306 310 314 317 318 316 317 317 317 316 318 320 323 327 330 332 332 332 332 333 335 335 333
299 299 299 300 300 301 302 303 302 302 302 302 302 302 304 304 306 306 304 303 304 307 308 312 315 318 318 318 317 315 316 319 321 324 328 331 331 331 331 332 334 334 333
297 297 297 298 298 299 300 299 299 300 300 300 299 301 302 303 303 303 303 303 299 301 303 304 310 313 315 316 317 315 315 316 318 321 324 326 326 325 326 328 329 330 330
295 294 294 294 295 294 294 294 296 296 296 298 298 298 297 299 300 302 304 305 300 295 296 300 301 306 309 311 313 314 315 316 319 319 319 319 319 320 321 322 324 325 325
291 291 290 290 290 289 290 291 294 291 293 296 293 293 295 297 298 301 303 302 300 298 294 298 299 301 304 306 309 311 311 312 315 318 319 318 318 317 318 319 320 320 321
288 288 287 288 287 287 288 288 290 289 291 291 290 290 292 295 298 298 299 296 294 296 295 296 296 297 297 300 305 308 309 310 312 315 317 317 317 317 317 317 318 319 319
286 286 286 286 286 286 286 287 286 287 289 287 289 290 292 296 292 294 294 291 293 297 290 288 291 293 295 296 299 302 304 307 309 312 315 315 316 316 316 316 316 316 317
284 284 284 284 284 285 285 285 285 287 287 288 289 288 286 289 288 288 288 289 294 293 290 289 289 293 292 293 297 298 299 300 304 308 311 313 315 315 315 315 315 315 315
282 283 283 283 283 284 284 285 286 286 287 289 287 285 285 285 286 287 287 288 293 290 289 289 289 289 289 292 293 292 292 296 297 301 305 306 310 311 313 313 313 312 312
282 282 282 282 282 283 284 285 286 286 286 286 285 285 286 288 291 290 289 288 289 289 289 289 287 287 287 287 287 291 291 294 296 297 297 300 304 306 306 308 307 308 309
281 281 281 281 281 283 288 290 289 286 286 284 284 285 286 288 288 292 292 292 291 288 287 286 286 284 285 286 289 291 292 291 289 297 297 297 300 301 303 304 307 308 309
280 280 280 280 280 281 287 289 290 286 285 284 284 284 285 287 288 287 290 291 290 291 291 287 285 285 285 288 291 289 289 290 290 294 295 292 297 297 302 302 306 306 307
279 279 279 280 280 281 287 288 289 285 284 285 285 285 285 286 287 287 286 286 287 286 286 288 288 288 290 292 291 291 290 290 291 293 296 291 296 296 298 298 300 303 304
279 279 280 280 279 280 286 287 287 284 284 284 285 286 287 285 288 290 286 285 284 285 289 290 292 292 293 293 292 289 286 286 286 288 292 292 294 294 287 287 291 297 302
279 280 279 279 281 280 284 287 286 284 283 283 285 286 287 286 289 289 284 283 282 281 283 285 286 288 288 288 290 289 287 284 284 284 285 289 290 285 285 284 286 292 300

GFSMA_sfc_thetae_015.txt.gz
Theta_e
328 328 328 327 327 327 327 326 326 326 326 326 326 326 325 324 323 322 321 320 321 325 326 327 328 330 329 331 336 339 339 338 337 335 335 335 334 334 332 331 331 331 331
327 327 327 327 326 327 327 326 326 325 325 325 325 325 324 324 323 323 322 322 320 322 326 329 328 329 330 331 332 337 338 339 338 337 336 335 335 335 335 335 335 335 334
328 328 327 326 326 326 326 325 325 324 323 324 323 323 323 323 323 322 322 321 321 320 322 327 330 331 330 331 332 334 336 337 338 338 337 336 335 335 335 335 335 335 336
327 327 326 326 326 325 324 323 323 322 321 320 319 321 320 322 322 322 322 322 321 320 321 321 325 329 331 332 332 332 335 334 334 336 337 337 336 335 335 335 335 335 336
325 325 325 325 325 324 323 322 322 321 320 321 320 320 322 321 322 321 321 321 321 320 321 321 320 322 326 329 332 333 336 335 333 333 335 336 337 337 336 336 336 335 335
323 323 323 323 324 323 323 323 321 322 321 321 319 319 322 324 324 323 322 322 322 322 321 320 321 320 320 321 325 330 332 336 335 334 333 333 334 335 336 336 336 336 336
322 321 321 320 321 321 321 322 321 320 320 322 316 316 319 322 323 324 324 323 323 322 323 322 322 320 320 321 322 325 328 330 333 335 335 334 334 334 335 335 336 336 336
310 310 310 310 311 312 312 313 314 313 315 319 316 315 312 315 321 321 323 323 323 324 323 323 323 322 321 321 320 321 323 326 330 331 334 335 335 335 336 336 335 335 335
308 307 307 307 308 309 307 309 309 309 307 309 312 311 307 306 310 314 319 321 322 322 322 323 323 323 323 322 320 319 319 320 325 329 331 333 335 335 336 336 336 336 335
306 305 305 305 306 306 305 306 306 306 306 304 307 309 310 310 303 302 308 313 315 316 319 320 321 322 322 323 321 318 318 320 323 327 330 331 332 333 334 336 336 336 334
304 302 303 303 303 303 304 304 304 304 304 304 304 304 305 306 307 304 301 304 309 310 313 316 318 320 321 323 323 322 320 320 324 327 330 331 333 333 334 334 335 335 334
300 299 299 299 300 300 300 300 302 302 302 303 304 303 303 302 302 302 300 301 302 305 309 312 313 316 318 321 320 318 319 321 323 326 329 330 331 331 333 333 334 334 334
296 296 296 295 296 296 296 297 297 300 300 300 301 302 303 300 300 300 300 300 300 303 306 309 310 312 314 316 316 314 315 319 320 322 325 327 326 327 327 329 330 332 333
294 294 293 293 293 293 292 293 294 299 297 297 299 297 297 296 298 299 299 298 295 297 300 299 304 305 307 308 310 310 310 312 314 318 319 320 322 321 323 325 326 326 328
291 291 291 291 291 291 291 291 291 293 292 294 295 293 294 295 298 300 301 301 297 292 291 294 296 301 304 304 304 301 304 308 312 314 316 316 317 318 320 321 321 322 323
289 289 289 289 289 289 289 289 290 291 290 291 292 291 293 294 296 299 298 297 297 292 288 294 296 301 299 298 300 301 301 303 306 310 312 312 313 315 316 317 319 320 320
288 287 287 287 287 287 287 287 288 288 288 289 290 291 292 292 291 292 295 294 293 291 288 292 297 298 296 296 298 299 300 300 305 308 310 309 310 312 314 315 316 317 318
287 286 286 286 286 286 286 286 286 287 287 288 289 291 289 288 287 289 290 289 290 291 290 289 294 293 293 295 297 296 297 301 301 302 303 308 306 306 309 312 313 315 315
285 285 285 285 285 285 285 286 286 287 288 288 289 288 287 287 286 288 288 289 290 290 291 289 289 292 293 295 293 294 295 296 299 300 301 302 304 304 305 306 308 312 313
284 284 284 284 284 284 285 286 287 287 288 288 288 287 287 287 286 288 288 289 289 289 290 288 288 289 290 292 291 288 290 293 294 297 299 300 301 302 304 306 308 309 310
284 284 283 283 284 284 284 286 287 287 287 287 287 287 287 288 290 290 289 288 289 288 287 287 286 287 287 287 287 289 287 290 293 295 295 296 299 301 302 301 303 306 307
283 283 282 282 282 283 286 288 288 287 287 286 286 286 287 288 289 291 290 290 290 287 286 286 285 284 285 287 288 288 288 286 286 296 292 292 295 296 300 300 302 304 305
282 282 282 282 282 283 286 288 289 287 286 285 285 286 286 287 289 288 289 290 290 289 288 286 284 284 285 286 287 287 286 287 287 291 291 287 291 292 296 298 302 303 304
281 281 281 282 282 282 286 287 288 286 286 285 285 286 286 287 287 287 287 287 286 286 287 287 286 286 287 288 288 288 288 288 289 290 290 285 291 290 294 299 302 303 303
281 281 281 281 281 281 285 286 287 285 285 285 286 286 287 286 287 289 287 284 283 284 287 287 288 289 289 289 289 287 285 284 283 285 289 286 287 288 292 294 296 297 297
281 281 280 281 282 281 284 286 286 285 284 284 285 286 287 286 288 289 285 283 281 282 284 284 285 285 286 286 288 287 286 283 283 282 288 285 287 286 285 291 289 290 289

GFSMA_sfc_thetae_018.txt.gz
Theta_e
331 331 331 331 331 331 331 331 331 331 331 331 331 331 330 330 331 330 330 327 327 327 330 332 332 330 330 332 332 335 337 339 339 339 337 337 336 336 335 334 334 334 333
334 333 332 332 332 332 332 331 331 331 330 331 331 331 331 331 331 330 331 331 329 327 328 332 334 334 333 331 331 335 335 337 339 340 339 337 336 336 336 336 336 336 336
334 334 333 332 332 332 331 331 331 331 330 330 330 330 330 330 330 330 331 331 330 327 327 329 332 334 334 335 334 334 336 335 336 337 339 338 338 336 336 336 336 336 336
333 333 332 332 332 331 331 330 330 330 329 329 328 329 328 329 328 329 329 330 330 329 329 328 327 329 333 335 337 337 337 336 335 335 336 337 338 337 337 336 336 336 336
330 331 331 331 331 331 330 329 327 327 325 326 323 325 325 325 327 328 329 328 328 328 328 327 326 326 326 328 332 335 337 337 336 335 334 334 335 337 337 337 336 336 336
329 329 326 323 324 323 322 322 321 322 322 322 319 321 322 323 325 325 327 327 328 328 328 328 328 327 324 325 326 329 332 333 336 335 335 335 335 335 336 336 337 337 336
315 315 315 314 314 314 313 313 313 312 313 315 311 312 314 318 322 320 324 326 324 325 326 328 328 329 328 327 327 327 328 330 332 334 334 334 335 335 335 336 335 336 337
311 311 311 311 311 311 311 310 311 309 310 311 307 307 305 308 312 314 313 313 316 317 320 323 325 325 327 328 327 326 327 327 330 331 332 334 335 335 336 336 335 335 335
309 309 309 309 309 309 308 308 308 307 304 307 308 305 302 301 305 307 309 310 311 313 313 315 317 319 319 321 324 324 323 325 326 329 330 331 333 334 333 335 337 336 335
306 304 305 305 305 305 304 304 303 304 303 301 303 304 306 304 299 298 305 307 309 309 310 312 312 313 315 317 319 320 321 323 326 328 329 330 331 332 333 334 335 337 336
303 301 301 301 301 300 301 300 300 300 301 300 300 300 302 303 302 300 298 299 302 303 305 307 310 311 313 315 315 317 319 319 322 324 327 328 329 331 330 331 335 335 335
300 298 298 298 298 298 297 297 298 299 300 299 299 300 300 299 297 296 294 296 297 299 302 304 306 308 311 309 311 312 312 311 312 314 317 321 323 324 326 328 330 328 328
296 296 296 295 295 296 295 296 296 298 299 296 297 299 299 295 295 294 293 295 295 298 300 303 304 305 305 306 307 308 308 309 306 307 312 316 316 317 319 321 323 323 324
294 294 294 294 294 294 294 294 294 295 296 295 294 295 295 294 295 295 295 296 294 294 297 296 301 300 301 302 305 307 303 305 306 306 309 307 307 313 314 314 317 319 320
292 293 293 292 293 293 292 293 292 292 293 293 293 294 293 294 295 296 296 296 293 288 291 295 294 296 297 299 301 302 301 301 304 302 303 305 308 311 313 313 313 316 318
292 291 291 291 291 291 291 291 291 291 291 291 292 292 292 293 294 293 292 292 292 290 287 292 293 293 295 297 300 299 298 299 302 301 301 303 305 308 308 309 311 313 314
290 290 290 290 290 289 290 289 289 290 289 290 291 291 291 293 291 290 290 290 289 290 288 290 292 294 293 295 296 296 298 297 299 299 299 302 302 304 306 308 307 309 311
290 289 289 289 289 289 289 288 288 289 289 289 289 290 289 290 289 289 289 288 289 290 289 287 290 291 291 292 294 294 295 295 295 296 297 298 300 301 304 305 307 306 306
289 289 288 288 287 288 287 288 288 288 289 289 289 289 289 288 287 288 288 289 290 290 290 289 288 291 291 292 291 292 292 292 294 295 296 297 298 299 301 303 304 303 305
288 288 288 287 287 287 287 287 288 288 289 289 289 289 288 288 287 287 288 288 289 288 289 288 288 288 289 291 291 289 289 292 292 294 295 296 297 298 300 300 302 302 304
287 287 287 287 287 287 286 287 287 288 288 288 288 288 288 288 289 289 288 288 288 287 287 287 286 286 286 286 286 288 287 289 290 292 293 295 296 298 298 298 299 299 302
287 287 286 286 286 286 287 288 288 287 287 287 286 287 287 288 288 290 290 290 289 287 286 286 285 283 284 286 287 286 286 285 283 291 290 291 294 293 295 296 296 298 301
286 286 286 285 285 285 287 287 288 287 287 286 286 286 286 287 288 288 289 289 289 290 289 286 284 284 284 286 286 285 286 285 285 288 289 287 292 291 295 294 297 297 299
285 285 285 285 284 284 286 287 287 287 286 286 286 286 286 286 287 287 287 287 288 287 287 286 286 286 287 288 287 286 286 286 288 290 290 285 291 289 293 294 294 296 298
285 284 284 284 283 284 286 286 286 286 285 285 286 286 286 286 287 288 286 286 285 285 286 287 287 288 287 287 287 285 284 282 283 285 289 287 288 288 289 291 293 294 297
284 284 283 284 284 283 285 286 286 285 284 284 285 286 287 286 287 288 286 284 282 282 283 284 285 285 285 285 286 285 285 281 282 281 287 284 286 286 283 291 291 291 292

GFSMA_sfc_thetae_021.txt.gz
Theta_e
331 331 331 331 332 332 331 331 331 331 331 332 332 331 331 331 332 332 333 330 333 334 333 334 335 336 335 334 333 336 337 337 338 339 340 339 338 338 338 337 336 336 336
334 334 333 333 333 333 333 332 331 331 331 331 331 331 331 331 331 331 332 332 332 333 334 335 335 336 338 338 336 336 336 337 337 338 339 340 339 338 338 338 337 336 337
335 334 334 333 334 334 333 332 331 331 330 329 328 328 330 329 329 329 329 330 331 330 333 335 335 335 335 338 339 338 339 337 336 336 336 337 339 338 338 338 338 337 337
334 333 332 332 332 331 331 329 328 327 325 325 325 326 326 326 325 325 327 329 330 329 330 333 334 334 333 333 335 337 338 338 337 336 336 336 336 337 338 337 337 337 337
332 332 331 328 326 327 325 323 320 320 320 320 320 320 321 322 322 322 323 325 327 329 329 329 329 330 332 331 333 333 334 336 336 336 336 336 336 336 337 337 337 336 337
319 320 318 316 316 316 315 315 314 314 313 313 311 312 314 316 317 317 322 322 325 324 321 324 326 327 327 330 332 333 333 332 332 335 336 335 336 336 336 336 336 336 337
314 313 313 312 313 312 311 311 311 311 310 312 309 309 310 311 313 313 313 311 312 313 315 316 317 321 322 328 330 332 332 332 332 331 333 334 333 335 336 337 336 336 336
310 310 310 309 309 309 309 308 307 306 306 307 304 303 301 304 309 307 306 308 309 310 312 312 313 314 315 315 315 324 327 329 329 330 331 331 332 332 332 334 335 337 336
306 305 305 305 305 305 305 304 304 303 301 303 304 301 297 295 299 303 304 305 306 305 308 307 307 308 310 311 312 313 317 323 324 326 327 327 327 328 329 330 331 334 336
304 302 302 301 301 302 300 301 300 300 300 299 301 300 302 300 296 295 301 301 302 301 301 303 303 304 306 309 312 314 317 316 318 321 323 322 323 325 327 329 330 331 332
302 300 299 299 298 298 298 298 298 298 298 299 298 297 298 299 300 295 291 294 297 298 299 301 303 302 303 305 309 310 314 313 314 315 317 317 317 318 320 321 323 325 326
300 298 297 297 297 297 296 296 297 297 297 299 297 296 296 296 294 292 290 291 292 296 299 300 301 303 304 304 306 308 310 309 309 312 313 314 314 314 317 316 317 321 322
296 295 295 295 295 296 295 296 296 297 297 297 296 295 295 295 295 293 292 291 291 294 296 298 299 297 299 300 299 302 301 306 306 308 310 311 309 308 309 310 312 313 315
294 294 294 294 294 294 293 294 294 295 296 295 294 294 293 294 294 294 292 291 289 289 290 290 295 296 296 296 296 299 296 301 304 305 306 306 304 304 305 306 307 308 312
293 293 293 292 292 292 292 293 292 292 292 292 292 293 292 293 294 293 294 293 288 283 284 288 288 293 294 294 296 295 295 300 302 301 301 302 303 303 302 303 306 307 307
292 292 291 291 291 291 291 291 291 291 290 291 291 291 291 292 292 293 292 291 290 287 283 288 289 291 293 294 295 294 294 297 299 299 299 301 301 300 300 302 303 303 304
291 290 290 290 290 290 290 289 289 289 289 289 290 290 290 291 290 290 290 290 289 288 284 287 290 292 291 290 291 293 293 293 294 297 297 298 298 299 299 300 301 301 302
290 290 290 289 289 289 289 288 288 288 288 288 289 289 289 290 289 289 289 288 288 288 286 284 287 288 288 290 290 290 291 292 292 295 296 296 297 297 298 299 300 302 303
289 289 289 288 288 288 288 288 287 287 287 288 288 288 288 288 287 288 287 287 287 288 288 286 285 287 288 289 288 288 287 289 291 294 295 295 295 296 297 298 300 301 301
289 289 288 288 288 288 288 287 287 287 287 288 288 288 288 288 287 286 286 286 287 287 286 285 285 285 286 288 287 284 284 287 287 289 291 292 293 294 295 297 298 299 299
288 289 288 288 288 288 287 287 287 286 286 286 287 288 288 289 290 289 287 287 286 286 285 284 284 284 285 283 282 284 283 284 285 287 287 288 289 290 292 294 295 296 298
288 288 288 287 287 287 289 289 288 286 286 286 286 287 287 289 288 289 290 290 289 285 283 283 283 283 282 282 282 282 282 281 280 286 285 285 288 287 289 291 294 295 296
287 287 287 287 286 286 289 289 288 286 285 286 285 285 286 287 287 287 288 289 289 289 289 284 282 282 280 282 283 282 283 282 280 283 284 282 286 286 290 291 294 294 295
286 286 286 286 285 285 288 288 287 286 285 286 285 285 285 285 286 286 286 285 286 286 285 285 284 283 283 284 284 284 282 282 283 284 286 281 286 284 288 289 292 292 294
285 285 285 285 284 284 287 287 287 285 285 284 285 285 285 285 287 288 285 284 282 282 286 287 287 287 287 287 286 283 280 279 278 280 284 282 283 284 284 285 287 291 293
285 285 284 285 285 284 287 287 287 285 284 284 285 285 287 286 288 288 284 282 279 280 282 282 282 283 283 283 285 283 282 278 278 277 281 280 280 281 279 284 287 287 288

GFSMA_sfc_thetae_024.txt.gz
Theta_e
324 324 324 324 325 325 324 324 325 326 326 326 326 327 327 327 327 328 327 329 334 338 339 338 338 338 338 337 339 339 338 338 338 338 339 340 340 340 339 339 338 338 338
327 328 327 328 329 329 328 328 327 327 327 327 327 327 327 327 326 324 324 325 331 335 338 339 339 339 338 338 337 338 339 339 338 338 338 338 338 338 339 339 339 338 338
328 328 327 327 329 329 329 328 327 327 325 324 321 321 320 320 322 321 321 321 323 327 333 338 340 339 337 337 337 336 337 338 338 338 338 338 337 337 337 338 338 338 338
329 326 328 324 326 328 325 323 317 314 314 315 314 316 317 318 318 317 317 318 319 322 327 334 337 336 337 335 336 336 335 337 336 336 336 337 336 336 337 337 337 337 337
320 321 316 311 311 312 310 309 308 307 306 306 307 306 307 307 309 313 312 312 312 311 311 318 325 329 332 335 335 334 334 335 335 335 336 336 335 336 337 337 336 336 337
310 310 309 307 308 307 306 305 304 305 304 304 306 305 305 306 306 306 306 305 304 307 308 308 308 311 321 324 324 326 328 330 332 332 333 332 333 333 333 334 337 338 337
307 305 306 305 305 304 303 303 302 301 300 301 299 299 300 302 300 301 300 300 303 304 305 304 306 306 305 314 317 318 320 321 323 325 329 330 329 329 330 331 333 334 336
302 302 300 300 300 299 299 298 297 297 297 297 295 294 292 295 298 299 300 301 300 301 300 303 299 300 301 303 305 315 315 316 320 322 323 324 325 326 328 328 329 330 332
299 298 298 297 297 297 296 295 294 294 293 295 295 293 290 289 292 296 297 298 297 297 297 297 297 299 299 299 304 307 312 313 317 319 320 321 322 323 324 324 324 326 327
297 296 296 295 294 295 293 293 294 292 292 292 294 296 293 292 289 289 294 295 295 294 294 295 296 297 298 299 303 306 310 314 313 316 318 318 319 320 321 320 321 322 322
296 295 294 293 292 293 291 291 291 291 292 292 293 291 291 291 292 291 287 288 291 292 294 295 296 296 298 297 298 300 307 305 307 309 312 314 315 317 318 318 317 317 317
294 293 293 291 291 291 291 290 290 290 291 292 292 291 291 288 287 288 287 287 287 290 293 295 295 293 294 293 298 302 301 302 304 307 309 310 310 310 312 313 313 312 312
290 290 290 289 289 290 290 290 290 289 290 289 290 289 290 289 290 290 287 286 286 288 290 291 291 291 293 292 293 298 298 299 301 303 306 308 308 307 308 309 309 308 309
289 289 289 288 288 289 288 288 288 289 288 287 286 287 288 289 290 289 288 286 283 286 287 286 289 289 290 290 293 298 292 297 298 300 301 303 302 302 303 304 304 306 306
290 288 287 287 287 287 287 287 287 286 286 286 286 286 287 288 289 289 288 288 286 281 281 285 285 288 289 290 292 293 291 295 297 298 298 298 299 299 300 301 302 302 302
288 287 286 286 286 286 286 285 285 286 285 285 287 286 286 287 287 288 288 287 286 284 280 285 286 287 288 290 291 290 290 295 295 297 297 296 297 298 298 298 299 300 299
286 286 286 286 285 285 285 284 284 285 284 284 285 286 286 287 287 287 287 287 285 285 282 284 285 287 287 286 287 288 290 289 290 295 294 294 295 296 297 297 298 298 299
286 285 285 285 285 285 285 284 284 284 283 283 284 285 285 287 285 286 286 285 284 285 283 281 284 285 285 286 286 286 289 290 289 291 293 293 295 295 295 296 296 296 297
285 285 285 285 285 285 285 284 284 283 284 284 284 284 285 285 284 285 284 284 284 285 285 284 282 285 285 286 285 287 287 286 287 289 291 292 293 293 293 294 295 295 296
284 284 285 285 285 285 285 285 284 284 283 284 285 285 285 285 284 284 284 284 285 285 284 283 283 283 283 285 285 283 282 283 282 285 288 289 291 291 292 293 293 293 294
285 285 285 284 284 285 286 285 285 284 283 283 284 284 285 287 290 288 286 285 284 283 283 283 282 282 282 281 281 281 279 280 281 283 283 285 284 285 286 289 290 292 293
283 284 283 283 283 285 289 290 288 284 283 283 282 284 284 286 286 289 289 289 288 285 283 282 281 280 279 280 281 280 279 278 277 284 281 280 283 283 285 286 290 293 294
282 282 282 282 281 281 288 289 289 284 283 283 283 283 283 285 285 284 287 289 288 289 288 283 279 279 279 281 281 280 280 280 279 281 281 279 283 282 285 287 290 291 292
281 280 281 281 281 282 288 288 288 284 283 283 283 283 283 283 284 285 285 284 284 284 283 283 281 282 283 283 283 282 281 280 280 281 282 277 281 281 283 285 289 289 290
280 280 281 281 280 281 287 288 287 283 283 282 283 283 284 284 286 288 284 283 282 281 284 286 287 287 286 286 285 281 278 277 276 278 280 278 279 279 280 281 284 288 290
281 282 281 280 283 280 286 288 287 284 282 282 283 283 286 285 287 288 284 281 279 278 280 282 280 280 281 281 284 281 280 276 276 275 279 277 277 278 276 281 283 284 284

GFSMA_sfc_thetae_027.txt.gz
Theta_e
322 322 322 322 322 323 323 323 325 326 327 325 326 326 326 324 324 324 324 327 332 336 336 336 337 342 340 339 339 339 339 338 338 339 339 339 338 339 340 340 340 339 339
325 325 325 326 328 328 328 327 326 326 325 324 321 320 320 319 319 318 319 319 327 330 333 334 336 337 337 337 337 338 338 338 337 337 338 339 338 338 338 338 338 339 339
326 326 327 325 326 327 322 318 313 312 310 310 308 311 314 314 315 316 317 316 317 323 327 323 325 329 332 334 335 335 337 336 336 337 337 336 337 337 338 338 338 338 338
326 321 313 311 313 312 308 306 305 305 304 304 304 304 304 305 306 307 309 308 308 306 313 319 320 320 323 325 328 330 331 334 333 333 333 334 334 335 335 337 337 337 337
311 310 309 306 306 306 304 303 303 302 301 301 301 301 302 301 303 306 303 300 300 302 304 311 315 317 316 316 319 321 322 322 325 325 328 329 329 331 332 333 334 335 336
305 305 304 302 303 302 301 299 299 298 298 298 299 300 298 299 301 298 297 297 299 300 301 301 301 303 310 309 312 314 315 316 316 318 319 324 325 326 328 329 329 330 332
301 300 300 299 299 298 296 296 296 295 295 295 294 294 295 296 295 295 295 297 298 299 297 297 297 296 297 306 307 309 313 314 315 316 318 320 321 323 325 327 327 327 329
298 297 296 296 295 295 293 292 292 292 293 293 292 291 289 292 294 294 295 296 295 295 295 295 295 295 296 296 299 307 308 310 312 315 316 317 319 320 321 322 323 323 325
295 295 294 293 293 293 291 290 290 290 289 292 293 290 286 286 289 292 292 294 293 293 292 293 294 295 295 295 299 300 305 306 310 313 314 315 315 317 319 320 321 322 322
293 294 293 292 291 292 290 290 291 289 290 289 292 294 291 289 286 285 291 291 292 292 292 292 293 295 295 296 297 300 300 304 306 309 311 312 313 314 315 316 316 318 319
292 292 291 290 290 290 289 288 288 288 288 289 289 290 288 288 288 285 282 285 290 290 291 291 293 293 294 292 292 295 300 301 304 306 307 308 308 310 312 313 313 313 313
291 290 290 288 288 288 288 288 288 287 287 288 288 289 288 286 286 284 283 284 285 287 289 290 291 291 291 291 294 297 297 299 301 303 306 306 306 307 307 308 310 311 312
288 287 287 287 287 287 287 287 287 287 287 286 286 286 287 287 287 286 285 284 283 286 286 289 289 288 290 289 290 294 295 297 299 301 303 305 303 302 304 305 305 306 307
287 286 286 286 286 286 286 286 286 286 286 284 283 283 285 286 287 287 285 284 282 282 285 284 287 287 288 289 291 294 290 296 296 297 299 301 299 299 300 302 302 303 304
288 286 285 285 285 285 285 285 285 284 284 283 283 283 283 285 286 287 286 286 283 279 280 283 283 287 287 288 289 289 289 293 294 295 296 297 297 298 298 297 298 299 300
285 285 285 284 284 284 284 283 283 284 283 283 284 282 283 285 285 286 286 285 285 282 279 283 284 285 286 287 289 289 288 292 293 294 295 295 296 296 296 296 296 297 299
284 284 284 284 284 284 284 283 283 283 282 282 282 283 283 284 284 285 285 285 284 283 280 282 284 285 285 285 286 287 288 287 288 293 294 295 295 295 294 294 294 297 297
284 284 284 284 284 285 284 283 282 282 281 281 282 282 283 285 283 284 284 283 283 283 282 280 283 284 284 285 285 285 286 287 288 291 292 293 293 292 293 293 294 294 294
284 284 284 284 284 285 284 283 282 281 282 282 282 282 283 283 282 283 283 283 283 284 284 283 282 284 284 286 284 285 285 285 287 289 290 290 290 291 291 292 293 293 293
284 284 284 284 284 284 283 283 282 282 282 282 283 283 283 283 282 283 283 283 285 283 283 282 281 283 283 284 284 280 280 282 281 284 286 287 289 290 291 291 290 290 291
284 284 283 283 283 283 285 285 284 283 281 281 282 283 283 285 288 287 285 283 283 282 283 283 281 282 281 279 278 279 278 280 281 282 282 282 284 284 284 287 287 289 290
282 282 281 281 281 284 288 289 288 284 282 281 281 282 283 285 285 288 288 288 287 284 282 282 281 278 278 278 279 279 279 279 277 283 281 280 282 281 282 283 288 289 290
280 280 280 280 279 280 288 289 289 284 282 281 281 282 282 284 285 283 286 288 287 289 288 283 280 279 278 279 280 280 279 278 278 280 280 277 281 279 282 284 287 288 289
279 279 279 279 279 281 287 288 288 283 281 281 281 282 282 282 283 284 283 283 284 284 283 283 281 281 282 283 282 280 279 279 279 280 280 275 279 278 280 281 286 288 288
278 278 279 279 278 278 286 287 286 282 282 281 282 282 283 283 285 287 283 283 281 280 283 285 286 286 285 285 284 280 278 276 275 276 279 277 277 277 278 279 281 286 287
279 280 279 278 281 278 284 287 286 282 281 281 282 282 285 284 286 288 283 281 277 277 280 281 278 279 281 280 284 281 278 275 274 274 278 276 276 276 275 279 280 283 283

GFSMA_sfc_thetae_030.txt.gz
Theta_e
319 321 321 321 321 322 323 324 325 325 323 321 319 316 317 318 317 318 316 323 326 327 327 330 332 333 336 339 339 339 338 338 337 338 337 337 338 339 339 339 339 338 338
324 324 323 323 325 326 324 317 314 313 311 310 307 307 308 309 309 310 311 312 321 318 318 321 323 325 326 330 332 333 334 334 334 336 336 334 335 335 336 337 339 339 339
325 319 312 312 314 312 311 309 308 305 303 304 301 304 303 303 303 304 307 306 304 311 315 317 318 320 323 324 325 325 325 326 325 326 328 328 331 333 333 334 335 336 337
314 311 309 308 309 307 304 302 301 300 299 299 298 299 299 300 299 302 301 297 298 301 306 311 312 313 313 315 317 319 320 319 319 319 320 321 322 324 326 329 331 332 334
308 306 304 302 302 300 298 299 298 297 296 295 296 296 297 295 298 300 295 294 297 298 299 303 307 305 306 309 312 313 314 315 316 317 318 318 320 322 323 325 327 329 330
302 301 298 297 299 297 295 295 294 294 294 293 296 297 294 295 297 293 291 296 297 296 295 295 295 294 303 305 307 310 312 313 313 313 313 314 316 317 319 322 324 326 327
297 296 296 295 296 293 292 292 292 292 292 292 292 291 292 294 292 291 292 293 294 294 293 292 293 293 295 302 304 307 309 309 310 310 311 315 317 318 320 321 321 322 322
295 295 293 293 292 292 290 290 290 289 290 291 289 289 287 289 291 291 291 292 291 292 293 293 292 293 292 294 297 303 303 306 307 309 311 312 313 314 315 317 318 319 321
294 293 292 291 291 290 289 288 288 288 287 289 290 289 284 283 286 289 289 289 290 289 291 292 292 292 292 293 295 295 299 301 304 308 309 309 311 312 313 314 315 316 317
291 292 291 290 289 289 287 288 290 287 287 287 289 292 289 288 283 282 287 288 287 288 289 288 290 291 292 292 294 296 298 299 302 305 307 308 309 309 311 311 311 313 313
290 290 289 288 288 288 287 286 287 285 286 287 286 287 286 286 286 284 281 282 286 288 288 288 288 289 291 290 290 292 297 298 301 304 305 306 307 308 309 309 310 310 310
289 288 288 287 286 286 286 286 285 285 285 285 285 285 285 283 283 282 280 281 282 284 286 288 288 288 289 289 292 295 295 297 299 301 303 305 305 305 306 307 307 308 308
286 286 286 285 285 285 285 285 285 285 285 283 282 283 284 285 285 283 282 281 281 284 284 285 286 287 288 288 288 293 294 295 296 299 302 303 301 301 302 304 304 305 306
285 285 284 284 284 285 284 284 284 284 284 283 281 281 283 283 284 284 283 282 279 280 283 282 285 285 285 286 289 293 289 293 294 296 298 299 298 298 299 300 301 302 303
287 284 284 283 283 284 284 283 283 282 282 282 281 281 281 283 283 284 284 283 281 277 278 282 282 285 285 286 288 287 287 292 294 294 295 295 295 296 296 298 299 299 299
284 284 283 283 283 283 283 282 282 283 282 281 283 281 281 282 283 283 283 283 283 281 277 282 283 284 285 286 287 287 287 291 292 293 294 294 294 295 296 297 297 297 297
283 283 283 283 283 283 283 282 282 282 281 281 281 281 282 282 282 283 283 283 282 282 279 281 283 284 284 284 286 286 287 286 287 292 293 292 293 293 294 294 295 295 295
283 283 283 283 283 283 283 282 281 281 280 280 281 281 281 284 281 282 282 282 282 282 281 279 282 283 283 284 284 284 286 288 286 289 290 291 291 292 292 292 292 292 293
282 283 283 283 283 283 283 282 281 281 281 281 281 281 281 281 281 281 281 281 282 283 283 281 280 282 283 284 284 284 283 282 284 287 289 289 290 290 291 291 291 292 292
282 282 282 283 283 282 282 282 282 281 281 281 282 282 281 281 281 281 282 282 283 281 281 281 281 282 282 283 283 279 279 280 280 282 285 287 289 289 289 290 290 290 290
282 282 282 281 281 282 283 284 284 282 281 280 281 281 282 284 287 286 284 283 282 282 282 282 280 280 281 279 278 279 278 279 280 282 282 281 282 283 283 286 286 287 288
281 281 280 280 279 282 287 289 287 283 281 280 280 281 282 285 284 288 287 288 286 283 281 280 281 278 278 278 279 278 278 278 275 281 279 279 281 280 281 282 286 287 288
279 279 279 278 278 278 287 288 289 284 281 280 280 281 281 283 284 282 285 287 286 288 287 282 278 278 278 278 280 279 278 277 277 279 279 277 280 278 281 282 286 287 287
278 278 278 278 277 279 286 287 288 282 281 280 280 280 280 281 282 283 282 282 284 281 281 281 280 280 282 282 280 280 279 279 279 279 279 274 278 277 279 280 285 286 287
277 277 278 277 276 277 285 286 286 281 281 280 281 281 282 281 285 287 284 281 280 279 282 284 286 285 284 284 283 280 277 275 274 275 278 276 276 276 277 278 280 285 286
277 278 277 276 280 277 283 286 285 282 280 280 281 282 285 283 286 287 282 279 276 277 280 280 278 279 280 280 283 280 278 274 274 273 277 275 276 276 275 278 279 280 281

GFSMA_sfc_thetae_033.txt.gz
Theta_e
318 317 318 320 321 321 324 322 319 315 312 311 309 307 308 307 306 308 309 318 317 317 321 323 324 325 327 329 331 331 331 332 332 333 333 334 334 335 335 336 338 338 338
325 324 318 317 312 314 312 311 309 308 305 302 301 301 301 301 301 302 305 301 311 312 315 319 320 322 321 322 323 323 324 325 325 325 326 327 327 329 331 334 335 335 337
317 311 311 310 309 309 308 306 304 300 298 298 295 297 297 298 297 301 298 294 299 307 310 313 314 314 314 315 317 318 319 318 318 319 320 321 322 322 323 325 328 331 333
311 309 308 306 304 302 300 298 296 295 295 294 293 294 295 294 296 296 293 293 297 298 300 307 307 307 308 311 313 313 314 315 316 317 317 317 317 318 321 324 325 326 328
306 303 301 300 297 295 294 295 294 293 292 292 293 294 293 292 297 294 290 294 295 295 294 299 301 301 303 306 309 311 312 313 313 313 314 314 315 317 319 319 320 322 325
299 298 296 295 295 293 292 291 291 291 292 290 294 294 291 292 294 289 290 293 293 292 292 292 290 292 300 302 304 307 309 309 309 310 311 311 312 314 317 319 321 321 322
296 294 294 293 292 291 289 290 290 289 289 290 289 289 291 292 291 289 290 289 290 290 291 290 291 291 292 299 300 304 306 306 307 308 308 310 312 313 314 315 316 317 319
293 293 292 291 290 289 288 288 288 287 288 289 288 287 285 286 289 290 289 291 287 289 290 290 290 290 289 290 294 301 301 303 305 306 307 308 309 311 312 313 314 315 316
292 291 290 290 289 288 287 287 287 286 285 287 288 285 281 281 284 287 287 288 288 287 287 289 290 290 290 289 293 294 298 300 302 305 306 307 308 309 310 311 312 313 313
290 290 290 289 288 287 286 287 287 285 286 285 286 289 287 286 281 280 285 287 285 286 286 286 288 288 289 289 293 295 296 298 301 304 306 307 307 308 309 310 310 311 311
289 289 288 287 286 286 285 285 284 284 285 285 284 285 284 284 284 282 279 281 283 285 286 286 286 287 287 289 289 291 296 297 300 302 304 305 306 307 309 310 309 309 309
287 287 287 285 285 285 284 284 284 283 283 283 283 283 283 281 281 280 279 279 279 282 284 286 286 286 287 287 290 294 294 296 298 300 302 303 304 304 305 306 306 306 307
285 285 284 284 284 284 284 284 284 283 283 282 281 281 282 282 283 282 280 279 278 281 282 283 284 285 287 287 287 292 293 295 296 298 300 302 301 301 301 302 303 304 305
285 284 283 283 283 284 283 283 283 283 283 281 280 280 281 282 282 282 281 279 277 278 280 279 284 283 285 285 288 292 288 293 294 295 297 299 298 298 298 299 300 301 301
286 283 283 283 283 283 283 282 282 281 281 281 280 280 280 282 282 282 282 281 279 275 276 280 280 284 285 285 287 287 286 291 293 294 295 295 295 295 296 297 297 298 299
283 283 283 282 282 282 282 282 281 282 281 280 282 280 280 281 281 282 281 282 281 279 276 281 281 283 284 286 287 287 286 291 292 293 293 293 294 294 294 294 295 296 296
282 282 282 282 282 282 282 281 281 281 280 280 280 280 281 281 281 281 281 281 281 280 278 280 282 284 284 283 284 285 286 285 286 291 292 292 292 292 292 293 293 294 295
282 282 282 282 282 282 281 280 280 280 280 279 280 280 280 283 280 280 280 280 280 281 279 278 281 282 281 283 283 283 285 287 288 289 290 290 290 291 291 291 292 292 293
281 282 282 281 281 282 281 280 280 280 280 280 280 280 280 280 279 280 280 280 281 283 282 281 279 282 282 283 283 284 283 283 283 286 288 289 289 290 290 291 291 291 291
281 281 281 281 281 281 281 281 281 281 280 281 281 281 280 280 280 280 282 282 283 281 281 280 280 281 282 283 283 279 278 280 280 282 285 286 288 289 289 289 289 289 289
281 281 280 280 280 280 282 283 283 281 280 279 280 280 281 283 286 286 284 282 282 281 281 280 279 280 278 278 276 278 278 279 280 281 281 280 281 281 282 285 285 287 287
280 279 279 278 278 281 286 288 287 282 280 279 279 280 280 283 283 287 287 287 286 282 281 281 278 277 276 277 278 278 278 277 274 281 279 278 280 279 280 281 285 286 288
278 278 278 278 277 277 286 288 288 282 280 279 279 280 280 282 283 281 284 286 286 287 285 281 277 276 276 278 280 279 277 277 276 279 279 277 279 277 279 280 285 286 287
277 277 277 277 276 278 286 287 287 281 279 279 279 279 279 280 281 283 282 284 280 280 280 280 279 280 282 282 280 280 279 279 279 279 279 274 277 276 278 279 284 286 286
277 276 277 276 275 276 284 286 285 281 280 279 280 280 282 282 284 287 283 279 279 278 282 284 286 285 284 284 283 280 277 275 274 275 278 276 276 276 277 278 280 285 286
277 277 276 276 278 276 282 286 285 281 280 280 281 281 284 283 286 287 281 279 276 276 279 280 278 278 280 280 283 280 278 274 274 273 277 275 275 276 274 279 280 280 280

GFSMA_sfc_thetae_036.txt.gz
Theta_e
321 317 318 319 320 320 320 313 311 310 307 305 301 302 302 300 300 301 303 311 314 316 319 322 323 324 323 323 323 324 324 325 326 325 326 327 328 328 330 332 334 336 336
324 324 317 311 310 311 310 308 306 303 298 297 295 295 296 297 296 301 295 297 310 312 314 317 317 317 316 317 318 319 318 319 319 320 321 322 322 323 324 325 326 329 332
317 312 311 308 305 305 304 300 297 296 293 294 292 293 294 293 296 293 292 294 297 304 310 311 311 310 311 313 314 315 315 316 317 317 318 318 318 319 319 322 324 326 327
311 309 306 303 299 297 296 294 293 293 291 291 290 292 292 292 296 289 292 293 295 294 298 305 305 305 307 309 311 312 313 313 313 314 314 315 315 316 318 320 321 322 323
306 304 300 296 294 292 292 292 291 292 289 290 290 292 290 290 294 290 290 292 292 291 292 297 300 300 302 304 307 309 311 311 311 310 311 312 313 313 315 317 319 320 322
300 298 294 292 292 291 290 290 289 289 290 288 291 290 290 291 292 287 290 291 290 290 290 289 289 291 299 301 303 305 307 308 308 308 309 310 311 312 315 315 316 318 318
295 293 292 291 290 289 288 288 288 287 288 289 287 288 289 290 290 288 288 288 288 288 289 287 288 289 290 297 299 301 304 305 306 307 307 308 309 310 312 313 314 315 316
293 292 290 289 289 288 287 286 286 286 286 287 285 285 282 284 287 288 287 289 286 287 287 288 287 289 288 289 292 298 300 302 304 306 307 307 309 310 311 312 312 313 314
291 290 289 288 288 287 286 285 285 285 284 285 287 284 279 278 283 285 286 287 285 285 285 286 287 288 288 288 291 292 297 299 302 304 306 307 308 309 310 311 311 312 313
289 289 288 287 287 286 285 286 285 284 284 283 284 287 285 285 279 279 283 285 283 284 283 284 286 286 287 288 291 294 296 297 301 303 305 306 307 308 309 310 310 311 311
287 288 287 286 286 285 284 284 283 283 283 283 283 283 282 283 282 280 278 279 283 284 284 283 284 285 286 287 287 290 295 297 300 302 304 305 306 307 308 308 309 309 309
286 286 286 285 284 284 283 283 283 282 282 282 282 281 281 280 280 278 277 279 279 280 282 284 283 284 285 285 289 293 294 296 298 300 302 303 303 304 305 306 307 306 306
284 283 284 283 283 283 283 283 283 282 282 281 280 280 281 281 282 281 279 278 277 280 280 281 283 283 286 285 286 291 292 294 295 297 300 302 301 301 301 303 304 304 304
283 283 283 283 283 283 282 282 282 282 282 280 279 279 281 281 281 281 279 278 276 276 279 278 282 282 282 284 287 291 287 292 293 295 297 298 298 297 298 299 300 300 301
284 283 283 282 282 282 282 282 281 281 280 280 279 279 279 281 281 281 281 280 278 274 275 278 278 282 284 284 286 286 286 290 292 293 294 294 295 295 296 296 297 297 297
283 282 282 282 282 282 281 281 280 281 280 280 281 279 279 280 280 281 280 281 280 278 275 280 281 282 283 285 286 286 285 289 291 292 293 293 293 294 294 295 294 295 295
282 282 282 282 281 281 281 280 279 280 280 280 280 279 280 280 280 280 280 280 280 279 277 279 282 283 282 282 283 284 285 284 285 290 292 292 292 292 292 293 293 293 294
282 282 282 281 281 281 280 279 279 279 279 279 279 279 279 282 279 280 280 279 279 280 279 277 280 281 281 282 283 283 285 287 286 288 290 290 290 291 291 291 291 292 292
281 281 281 280 280 280 280 279 279 279 280 279 279 279 279 279 278 279 279 279 280 282 282 280 279 281 282 283 283 282 281 281 282 286 288 288 289 290 290 291 291 291 291
281 280 280 280 280 279 280 280 281 280 280 280 280 280 279 279 279 279 280 280 282 280 280 280 280 280 282 281 280 277 277 279 279 282 285 286 288 288 289 289 288 288 288
280 280 279 279 278 279 282 282 282 281 280 279 279 280 280 282 286 286 283 282 281 281 280 280 280 278 277 277 276 277 277 278 280 281 280 280 280 280 281 285 285 286 287
279 278 278 278 277 280 285 288 287 281 280 279 279 280 279 283 282 287 287 287 286 283 282 278 277 276 276 276 277 277 278 276 275 281 279 279 281 280 280 281 285 286 287
277 277 277 277 276 276 285 288 288 282 280 279 279 279 280 282 283 280 284 286 286 287 285 280 277 276 276 278 279 278 277 277 276 279 279 277 279 278 280 280 285 286 287
276 276 276 276 275 277 286 287 287 281 279 278 279 279 278 279 280 283 282 283 280 280 280 280 279 280 282 282 280 280 279 279 279 279 279 274 277 276 278 280 284 285 286
276 275 276 275 275 275 284 286 285 280 279 279 280 279 279 281 284 287 284 280 279 279 282 284 286 285 284 284 283 280 277 275 274 275 278 276 276 276 277 278 280 284 286
277 277 276 275 278 275 282 285 285 281 279 280 280 280 284 283 286 287 282 279 276 276 279 280 277 278 279 279 283 279 277 274 273 273 277 275 275 276 274 278 278 280 280

GFSMA_sfc_thetae_039.txt.gz
Theta_e
329 326 327 328 327 324 318 314 311 308 304 304 303 303 304 305 304 310 305 314 315 318 319 322 321 320 319 320 321 320 320 321 321 322 322 323 324 325 325 326 327 329 331
325 327 316 313 312 311 309 309 305 304 301 301 300 301 303 301 305 302 304 307 310 313 315 316 315 315 315 316 317 316 317 317 318 319 320 320 321 321 321 322 324 326 327
326 316 312 309 307 308 303 303 303 301 300 299 298 300 301 299 305 299 302 303 302 306 309 310 309 310 310 312 314 314 314 315 315 316 316 316 317 318 319 320 321 323 324
315 311 307 304 301 302 302 300 299 300 297 297 297 299 298 300 298 299 300 301 299 299 300 303 303 303 305 307 309 311 311 312 313 313 313 313 314 315 316 317 318 321 323
311 305 301 300 299 298 299 298 297 298 296 296 296 298 298 300 297 298 298 298 297 298 298 296 298 298 300 303 306 308 308 308 310 310 310 311 312 313 314 315 317 318 319
303 301 298 298 297 297 296 296 295 296 294 294 294 295 298 301 298 297 296 297 296 296 296 294 294 294 297 299 302 304 305 306 307 308 308 310 310 312 313 314 315 316 317
299 297 297 296 296 295 293 293 295 293 293 294 294 295 296 296 299 299 295 297 295 294 294 293 293 293 294 297 298 299 302 303 305 306 307 308 309 310 312 313 313 314 316
296 296 295 294 294 293 293 293 293 293 292 293 290 291 289 293 295 295 295 294 293 293 292 292 291 292 293 293 294 297 298 301 303 305 306 307 308 310 311 312 313 314 314
295 294 294 293 293 294 292 291 292 292 290 292 292 290 288 287 288 292 293 294 292 291 291 290 290 291 291 292 293 294 296 298 301 304 306 307 307 309 310 311 312 313 313
293 293 293 293 292 292 291 291 291 291 291 289 291 290 291 290 285 284 290 291 290 288 289 289 289 290 290 291 292 293 295 297 300 303 305 306 307 308 309 310 310 311 311
292 292 292 292 291 291 290 290 289 289 289 289 289 288 288 288 288 285 282 285 287 288 288 288 288 289 290 290 291 291 294 296 299 301 303 305 306 307 308 308 309 309 309
290 290 290 290 290 290 290 289 289 289 288 288 288 287 287 286 285 284 282 283 283 285 287 288 288 288 289 290 290 292 293 295 297 299 301 303 303 304 305 306 306 306 307
288 289 289 289 289 289 289 289 289 289 288 288 287 287 287 287 286 285 284 283 282 284 285 287 287 288 288 289 289 290 292 294 294 297 299 301 300 300 301 302 303 304 304
288 288 288 288 288 288 288 288 289 288 288 287 286 286 286 287 286 286 284 282 281 282 284 284 287 287 288 288 289 290 289 291 293 294 296 297 297 297 297 298 299 300 301
288 288 288 288 288 288 287 287 287 287 287 286 286 286 285 286 287 286 286 285 282 278 280 283 283 287 287 288 288 288 288 290 292 293 294 294 294 295 295 296 297 297 297
287 287 287 287 287 287 286 286 286 286 286 286 286 285 285 286 286 286 286 285 284 282 279 283 284 286 287 287 288 288 287 289 290 292 292 292 293 293 294 294 295 295 296
287 287 287 286 286 286 285 285 285 285 284 285 286 285 285 285 285 285 285 285 284 283 281 283 285 286 285 285 286 287 288 287 288 290 291 291 291 292 292 293 293 294 294
286 286 286 285 285 285 284 284 284 284 284 284 285 284 284 285 284 284 284 283 283 284 282 280 283 284 284 285 286 286 286 286 286 287 289 290 290 291 291 291 292 292 292
285 285 285 284 284 284 283 284 284 285 285 285 284 284 284 283 282 283 283 283 284 284 284 283 282 284 285 286 285 284 283 284 284 286 288 288 289 290 290 291 291 291 291
285 284 284 283 283 283 283 284 285 286 285 285 284 284 284 283 283 283 284 284 284 284 283 283 282 283 283 284 284 282 281 283 283 284 286 287 288 288 289 289 289 289 289
284 284 283 282 282 283 283 286 287 286 285 285 284 284 284 285 287 287 285 284 284 283 283 283 282 282 281 281 280 281 280 282 283 284 283 284 285 285 285 287 286 287 287
283 282 282 281 281 282 285 288 288 286 285 284 283 284 284 284 284 287 287 287 286 284 283 282 281 280 279 280 281 281 280 279 277 284 282 281 284 283 284 285 286 287 288
282 281 281 281 280 281 285 288 288 286 284 284 283 283 283 283 285 284 285 287 287 288 286 284 280 279 279 281 282 281 280 280 278 281 281 279 283 281 284 284 286 286 287
281 281 280 280 280 281 285 287 287 285 284 284 283 283 283 283 284 284 284 285 284 283 283 282 282 282 283 284 283 282 281 281 281 282 282 276 281 280 282 283 285 286 287
280 280 280 279 279 281 284 286 286 284 283 283 283 283 283 283 285 287 285 283 281 281 283 285 286 286 285 285 284 281 279 277 276 278 281 279 279 280 280 281 284 285 286
280 280 279 280 280 280 283 285 285 284 282 282 283 283 284 284 286 287 283 282 279 279 281 283 280 280 281 281 283 281 279 276 276 275 280 277 278 279 276 282 283 284 284

GFSMA_sfc_thetae_042.txt.gz
Theta_e
334 333 332 334 335 332 326 322 315 312 316 314 311 309 309 309 308 312 311 314 315 318 320 320 318 318 318 318 319 318 318 319 320 321 322 323 323 324 324 325 327 328 329
333 332 327 320 316 315 313 316 316 314 312 308 306 306 307 306 307 307 310 310 312 314 315 314 313 313 313 314 315 315 316 316 317 318 318 319 319 320 321 322 323 324 325
333 325 319 317 316 314 313 313 311 309 307 305 305 305 305 304 308 306 308 308 307 307 307 308 307 307 308 309 311 312 313 313 314 314 315 315 315 316 317 318 319 320 322
326 317 312 309 310 312 310 307 307 307 304 303 303 304 303 304 305 305 306 305 304 304 302 301 302 303 304 306 308 310 310 310 310 312 313 313 313 314 315 316 316 317 319
322 313 311 306 308 307 306 304 304 303 301 301 301 302 303 305 303 302 303 302 301 303 301 298 297 298 299 302 305 306 307 307 308 309 310 311 312 313 313 314 315 316 318
314 306 307 305 305 304 303 302 301 300 299 299 299 299 303 305 303 302 302 301 301 300 300 298 298 297 297 298 301 302 304 306 306 307 308 309 310 311 312 313 314 315 316
307 302 306 304 304 302 300 300 299 299 298 299 299 300 301 301 303 303 302 300 299 298 297 297 296 296 296 298 298 299 302 303 304 306 307 308 309 310 312 312 313 314 315
301 300 303 302 301 299 299 298 299 298 297 297 295 296 296 297 300 301 299 299 297 298 296 295 295 295 295 295 296 297 298 300 303 304 306 307 308 310 311 312 312 313 314
301 301 302 301 300 299 298 297 298 297 296 296 295 294 293 293 292 297 297 296 296 295 295 294 294 294 294 294 295 295 296 297 301 304 306 307 308 309 310 311 311 312 312
300 299 300 299 299 298 297 296 296 296 296 294 296 294 294 292 289 289 294 294 294 293 293 293 293 293 293 294 294 294 294 296 299 302 304 306 307 308 309 310 310 311 311
297 297 298 298 297 296 296 295 295 294 295 295 293 293 293 292 291 289 287 290 292 293 293 292 292 292 293 293 293 293 294 296 299 301 303 304 305 306 307 308 308 308 308
295 297 296 296 296 295 295 294 294 293 294 293 293 292 290 289 289 288 287 288 288 290 292 292 291 292 292 292 292 293 293 295 297 299 301 302 303 303 304 305 306 306 306
293 295 295 295 295 295 294 294 294 294 293 293 291 291 291 290 290 289 287 287 286 288 289 291 292 292 291 291 291 292 292 294 295 297 299 301 300 300 300 302 303 303 304
296 295 294 294 294 293 293 293 294 294 293 292 290 290 290 290 290 289 287 286 284 286 288 288 291 291 290 291 291 292 290 292 293 295 297 298 297 297 297 298 299 300 300
294 294 294 293 293 292 292 292 293 291 291 291 290 290 290 290 290 290 289 288 285 282 283 287 287 290 290 290 290 290 289 291 293 293 294 294 294 295 295 296 296 297 297
293 293 293 292 292 291 291 291 291 290 290 290 290 289 289 289 289 289 289 288 287 285 282 286 287 288 289 289 290 289 289 291 292 293 293 293 293 293 294 294 295 295 296
293 292 292 291 291 290 290 290 289 289 288 289 289 289 288 288 288 288 288 287 286 285 283 285 287 288 287 288 288 290 289 289 290 291 291 291 292 292 292 293 294 294 295
292 291 291 290 289 289 289 288 288 288 288 288 288 288 287 287 287 287 286 286 285 286 285 283 285 286 286 288 288 287 288 287 287 289 290 291 291 292 292 292 292 293 293
291 290 290 289 288 288 287 287 287 288 288 288 288 287 287 286 285 286 286 286 286 286 286 285 284 287 288 288 287 287 286 286 287 288 290 290 291 291 291 292 292 292 292
290 289 289 287 287 287 287 287 288 289 289 289 288 288 287 286 285 285 286 286 286 285 285 285 285 286 287 287 287 285 283 285 285 286 288 289 290 290 290 291 290 290 290
289 288 287 287 287 287 286 288 289 289 288 288 288 287 287 287 287 287 286 285 285 284 284 285 284 285 284 284 282 284 283 284 285 286 286 286 287 287 288 289 289 289 289
287 287 286 286 285 285 285 288 289 288 288 287 286 286 286 287 286 287 288 287 286 284 284 285 283 282 281 282 283 283 282 282 279 286 284 283 287 285 286 288 288 289 289
287 286 285 285 285 285 285 287 288 288 287 286 286 285 285 286 286 285 286 287 288 288 288 285 282 281 281 282 283 283 282 281 281 284 283 281 285 284 287 287 288 288 289
286 285 285 285 284 285 285 286 287 287 286 286 286 286 285 285 285 285 285 286 286 286 285 285 283 283 284 285 285 283 283 282 283 284 284 279 284 283 285 287 288 288 289
285 285 285 284 284 284 284 286 286 286 285 285 286 286 286 285 286 287 285 285 283 283 285 286 286 287 287 286 285 283 281 279 278 280 283 281 282 282 283 283 286 288 289
285 285 284 284 283 284 284 285 286 285 284 284 285 286 286 285 287 287 285 283 282 281 282 284 284 284 284 283 285 283 282 278 278 277 282 280 280 280 278 284 286 286 287

GFSMA_sfc_thetae_045.txt.gz
Theta_e
332 332 331 331 332 332 329 326 322 319 319 317 315 312 310 310 309 311 312 316 318 320 320 319 317 317 316 317 317 317 317 318 318 319 320 320 321 321 321 323 324 325 326
334 333 332 329 325 323 320 321 319 317 315 311 309 308 307 308 307 308 309 310 314 314 313 313 311 311 311 312 312 313 314 314 315 315 317 318 318 318 318 319 320 321 323
335 333 328 324 323 321 319 317 314 312 309 308 307 306 306 305 305 305 308 308 308 307 307 307 306 307 308 309 310 311 312 312 312 312 313 315 315 315 316 317 318 318 319
335 329 324 319 318 318 315 312 309 308 306 305 304 305 304 305 305 304 306 305 307 304 303 301 301 302 302 306 309 309 310 310 309 310 311 312 313 313 314 315 316 316 317
331 323 320 314 315 313 311 307 306 304 303 303 303 303 305 305 304 302 303 302 302 303 303 300 298 300 299 301 304 306 307 308 308 308 309 311 311 312 313 314 315 316 317
326 319 313 312 311 309 306 305 304 302 301 300 300 301 303 304 305 304 302 301 301 301 301 301 299 299 300 299 302 303 304 306 306 306 308 309 310 311 312 313 314 315 315
318 315 311 310 309 307 305 303 302 301 300 300 301 302 303 302 304 303 304 301 301 300 299 298 297 297 296 299 300 300 302 303 304 305 306 307 309 310 311 312 313 314 315
313 309 307 307 305 303 302 301 301 300 299 299 296 299 298 298 301 302 302 300 298 299 297 297 296 295 295 295 297 298 299 300 303 304 306 307 308 309 311 311 312 313 313
306 306 306 304 304 303 302 301 300 300 298 298 297 295 294 294 293 299 298 298 297 298 296 296 295 295 294 294 296 296 297 298 300 303 305 306 307 308 309 310 311 312 312
305 304 304 303 302 302 300 299 298 298 299 295 297 295 296 293 290 289 297 296 297 294 295 295 294 294 294 294 295 296 296 296 299 302 304 305 306 307 308 308 309 310 310
302 300 300 301 301 300 298 298 297 296 295 295 294 293 293 293 292 289 287 291 293 294 294 294 293 293 293 294 293 294 295 296 299 301 303 304 305 306 307 307 307 308 308
300 300 298 300 299 298 297 296 296 295 294 294 293 292 291 290 289 289 287 288 288 291 293 293 293 292 293 293 293 294 294 296 298 299 302 303 303 304 305 305 305 305 305
296 296 298 297 297 297 296 296 296 296 295 294 292 291 291 290 291 289 288 287 286 289 290 292 293 293 292 292 292 294 294 295 296 297 300 302 301 300 300 301 302 303 303
295 297 297 296 295 295 295 295 295 295 294 293 292 291 291 290 291 290 288 286 284 285 287 288 291 291 291 291 292 294 290 293 294 296 298 298 297 297 297 298 299 300 300
295 295 296 295 294 294 294 294 293 292 291 291 291 292 291 291 291 291 290 289 285 281 282 286 287 290 290 290 291 290 289 292 294 295 295 295 295 295 296 296 296 297 297
295 295 294 294 293 293 292 292 291 291 290 291 291 290 290 290 290 290 289 289 288 285 281 286 286 288 289 289 290 289 289 292 293 294 294 294 293 294 294 294 295 296 296
293 294 293 293 292 291 291 290 290 289 289 289 290 289 289 289 289 288 288 287 286 286 282 284 287 288 287 287 288 289 290 289 288 292 293 293 293 293 294 294 294 295 295
294 293 292 292 291 290 290 289 288 289 289 288 289 289 288 288 288 287 287 286 286 286 284 282 285 285 286 287 287 287 288 289 287 290 292 292 293 293 293 293 293 294 294
292 292 291 290 289 289 288 288 288 288 289 289 289 288 288 287 286 286 286 285 286 286 286 284 283 285 286 287 287 287 286 286 287 289 291 291 292 292 292 293 293 293 293
291 291 290 289 288 288 287 287 289 289 289 289 289 289 288 287 286 285 285 285 285 284 285 283 283 283 284 287 286 283 283 284 284 286 288 289 290 291 291 292 291 291 291
290 290 288 288 288 288 287 287 288 289 288 288 288 288 288 288 288 288 286 285 285 284 283 282 282 283 283 282 281 282 281 282 283 285 284 284 285 285 286 289 289 289 290
289 288 287 287 287 286 286 287 288 287 287 287 286 286 287 288 287 288 289 289 287 284 283 283 282 281 281 281 282 281 280 279 279 284 283 281 284 283 285 285 289 290 291
288 287 287 286 286 286 285 287 288 287 286 286 286 286 285 286 287 286 287 288 287 288 288 285 282 281 281 281 281 280 281 280 279 282 281 279 283 282 284 285 289 290 290
287 287 286 286 285 286 285 286 287 286 286 286 286 286 285 285 286 286 285 284 285 286 285 285 283 283 283 284 284 284 282 281 281 282 283 278 281 280 283 284 288 289 290
286 286 285 285 285 285 285 285 286 285 285 285 286 286 286 285 287 288 285 283 284 283 286 287 286 287 288 288 286 283 279 279 277 278 281 279 280 280 280 281 283 288 289
285 285 285 285 285 283 285 285 285 284 283 284 285 285 287 286 288 288 285 283 280 281 281 282 283 284 284 283 286 283 281 278 277 276 280 278 278 279 276 280 282 282 284

GFSMA_sfc_thetae_048.txt.gz
Theta_e
322 324 325 326 325 323 322 319 316 314 311 309 307 304 302 302 301 305 308 320 321 321 320 318 317 315 315 315 314 315 315 316 316 316 317 318 319 319 319 319 320 321 323
326 326 325 321 319 317 317 316 312 309 307 302 302 301 300 300 299 300 305 311 316 315 314 312 311 311 311 312 312 312 313 313 314 314 314 315 316 316 317 317 318 319 319
328 327 321 318 316 315 313 310 307 304 302 302 299 299 298 297 298 299 301 304 306 310 308 307 306 307 307 309 311 312 312 312 312 311 312 313 314 314 315 316 316 317 318
329 323 320 317 315 312 309 305 302 301 299 298 296 297 297 298 298 297 300 299 301 301 303 302 302 303 303 305 308 310 310 310 310 311 310 311 312 313 314 315 315 316 317
326 319 315 310 311 308 304 302 298 297 296 296 296 295 296 297 297 298 297 296 296 297 296 300 299 302 301 304 304 307 307 308 308 309 309 310 311 312 313 313 314 315 316
322 316 309 308 307 303 301 300 297 296 294 294 297 297 296 297 297 296 296 298 296 295 295 294 293 293 300 302 303 304 304 306 306 307 308 308 309 310 312 313 313 314 315
315 309 307 305 304 302 299 298 296 295 293 293 293 293 294 295 297 296 297 296 295 295 293 292 290 290 291 299 300 301 303 303 304 306 306 307 308 310 311 312 312 313 314
311 307 304 302 300 298 296 297 296 294 293 292 290 291 289 291 294 295 296 294 292 292 292 291 290 290 289 289 293 299 300 301 303 305 306 307 308 309 310 311 311 312 313
306 308 307 304 300 299 298 297 296 295 292 292 290 290 287 286 287 291 291 292 290 290 289 290 291 290 289 288 292 293 297 299 301 304 305 306 307 308 309 309 310 311 311
306 307 306 301 300 297 295 294 295 292 292 290 291 292 289 287 284 283 288 289 289 289 288 288 289 289 289 289 293 295 296 298 300 303 305 306 306 307 308 308 309 309 309
306 304 301 299 297 295 294 292 291 290 290 290 289 288 287 287 286 284 282 285 287 288 288 288 287 288 289 289 289 291 296 297 299 302 304 305 306 306 307 307 308 307 307
300 299 298 296 295 294 293 292 291 290 289 289 288 288 287 285 284 283 282 282 282 285 286 287 287 287 288 288 292 295 295 296 298 300 302 303 304 304 305 305 305 305 305
297 298 298 296 293 294 293 292 292 290 289 288 287 286 287 286 287 285 283 282 281 283 284 285 286 286 289 286 287 294 294 296 296 298 301 303 302 301 301 302 303 303 303
297 298 296 295 294 293 292 292 291 290 289 288 286 286 286 286 287 286 284 282 280 280 283 282 286 285 285 285 289 294 287 293 295 296 298 299 298 298 298 299 300 300 300
296 296 294 293 291 291 291 290 289 287 287 286 285 285 286 286 286 286 285 284 281 278 279 280 281 285 285 285 287 288 287 292 294 295 296 296 296 296 296 297 297 297 298
294 294 292 292 291 289 289 289 287 287 286 285 286 285 285 285 285 285 284 284 283 280 278 282 283 282 284 287 288 288 287 292 293 294 295 294 295 295 295 296 296 296 297
293 293 292 291 290 288 287 287 286 286 285 285 285 285 285 285 284 283 283 283 282 281 279 282 283 284 282 283 285 286 287 286 287 293 293 293 293 294 294 295 295 295 296
293 291 291 289 288 287 286 285 284 285 284 284 285 285 284 287 283 283 282 281 281 281 281 279 282 283 282 283 284 284 286 289 287 290 292 292 293 293 293 294 294 294 295
291 291 289 288 286 287 286 285 285 284 285 285 285 284 284 283 282 282 281 281 281 284 282 281 280 283 283 283 284 285 285 284 286 289 290 291 291 292 293 292 293 293 293
289 289 287 286 286 286 286 285 286 285 285 285 286 285 284 283 282 281 282 281 282 281 281 281 280 281 282 284 283 281 280 282 282 285 287 288 290 290 291 291 291 291 291
288 287 285 286 285 286 286 286 286 286 284 284 284 284 284 286 289 288 285 281 281 281 280 280 281 281 281 281 280 281 279 280 281 282 282 283 283 283 283 287 287 289 290
286 286 285 285 284 286 287 288 288 285 284 283 282 283 283 287 285 289 289 289 287 283 281 280 281 280 280 280 280 279 279 277 277 283 279 280 282 281 282 283 288 290 290
285 285 284 283 284 285 287 287 288 284 283 282 282 282 282 285 285 282 286 288 287 288 288 284 281 280 279 280 279 278 279 280 280 281 280 278 281 280 282 283 287 289 290
284 283 284 284 284 285 286 286 287 283 282 281 282 281 281 281 282 284 283 280 281 282 283 284 282 282 281 282 284 284 282 280 280 281 281 276 280 279 281 282 287 287 289
284 284 284 283 281 281 285 285 285 282 281 280 282 282 283 282 286 288 284 280 281 281 285 286 286 287 287 288 286 282 279 277 276 278 280 278 278 278 279 279 281 286 288
283 283 282 281 284 280 285 286 285 282 279 279 280 282 286 285 287 288 284 283 279 279 279 280 281 281 282 280 285 280 279 277 276 275 278 276 276 277 274 278 278 280 281

GFSMA_sfc_thetae_051.txt.gz
Theta_e
323 321 322 322 323 323 323 317 313 312 307 303 302 301 300 299 302 306 311 323 324 322 320 318 316 315 315 315 315 314 314 315 315 316 315 316 316 317 318 318 318 319 320
320 320 322 322 319 317 316 314 312 308 302 300 299 298 297 297 299 304 307 312 318 317 315 313 312 311 311 312 313 313 313 313 314 313 314 314 315 315 316 316 317 317 318
323 323 319 316 314 314 311 306 304 301 299 299 296 297 296 295 296 300 305 304 307 312 309 307 306 307 307 308 310 312 312 312 312 312 312 312 313 314 314 315 316 316 317
325 321 318 315 314 311 307 303 301 298 296 296 294 295 295 296 295 296 301 300 300 300 304 303 303 304 303 306 307 309 310 310 310 310 310 311 312 312 314 314 315 315 316
323 320 315 312 309 305 302 300 296 296 294 293 294 293 295 296 295 297 294 294 296 297 296 300 302 301 302 304 306 308 307 307 308 308 309 310 311 311 312 313 314 314 315
319 315 310 308 304 301 299 297 295 293 293 292 295 295 294 296 295 294 294 296 295 294 294 292 290 292 299 300 302 304 305 306 306 306 308 309 309 310 311 312 312 313 314
318 311 308 304 302 300 298 296 295 293 291 291 292 292 293 294 294 294 295 293 294 294 292 290 289 289 290 297 298 301 303 303 305 305 306 308 308 309 310 311 311 312 313
312 309 306 302 300 298 296 295 296 293 294 292 290 290 289 291 293 294 294 293 291 291 291 290 289 289 288 288 291 299 298 300 303 305 305 307 307 308 309 310 311 311 312
310 307 304 301 297 297 296 295 295 295 291 291 290 291 287 287 286 290 290 291 288 288 287 289 289 289 288 287 291 292 297 299 302 304 305 306 307 308 309 309 310 311 311
309 309 306 301 299 298 295 294 294 293 293 289 290 291 288 287 283 282 286 287 287 288 286 287 287 287 288 288 292 296 297 298 300 303 305 306 307 307 308 309 309 309 309
306 307 304 301 301 300 295 293 291 291 292 291 289 288 286 286 285 283 281 284 285 286 286 286 286 286 287 287 287 290 297 298 300 302 304 305 306 306 307 308 308 308 307
303 302 300 300 299 298 296 295 291 289 289 289 288 288 287 285 284 282 281 281 281 283 285 286 285 285 285 286 291 295 295 297 299 301 303 303 304 305 305 306 306 305 305
298 298 298 298 297 297 296 294 291 291 289 288 287 286 287 286 286 284 282 281 280 281 283 284 284 284 287 284 286 293 294 295 296 298 301 302 302 301 302 303 303 303 303
299 299 297 297 296 296 295 292 292 290 289 288 286 286 286 285 286 285 283 281 278 279 280 281 283 283 283 283 289 293 286 293 294 296 298 299 298 298 298 299 300 300 301
297 296 296 295 296 296 293 292 291 288 287 286 286 285 285 285 285 285 284 283 280 276 278 279 280 282 283 284 286 287 286 291 294 295 295 296 296 296 296 297 297 298 298
295 294 294 293 294 293 291 291 288 287 287 286 286 284 284 285 284 284 283 283 282 279 277 279 281 281 282 286 287 287 286 291 292 293 294 294 294 295 295 296 296 297 297
294 293 293 292 291 290 289 288 287 286 285 285 285 285 285 284 283 282 282 282 281 279 278 280 281 282 281 281 284 284 285 285 286 292 293 293 293 294 294 295 295 295 296
293 292 292 291 289 288 287 287 286 285 285 285 284 284 284 286 283 282 281 280 279 280 278 278 281 281 281 282 283 282 285 287 286 289 291 292 292 292 293 293 294 294 294
292 291 290 288 288 287 286 284 285 285 285 285 285 285 284 283 282 281 280 280 280 282 280 279 280 282 281 282 282 283 284 284 285 288 289 290 291 291 292 293 292 292 292
291 289 288 287 287 287 286 286 286 286 285 285 285 284 283 282 281 280 280 280 281 279 279 279 280 279 281 283 282 281 280 282 281 284 286 287 289 290 290 290 290 290 290
289 288 287 287 286 286 286 285 287 285 285 284 284 283 283 285 289 287 284 281 280 279 278 278 279 279 281 280 279 280 279 280 280 281 281 282 282 283 283 286 286 288 289
286 286 286 285 284 286 290 290 288 285 284 282 281 282 282 286 285 289 289 289 287 282 277 277 280 280 279 279 280 279 278 277 276 283 281 280 282 281 281 282 287 288 289
285 284 284 283 283 285 289 288 288 284 282 281 280 281 281 284 284 281 285 288 287 288 288 283 280 279 279 279 279 277 279 280 279 281 280 278 281 279 281 282 286 287 288
284 284 284 284 283 286 288 287 287 281 281 281 281 280 279 280 281 284 282 280 282 281 281 283 282 281 281 282 283 283 281 279 279 280 280 276 279 278 280 280 285 287 288
284 284 284 283 281 283 286 286 284 281 281 279 281 281 282 281 285 288 283 279 280 281 285 286 287 287 287 287 285 282 277 276 275 277 279 277 277 277 278 278 280 285 286
284 283 282 281 283 279 285 286 285 281 279 280 280 280 285 284 287 288 284 282 279 278 279 279 280 280 281 280 284 280 278 275 275 275 277 276 276 276 274 275 276 279 279

GFSMA_sfc_thetae_054.txt.gz
Theta_e
328 327 325 324 323 323 323 322 316 311 304 301 299 299 299 298 304 307 312 325 327 324 321 317 316 315 314 314 314 314 314 314 315 314 315 315 316 316 317 317 318 318 319
327 324 321 320 321 321 319 315 311 306 300 299 297 296 296 297 302 306 309 314 322 318 316 314 311 310 310 311 312 313 313 313 313 314 314 313 314 315 316 316 317 317 318
322 322 321 319 317 316 314 308 302 300 298 297 295 295 294 293 297 303 305 305 308 315 310 308 307 307 307 309 310 310 311 311 311 311 311 312 313 313 315 315 315 315 316
322 320 319 316 313 310 306 302 299 297 296 295 293 293 294 295 294 301 301 299 299 300 304 305 304 304 305 307 308 310 309 308 309 309 310 311 311 312 313 313 314 315 315
323 320 317 314 311 306 302 300 297 296 293 293 293 292 294 295 294 297 297 296 297 296 294 302 302 302 301 303 305 306 307 307 307 307 309 309 310 311 312 312 313 313 314
321 319 315 311 306 302 299 297 295 293 292 291 294 294 293 295 293 293 293 294 294 294 292 291 290 292 299 300 301 303 305 306 305 306 307 308 309 310 310 311 312 312 313
320 317 311 306 302 301 298 296 294 292 290 290 291 292 295 294 293 294 293 292 293 293 290 289 288 288 289 297 298 300 302 303 304 305 306 307 308 309 310 311 311 312 313
319 317 310 305 301 298 296 295 295 292 291 290 289 291 291 291 293 294 294 293 291 290 289 289 287 287 287 287 290 299 299 300 302 304 305 306 307 308 309 310 311 311 312
316 314 308 304 300 298 296 294 294 294 290 289 290 291 287 287 286 289 290 289 288 287 287 287 288 288 287 286 290 292 298 298 301 304 306 306 307 308 309 310 310 311 311
314 311 306 304 303 300 296 294 295 295 293 289 289 291 288 288 284 283 287 287 287 287 286 286 286 286 286 286 290 294 297 299 301 303 305 306 307 308 308 309 309 310 310
311 309 305 302 302 300 298 297 296 295 292 290 289 288 287 287 285 284 282 284 286 286 286 285 285 284 285 285 287 291 297 299 301 302 304 305 306 307 308 308 308 308 308
308 308 304 303 302 300 299 298 294 293 290 291 288 287 286 285 284 283 282 281 281 283 284 285 284 283 284 284 289 293 295 297 298 300 302 303 304 305 305 306 306 306 306
302 304 303 302 299 298 296 295 294 294 291 289 288 287 286 285 286 284 283 281 280 282 283 283 283 283 286 283 284 292 293 295 296 298 300 302 302 301 302 302 304 304 304
300 300 300 300 297 296 295 295 294 292 290 288 286 286 285 285 286 285 283 281 279 279 280 281 283 282 282 283 288 292 286 293 294 295 297 299 298 298 299 300 300 301 301
299 300 300 297 296 295 294 294 293 290 289 288 288 287 285 285 285 284 284 283 281 277 277 280 280 282 283 283 285 286 284 290 293 294 294 295 295 296 296 297 297 298 299
299 299 297 295 294 294 293 292 290 289 288 286 287 285 284 284 284 283 283 282 281 279 276 279 280 280 282 285 286 286 285 290 290 292 293 293 294 294 295 296 296 297 297
297 295 294 293 292 291 291 289 288 287 287 286 286 286 284 284 284 282 282 281 280 279 277 279 279 281 280 281 282 283 284 284 285 291 292 293 293 293 294 294 294 295 296
295 294 293 292 291 290 287 287 288 287 287 286 284 283 284 286 283 282 281 280 279 279 278 277 279 279 279 281 281 281 284 285 285 289 291 292 292 292 292 293 293 294 294
293 292 291 289 288 288 287 286 286 286 286 286 286 284 284 282 281 281 280 279 279 281 279 278 279 280 280 280 281 282 281 283 284 288 289 290 290 291 291 292 293 292 292
291 290 289 288 287 287 287 288 287 287 286 285 285 283 283 282 281 280 280 280 280 279 279 278 279 278 278 281 280 279 279 281 281 283 285 287 289 290 290 291 290 290 290
289 288 287 288 288 288 288 287 287 286 285 284 283 282 283 285 289 287 284 281 280 279 279 277 278 275 276 279 278 280 278 279 280 281 281 281 282 282 283 286 286 287 288
288 287 287 286 287 288 291 291 287 285 284 283 281 281 281 284 284 288 288 289 287 282 276 274 274 278 279 279 280 278 278 277 276 282 279 280 281 280 281 282 286 288 289
286 286 285 285 286 288 290 290 289 283 281 280 279 279 280 283 283 281 285 288 287 288 288 284 280 279 278 279 279 277 278 279 279 280 279 277 280 278 281 282 286 287 288
286 286 285 285 285 287 289 288 287 281 280 279 280 279 279 280 281 283 282 280 280 281 281 282 281 281 281 282 283 282 280 279 279 279 279 275 278 277 280 280 285 286 287
284 284 284 283 284 284 287 287 284 280 280 279 280 280 281 281 285 287 283 279 280 280 285 287 287 287 287 287 285 281 277 276 274 276 279 276 276 276 278 278 280 285 286
284 285 283 281 283 278 287 286 284 280 279 279 280 280 284 283 286 287 284 280 277 278 279 279 278 279 281 279 284 279 277 274 274 273 276 274 275 276 274 275 277 278 279

GFSMA_sfc_thetae_057.txt.gz
Theta_e
327 326 326 325 323 323 322 321 318 309 303 300 299 299 298 301 303 308 313 326 329 325 321 318 317 316 314 314 315 315 315 315 315 315 315 315 315 316 317 317 318 318 319
326 327 324 323 321 321 321 320 312 305 299 297 296 296 296 301 304 307 310 315 324 320 317 314 312 311 311 311 312 312 312 313 313 313 313 314 314 314 315 316 316 316 317
325 326 323 320 320 320 318 312 303 299 297 296 294 294 293 295 302 305 306 306 308 316 312 310 309 308 308 310 310 312 311 310 311 311 312 312 312 313 314 314 315 315 316
324 322 320 319 317 314 310 303 299 297 295 295 293 293 293 293 296 302 302 300 299 300 305 306 305 305 305 306 308 309 310 308 309 309 310 311 311 311 312 313 313 314 314
322 321 320 317 313 308 304 301 297 296 294 293 293 291 293 293 294 301 297 296 297 296 294 303 303 302 302 303 305 306 307 307 307 307 308 309 310 310 311 312 313 313 313
321 320 316 314 310 304 300 298 295 293 292 291 294 293 292 293 292 295 295 295 296 294 292 291 289 291 300 300 301 303 305 305 305 306 307 308 309 310 311 311 312 312 313
321 319 316 312 307 305 301 297 294 292 290 290 291 291 292 292 292 292 293 292 293 292 291 289 288 288 288 298 299 300 302 303 304 305 306 307 308 309 310 311 311 312 313
322 319 315 311 307 301 297 295 294 292 290 289 289 289 289 290 291 291 292 293 291 290 289 288 287 287 287 287 290 300 300 301 303 304 306 307 308 309 310 311 311 312 312
321 320 315 310 305 304 299 299 296 294 290 288 289 291 287 287 286 287 288 288 288 287 287 287 287 287 286 286 289 291 298 300 302 305 306 307 308 308 309 310 311 311 312
318 315 313 308 306 306 301 303 301 298 294 291 289 289 287 288 284 283 286 286 286 287 285 286 285 286 286 286 291 296 298 299 302 304 306 307 307 309 309 310 310 310 310
317 313 311 305 304 305 305 303 303 301 296 294 292 289 286 287 287 285 281 283 285 286 286 285 285 284 285 285 286 291 296 298 300 302 304 305 306 307 308 308 309 309 309
309 310 308 307 307 304 302 303 302 299 295 294 292 290 287 288 284 285 281 281 281 283 284 285 284 283 284 284 288 293 294 296 298 300 302 303 304 305 305 306 306 306 306
305 305 305 305 305 304 302 299 297 294 294 292 290 289 287 288 286 285 282 280 280 281 282 283 283 283 285 282 284 292 292 294 295 297 300 302 301 301 301 302 303 304 305
306 304 304 304 303 300 298 297 295 293 292 291 288 288 287 287 286 284 284 281 278 278 279 281 283 282 282 283 287 291 285 291 293 295 297 298 297 297 298 299 300 301 301
303 302 302 301 299 297 296 294 293 291 290 289 288 287 288 286 287 286 284 283 280 276 277 279 280 281 282 282 285 285 283 289 292 293 294 294 295 295 296 297 297 298 299
301 300 298 297 296 296 294 293 291 290 289 288 288 287 286 285 284 285 285 283 281 279 277 279 279 279 281 284 285 285 284 289 290 291 292 293 293 294 295 295 296 296 296
299 298 296 296 294 292 291 290 289 288 287 287 287 287 286 286 286 283 283 281 280 279 277 278 279 280 279 280 282 282 283 282 283 290 291 292 293 293 294 294 294 295 295
297 296 295 293 292 290 289 288 288 288 287 287 287 286 285 286 284 283 282 280 279 279 278 277 277 278 279 280 280 280 283 285 284 288 291 291 292 292 292 293 293 294 294
294 294 292 291 289 289 288 288 288 287 286 286 287 286 285 284 283 282 281 280 279 281 278 277 278 278 279 279 279 280 281 281 283 287 289 289 290 291 291 292 293 293 293
291 290 289 288 287 287 288 288 288 287 287 287 286 285 285 284 282 281 281 280 280 278 278 278 279 277 278 279 278 279 279 280 280 283 285 287 289 290 290 291 290 290 290
288 288 288 288 289 289 290 288 288 287 286 285 284 283 283 285 288 287 284 280 279 279 279 277 277 276 274 277 278 279 278 279 279 280 280 280 280 281 282 286 286 287 288
288 288 288 289 289 291 292 290 287 285 284 282 281 280 281 283 284 287 288 288 287 281 275 274 272 275 278 278 279 278 278 277 276 280 278 279 281 280 281 281 286 288 289
288 287 287 287 287 289 290 290 287 283 282 281 280 279 280 282 283 280 284 287 287 288 288 283 279 279 278 279 279 278 278 278 278 280 279 277 279 278 280 281 286 287 288
286 285 285 285 285 288 290 290 287 282 281 280 280 279 278 279 280 283 282 280 280 281 281 282 280 280 280 281 282 282 280 278 279 279 279 274 278 277 279 280 285 287 288
285 285 285 285 285 286 289 289 284 281 281 279 279 279 280 280 284 287 282 280 281 280 284 286 286 287 287 287 285 280 276 275 274 276 278 276 275 276 278 278 280 285 287
285 285 283 283 285 281 287 286 285 281 279 279 280 280 284 283 286 287 284 280 277 277 278 278 278 278 280 279 283 279 276 273 274 274 276 273 275 275 273 275 276 278 279

GFSMA_sfc_thetae_060.txt.gz
Theta_e
324 326 325 324 323 323 322 321 317 308 304 301 299 299 300 302 303 309 313 327 329 326 322 320 318 316 315 315 316 315 315 316 316 315 315 316 316 316 317 317 317 318 318
324 326 324 323 322 321 320 320 314 303 299 297 296 296 297 301 305 308 310 316 325 321 318 316 314 313 312 313 313 313 313 313 313 313 314 314 314 314 315 315 316 317 317
324 326 325 322 322 320 320 315 305 299 297 296 294 293 294 298 303 306 306 306 309 318 314 312 311 310 310 311 312 311 311 310 310 311 311 312 312 312 313 313 314 315 316
325 324 324 323 321 318 316 309 300 297 295 295 293 293 292 293 299 302 302 300 299 300 307 308 307 306 306 307 308 308 308 309 308 308 309 310 310 311 312 312 313 314 314
324 324 323 321 318 314 310 304 297 297 294 293 293 292 292 292 296 301 298 296 297 295 294 305 305 303 303 304 305 306 306 307 307 307 308 308 309 310 311 312 312 313 314
323 322 321 318 315 310 304 299 296 293 293 292 293 292 292 292 292 297 296 296 296 293 292 291 289 291 301 301 302 303 304 305 305 306 306 307 309 309 310 312 312 313 313
322 321 320 317 313 310 306 300 295 293 290 290 291 291 291 292 291 292 293 291 293 291 289 288 287 287 288 297 299 300 303 304 304 305 306 307 308 310 310 312 312 312 313
322 321 318 316 312 306 300 298 295 291 290 290 290 289 288 290 290 291 291 291 290 289 288 287 286 286 286 286 290 298 299 301 303 305 306 307 308 310 310 311 312 313 313
323 321 317 316 311 308 303 300 299 296 292 290 289 292 287 288 287 287 288 288 288 286 286 286 286 286 285 285 289 292 299 300 302 305 307 308 309 309 310 311 311 312 312
322 321 318 316 311 308 304 303 301 303 300 295 293 292 290 291 286 283 285 285 285 286 284 285 284 285 285 286 290 295 297 298 301 304 306 306 307 308 309 310 310 311 311
322 320 317 312 307 306 307 305 302 302 303 298 296 294 292 289 287 286 284 284 285 285 285 284 284 283 284 285 285 290 295 297 300 302 304 305 306 307 308 309 309 309 309
316 315 314 310 307 306 304 305 304 302 299 297 295 294 292 289 287 285 284 283 282 284 284 284 283 283 283 283 288 293 294 296 297 299 302 303 304 305 306 306 306 306 306
312 312 311 307 306 306 305 303 303 301 298 295 292 291 291 289 289 287 285 283 281 281 282 282 283 282 284 282 284 291 292 293 295 297 300 302 302 301 301 302 303 304 304
314 311 310 308 306 306 304 301 300 296 294 292 290 290 289 288 288 287 285 283 280 279 281 283 284 282 281 282 287 291 285 292 293 295 297 298 297 297 298 299 300 300 301
305 306 306 306 304 303 302 299 296 294 291 290 289 289 288 288 288 287 287 285 283 277 277 280 282 283 282 282 284 285 283 289 292 293 294 294 294 295 296 296 297 298 298
303 303 303 301 301 300 297 295 292 290 289 289 289 288 287 287 286 286 286 286 283 282 277 279 280 281 281 283 284 285 283 290 290 292 292 293 293 294 295 295 296 296 297
300 300 299 298 296 295 294 291 290 289 288 288 288 288 287 288 287 286 285 284 284 282 278 279 279 280 280 281 282 282 282 281 282 289 291 292 293 293 294 294 295 295 296
298 297 296 295 293 291 290 289 288 288 288 288 287 287 286 288 286 285 284 284 283 280 279 277 278 278 278 280 280 279 282 284 283 287 290 291 292 292 293 293 293 294 294
296 295 293 291 290 289 289 289 289 288 287 287 287 287 286 286 285 284 283 283 281 282 279 278 277 278 278 279 278 279 279 281 283 287 289 289 290 291 292 292 293 293 293
292 291 290 289 288 288 288 288 288 288 288 287 287 286 285 284 284 283 282 281 281 279 278 278 278 276 278 279 277 278 278 279 280 283 285 286 288 289 290 291 291 290 290
291 289 289 289 289 289 290 289 288 287 286 285 285 284 284 285 287 286 285 282 280 280 278 275 277 276 274 276 278 279 278 279 279 280 280 280 280 280 282 286 286 287 288
289 290 289 290 291 292 293 292 288 285 284 283 282 282 282 284 285 286 287 288 286 281 276 274 272 275 277 277 278 278 278 277 277 280 277 279 281 280 281 281 285 288 289
288 288 289 289 289 291 292 290 288 284 283 282 281 281 282 283 283 281 284 287 286 288 287 283 279 278 278 279 279 277 279 278 278 281 279 277 280 278 280 281 286 287 289
287 287 287 287 287 289 291 289 287 283 281 281 280 279 278 280 281 283 282 281 281 281 281 282 280 280 279 281 281 282 280 278 279 279 278 274 278 277 279 280 285 287 288
285 285 285 285 286 288 290 289 284 281 281 280 281 280 281 280 284 287 283 281 280 280 283 286 286 287 287 287 285 280 276 275 274 276 278 276 275 275 278 278 280 285 287
284 284 284 285 287 283 288 288 284 281 279 279 280 280 283 283 286 287 284 279 276 276 277 278 278 278 279 278 283 279 275 272 274 273 276 274 273 276 272 275 275 278 280

GFSMA_sfc_thetae_063.txt.gz
Theta_e
335 336 336 333 333 334 333 333 329 321 321 313 311 313 313 312 313 318 325 328 331 326 323 321 319 316 316 317 316 316 316 316 315 315 316 316 316 316 317 317 317 318 318
334 334 335 334 331 332 331 331 326 316 314 309 307 307 309 310 314 320 325 327 326 324 320 318 315 314 314 314 314 314 314 313 313 313 314 314 314 314 315 315 315 316 317
333 333 333 333 332 331 329 328 319 311 307 305 305 304 307 309 313 317 319 320 320 320 317 315 313 312 311 312 312 312 311 310 310 310 311 312 312 312 313 313 314 314 315
333 332 332 333 333 331 328 324 316 309 306 305 303 302 303 306 310 313 314 312 312 311 313 311 310 307 307 308 309 309 309 308 308 309 309 310 310 311 312 312 313 313 314
332 331 331 332 332 330 326 321 311 309 305 304 302 301 302 302 307 309 310 308 308 307 307 308 306 305 304 304 305 306 307 307 307 307 308 309 310 310 311 312 313 313 314
330 330 330 330 330 327 324 317 311 305 306 304 298 299 302 302 303 307 307 304 305 303 304 304 301 301 302 302 302 304 305 306 305 306 307 308 309 310 311 312 313 314 314
328 328 328 328 327 325 321 317 309 304 300 300 300 300 300 301 300 303 305 303 303 301 300 298 298 298 297 298 299 301 303 304 305 306 307 308 309 310 312 313 313 314 314
328 327 327 326 324 323 319 312 307 302 300 300 301 300 298 298 299 299 300 300 300 299 297 296 295 295 296 296 297 298 299 301 303 305 306 308 310 311 311 312 313 314 314
329 328 326 325 323 322 317 312 308 307 300 297 298 302 296 298 296 296 297 298 297 297 296 295 294 293 294 295 296 298 299 300 302 305 306 308 309 310 311 311 312 312 313
329 328 326 325 322 320 317 312 308 308 306 300 296 296 296 298 296 291 293 294 294 294 294 294 293 292 293 294 294 295 296 298 300 303 305 307 307 309 310 311 311 311 311
328 327 326 324 322 318 317 311 308 306 307 304 302 296 295 294 292 292 290 289 291 291 292 292 292 292 291 292 293 294 295 297 299 302 304 305 306 308 309 309 310 310 310
325 325 324 323 321 318 315 312 312 308 307 305 302 298 297 294 292 291 288 287 289 289 290 291 291 291 290 291 290 292 294 295 297 299 302 303 304 305 306 307 307 307 307
319 321 321 319 318 316 314 312 310 308 306 304 299 296 296 294 294 291 291 286 287 287 287 288 290 290 289 290 290 291 292 293 295 297 300 302 301 301 301 302 304 304 305
322 322 318 318 315 313 312 310 309 307 304 302 299 293 293 292 292 290 288 289 283 284 286 286 287 287 289 290 290 291 290 292 293 295 297 298 297 297 298 299 300 301 301
317 318 316 312 312 311 310 308 306 302 299 295 293 291 290 290 290 290 289 288 287 283 283 285 285 287 288 289 289 290 290 290 293 294 294 295 295 295 296 297 297 298 299
311 311 310 308 307 306 305 303 300 295 292 291 290 289 289 289 288 289 288 288 288 286 283 284 285 285 286 287 288 290 289 290 291 292 293 293 293 294 295 295 296 297 298
307 307 305 304 302 300 298 295 293 291 289 289 289 288 288 289 289 287 287 286 285 285 282 284 286 286 285 287 288 289 288 288 289 290 292 292 292 293 294 294 295 296 296
303 302 301 299 297 295 293 291 290 289 288 288 289 288 287 289 287 287 286 285 285 285 283 282 285 285 285 286 287 286 286 287 288 289 291 291 292 292 293 293 294 294 295
299 297 296 293 291 290 290 290 290 289 289 288 288 288 287 288 286 285 284 284 284 285 284 282 282 284 285 285 285 286 286 286 286 288 289 290 290 291 291 292 293 293 293
293 292 291 290 289 290 290 290 289 288 288 288 288 287 286 285 285 284 284 284 285 283 284 283 283 284 284 285 285 283 283 285 284 286 287 288 289 289 290 291 291 290 290
290 290 290 290 290 291 291 290 289 288 287 286 286 286 285 286 287 288 287 286 285 284 284 284 283 283 283 283 283 284 282 283 284 286 285 285 286 286 286 288 288 288 288
291 291 292 291 291 292 294 293 289 287 286 285 283 283 284 286 286 286 286 287 288 285 284 283 283 282 282 283 283 282 282 281 279 286 284 283 285 284 285 286 287 288 289
289 289 290 290 290 292 294 292 289 284 283 283 283 284 284 284 284 283 285 286 286 287 287 286 283 283 282 283 283 281 282 282 280 284 283 281 284 282 285 285 287 288 288
287 286 285 286 289 289 290 289 287 284 283 283 283 283 282 283 283 285 285 285 285 285 285 285 284 284 284 285 285 284 283 282 282 283 283 278 283 282 284 284 286 287 288
285 285 286 286 287 288 289 288 285 284 283 282 283 283 284 283 285 287 285 284 283 282 284 285 286 286 286 286 285 283 281 279 277 279 282 279 280 281 282 282 284 286 287
285 285 285 286 288 286 289 289 284 283 282 282 283 283 284 284 286 287 284 282 279 280 281 282 282 282 282 282 283 282 281 277 277 276 282 278 279 279 277 282 283 283 283

GFSMA_sfc_thetae_066.txt.gz
Theta_e
335 337 336 333 332 333 333 334 333 331 332 328 324 324 322 321 320 320 321 327 332 328 324 323 320 318 318 318 316 317 316 316 316 316 316 316 316 317 317 318 318 318 319
335 337 337 336 333 332 333 333 332 330 329 325 321 318 318 317 317 319 322 327 328 326 322 320 317 316 316 315 315 314 314 313 313 313 314 314 314 314 315 315 316 316 317
338 337 337 337 337 332 332 332 332 329 324 321 318 315 315 315 316 318 321 324 323 322 321 317 315 314 313 313 312 312 311 310 310 310 311 311 312 313 313 314 314 315 315
337 337 335 335 337 336 332 330 329 325 322 317 315 313 312 313 315 316 317 318 318 316 316 315 313 310 310 310 310 309 308 308 308 308 309 310 310 311 312 313 313 314 315
336 336 335 335 336 335 333 330 328 326 321 317 314 312 310 310 312 312 314 315 315 314 313 311 311 308 306 306 306 306 306 306 306 306 308 309 310 311 312 312 313 314 314
336 335 334 334 334 334 332 332 325 323 322 319 310 308 309 309 308 311 312 312 312 311 310 309 307 304 304 303 303 304 304 306 306 306 307 308 309 310 312 313 313 314 315
336 335 334 333 333 332 333 332 326 320 315 316 310 308 307 307 306 308 311 310 309 308 307 307 304 303 301 301 300 301 302 303 304 305 307 308 309 310 312 313 314 314 315
337 335 334 334 332 330 331 331 326 318 318 312 312 313 307 305 304 305 308 308 307 307 305 304 302 301 301 301 301 298 299 301 304 306 307 308 310 311 312 312 313 314 314
338 336 335 335 334 331 330 330 326 319 314 310 313 314 307 307 304 304 303 305 305 304 303 302 300 300 300 300 298 299 299 299 301 304 306 307 308 309 310 311 312 313 313
334 336 336 335 334 332 329 329 325 321 319 310 307 305 305 308 304 300 300 302 303 302 301 300 299 298 298 299 297 297 296 297 300 302 304 306 308 309 310 310 311 312 312
333 331 332 333 332 331 329 327 322 319 320 316 310 305 304 302 301 300 302 296 297 298 299 298 298 297 296 297 297 296 294 296 299 301 303 305 306 308 308 309 310 310 310
331 330 329 329 330 329 327 327 324 320 317 318 311 307 304 301 297 298 296 297 296 295 295 293 292 293 294 295 294 293 293 294 296 299 302 304 305 305 306 306 306 307 307
328 327 328 327 326 326 326 325 322 319 317 316 312 307 304 300 299 298 297 293 294 291 291 292 292 293 293 293 293 292 292 293 295 297 300 303 302 301 301 302 303 304 305
329 327 326 326 324 324 322 321 320 319 317 316 311 305 297 294 295 293 293 290 288 288 288 288 290 290 290 290 291 291 291 293 293 295 298 299 298 298 298 299 300 301 301
327 327 324 322 321 318 317 315 315 314 313 310 301 296 294 292 293 291 292 293 292 286 285 286 287 288 289 289 290 290 290 293 293 294 295 295 296 296 296 297 297 298 299
321 319 320 317 315 313 312 311 308 309 302 299 294 292 291 290 290 290 291 291 291 288 287 286 286 287 287 288 290 290 291 292 292 293 294 294 294 294 295 295 296 297 298
313 314 313 311 309 307 307 304 299 296 294 292 293 291 289 290 289 289 289 288 287 287 285 286 286 287 286 287 290 291 290 290 291 292 293 293 293 293 294 295 295 296 296
309 309 307 306 304 301 298 294 293 291 290 289 290 289 289 290 289 289 288 286 286 285 285 284 285 285 286 288 288 288 289 290 289 291 292 292 293 293 293 294 294 294 295
301 301 300 297 295 293 292 291 290 290 290 290 290 290 289 289 287 287 286 286 285 286 285 284 284 287 286 287 287 289 288 289 289 290 291 291 291 292 292 293 293 293 293
293 292 292 292 291 291 291 290 290 290 291 290 289 289 288 288 286 286 286 286 286 286 287 286 286 286 287 288 288 286 286 287 286 288 289 290 290 290 291 291 291 291 291
291 291 291 291 291 291 291 291 291 291 289 287 287 286 286 287 288 287 287 288 287 286 286 286 285 286 286 286 285 286 284 285 287 288 288 288 288 289 289 290 290 290 290
292 292 292 292 292 293 294 294 291 288 287 285 284 284 286 288 288 287 287 288 288 286 286 286 285 284 285 286 285 284 284 282 280 288 286 286 288 287 288 289 290 290 290
288 288 289 291 290 291 294 292 289 285 285 284 284 284 285 286 285 285 285 286 287 287 287 287 285 285 284 285 285 284 283 283 282 286 286 283 287 285 288 288 290 290 290
286 285 285 285 285 287 290 289 287 285 285 285 285 285 285 285 284 286 286 287 287 287 287 286 286 285 286 287 286 286 285 285 285 286 287 282 285 284 286 287 289 289 289
286 285 286 286 286 287 288 287 286 285 284 284 284 285 285 284 285 287 287 286 285 285 285 285 286 287 287 287 286 285 283 282 280 282 285 283 284 284 285 285 287 288 288
286 287 286 288 289 288 289 287 286 285 284 284 285 284 284 285 286 286 285 284 282 282 284 285 285 285 285 285 284 284 284 280 279 279 285 281 282 282 279 284 285 286 286

GFSMA_sfc_thetae_069.txt.gz
Theta_e
333 333 330 330 332 332 331 332 333 332 331 330 327 327 326 325 323 322 322 322 333 330 326 324 321 320 320 319 318 318 317 317 317 317 317 317 317 318 317 317 318 318 319
334 335 335 332 331 331 331 332 332 331 330 329 325 324 323 322 320 320 321 326 330 329 324 323 320 318 318 317 316 316 314 314 313 314 315 315 315 315 315 316 316 316 317
335 334 336 336 335 332 330 331 331 330 328 326 323 321 320 319 318 319 321 326 324 324 325 321 318 316 317 316 315 314 312 310 310 310 311 311 312 313 313 314 315 315 316
335 336 335 335 336 335 330 330 330 328 326 323 321 319 317 317 317 318 319 320 323 320 319 320 317 315 314 313 313 311 310 308 308 308 309 309 310 311 312 313 314 315 315
335 335 335 335 335 335 332 330 329 328 325 323 321 318 316 316 316 315 315 317 318 317 315 317 317 314 311 311 309 309 308 307 306 306 307 309 309 311 312 312 313 314 315
336 336 336 335 335 334 332 332 329 328 326 323 318 314 315 314 314 314 313 314 315 314 314 311 308 306 309 308 307 306 306 306 306 306 307 308 309 310 312 312 314 315 315
337 337 336 335 335 333 332 330 331 326 324 325 318 313 313 312 310 310 312 312 312 312 311 310 307 305 304 305 304 303 303 302 304 305 307 308 309 311 312 314 314 314 315
340 337 336 335 335 333 333 330 328 326 323 322 314 312 309 308 307 308 309 309 310 309 308 308 306 304 303 301 302 301 299 301 304 305 307 307 309 310 311 313 313 314 314
342 340 337 336 335 334 331 332 329 327 319 318 317 316 311 309 305 307 305 308 308 308 307 305 304 303 302 302 301 300 301 299 301 303 305 307 308 309 310 312 312 313 313
337 337 338 336 335 334 332 331 331 329 322 316 313 315 315 311 307 300 304 304 306 305 305 304 301 300 300 300 300 300 299 297 299 302 304 306 308 309 310 310 311 312 312
337 334 334 334 334 333 333 331 330 329 323 319 313 311 309 307 306 304 299 298 302 303 303 302 300 299 298 298 298 298 296 296 298 301 303 305 307 308 309 309 310 310 310
337 334 332 332 331 330 330 329 329 328 324 323 316 314 309 308 303 301 302 299 296 296 298 299 298 296 296 296 296 297 295 294 296 299 302 304 305 306 307 307 307 307 307
332 332 332 330 328 328 329 328 327 324 322 321 320 314 310 309 304 303 300 295 293 291 293 294 294 295 294 294 294 293 294 294 295 298 301 303 302 302 302 303 304 304 305
330 332 329 328 328 327 326 325 323 322 320 320 318 314 310 301 298 296 297 293 289 288 289 289 291 291 292 292 292 293 291 294 295 297 298 300 299 299 299 300 301 301 302
327 327 326 325 325 324 323 321 319 317 316 316 313 304 298 296 295 294 294 295 294 290 288 288 287 289 290 290 290 291 291 292 295 296 296 297 297 297 297 298 298 299 299
320 320 317 319 318 316 316 315 313 312 310 301 300 297 294 295 292 293 292 292 291 290 287 288 287 288 289 290 290 291 290 292 294 295 295 295 295 296 296 296 296 297 298
314 314 313 314 313 311 311 307 302 300 296 295 294 292 291 292 291 290 290 290 289 289 288 286 287 288 287 287 288 289 291 290 290 293 294 294 294 295 295 295 296 296 297
310 309 310 309 307 305 302 299 297 294 293 292 291 291 290 291 290 290 289 288 287 287 287 285 285 285 285 287 288 288 288 290 289 291 293 293 294 294 294 294 295 295 295
300 299 298 298 296 296 294 293 292 291 291 290 291 291 291 290 289 287 287 287 286 287 285 285 285 287 287 288 287 288 288 288 289 292 292 292 293 293 293 294 294 294 294
294 293 292 292 291 291 291 292 291 291 291 291 291 291 290 289 288 286 286 286 286 285 286 285 286 287 287 288 287 285 285 287 285 288 290 291 292 292 293 293 293 293 293
293 293 292 292 292 292 292 291 291 290 288 287 288 288 288 289 290 289 288 287 287 286 286 286 285 285 286 285 284 285 284 284 285 286 286 287 287 287 288 291 291 291 292
293 293 293 293 292 293 295 293 290 287 286 285 284 287 288 289 290 290 288 288 288 286 286 286 285 283 284 285 285 283 283 281 280 286 284 284 287 285 286 287 291 291 292
289 288 288 288 287 290 293 292 289 285 284 284 284 285 285 286 286 285 286 286 287 287 287 286 284 284 283 284 283 281 282 282 281 284 285 282 285 284 286 287 291 291 291
287 286 285 286 286 288 290 289 288 285 285 285 285 285 285 284 284 285 286 286 286 286 287 286 285 284 284 285 285 284 284 283 284 285 285 280 284 283 285 286 290 290 291
286 286 287 286 286 287 288 288 286 285 285 284 284 285 285 285 286 287 286 285 284 284 286 286 286 287 288 288 288 284 281 281 280 281 283 281 282 282 283 283 284 289 290
286 287 288 289 290 288 288 287 286 286 284 284 285 284 285 285 286 286 284 283 281 281 282 284 284 285 286 285 287 284 282 280 279 278 282 279 280 280 278 281 282 283 283

GFSMA_sfc_thetae_072.txt.gz
Theta_e
325 322 324 326 326 327 325 326 326 327 325 324 322 321 320 318 317 315 316 330 334 331 328 326 324 323 322 320 320 319 318 318 319 318 318 318 318 317 318 318 318 319 319
327 326 324 323 325 325 324 326 325 325 324 323 319 319 318 316 314 313 313 323 331 331 327 325 323 322 321 319 319 317 315 315 315 315 315 315 315 315 316 316 317 317 317
328 328 328 327 326 324 324 324 325 324 322 323 318 316 316 313 312 312 318 322 324 326 327 324 322 321 320 319 318 317 313 312 312 311 312 312 312 313 314 315 315 315 316
329 327 328 329 330 329 324 322 322 322 320 319 315 313 311 311 310 311 312 321 317 317 323 325 322 319 319 318 316 315 312 310 310 309 309 309 310 311 312 313 314 315 316
329 329 329 329 330 328 326 323 321 321 318 315 315 312 309 309 310 312 311 311 317 314 311 320 320 319 317 315 316 314 312 309 308 307 307 308 309 310 311 312 313 314 315
329 329 329 329 328 327 326 325 321 321 318 316 315 312 307 307 308 308 307 310 309 310 308 308 307 307 314 314 313 312 311 309 307 307 307 308 309 310 311 312 314 315 316
330 329 329 328 328 326 327 326 323 320 317 316 311 306 306 306 305 305 307 306 308 308 306 304 302 300 303 311 310 310 309 307 305 306 306 307 308 310 312 313 314 314 315
332 330 329 329 327 326 325 326 325 323 318 317 310 304 300 303 303 305 304 306 305 306 305 304 302 299 299 299 301 306 305 304 306 307 307 307 308 309 310 311 313 314 314
334 332 329 329 327 327 325 326 325 324 320 314 311 308 304 303 300 303 302 303 303 303 303 302 301 299 298 297 301 302 303 304 304 304 305 306 307 308 310 310 312 313 313
334 333 332 330 328 327 326 324 326 325 321 315 312 313 309 305 300 295 300 301 302 302 300 300 299 297 296 296 299 301 303 300 301 302 303 305 306 308 309 310 311 311 312
331 331 332 327 331 330 329 328 325 325 325 319 314 309 311 305 303 299 293 296 299 300 300 299 298 296 295 295 295 300 301 298 299 300 302 304 306 307 308 310 310 310 309
330 330 330 330 330 328 328 328 327 324 322 321 315 312 309 307 305 301 299 295 296 296 298 297 295 294 294 294 298 300 299 296 297 299 302 304 305 306 307 306 307 307 307
324 326 327 328 327 328 327 327 326 324 323 320 319 313 311 311 307 306 304 298 295 292 293 293 292 292 294 293 295 296 295 295 297 298 301 303 303 303 303 304 304 304 305
321 324 324 326 326 326 326 325 323 322 321 320 319 314 311 306 304 303 302 295 292 288 290 289 291 292 292 293 293 295 292 293 295 297 300 302 300 300 300 301 301 301 302
319 317 318 319 322 322 322 321 320 318 317 316 315 309 299 297 297 297 297 298 297 290 288 289 288 290 290 291 292 291 292 293 295 298 298 298 298 298 298 298 299 299 299
310 310 311 312 313 314 314 315 313 311 307 303 301 298 297 296 295 295 295 295 296 293 289 288 287 288 290 291 291 291 291 294 295 295 296 296 296 296 297 297 297 297 298
306 306 308 310 309 308 308 304 302 300 297 296 295 294 293 293 293 293 293 293 292 291 289 286 287 288 288 288 290 289 290 290 289 293 294 295 295 295 295 296 296 297 297
298 297 300 299 298 297 298 298 296 296 294 292 292 292 291 292 291 291 291 290 288 288 288 285 286 285 286 287 288 287 288 289 287 291 293 294 294 294 294 295 295 295 296
291 291 291 291 291 291 292 292 292 291 291 291 291 290 290 290 288 288 288 287 287 287 286 286 285 286 286 287 285 285 285 286 288 291 291 292 293 294 294 295 295 295 295
290 290 291 291 292 292 292 292 291 291 290 290 290 290 290 289 288 287 287 286 286 285 285 285 284 285 285 285 284 283 282 283 282 286 288 290 292 292 293 293 293 293 293
291 292 292 292 292 291 291 290 290 289 288 287 288 288 289 290 291 289 287 286 286 285 285 285 284 284 283 283 282 282 281 281 282 283 282 283 283 285 286 289 290 291 292
291 291 291 292 292 293 294 292 288 286 286 286 285 285 286 287 289 290 289 289 288 285 285 282 281 281 281 281 281 280 279 277 276 281 280 282 283 282 284 284 290 292 292
287 287 287 288 289 290 293 292 289 285 285 284 285 285 285 286 285 285 286 286 287 287 287 284 281 281 279 280 279 276 278 275 277 282 280 280 281 281 284 286 290 291 292
286 285 285 286 287 289 292 291 289 285 285 284 284 285 284 284 284 285 285 283 284 284 285 285 282 281 281 282 282 279 278 279 280 281 281 277 279 280 283 282 289 289 290
285 285 286 286 285 285 289 288 286 282 282 281 283 283 284 283 286 288 284 283 282 281 285 286 285 287 288 288 287 279 275 274 276 278 280 278 278 278 281 281 282 288 289
286 287 285 284 287 282 288 288 286 283 280 281 281 282 286 284 286 286 281 279 277 277 279 281 281 282 283 282 287 281 277 270 279 277 278 276 276 276 276 278 279 281 281

GFSMA_sfc_thetae_075.txt.gz
Theta_e
322 324 324 326 326 327 326 325 326 326 324 323 322 320 320 317 317 317 322 331 335 334 330 327 326 325 324 323 322 321 320 320 320 319 319 319 318 318 319 319 319 319 319
324 322 322 323 325 326 325 325 323 324 323 322 320 318 317 315 312 314 318 327 332 332 330 328 326 325 324 322 322 319 318 318 318 317 316 316 316 316 316 317 317 317 318
325 324 322 322 324 324 322 323 323 322 321 322 319 316 315 312 311 311 314 322 327 328 330 328 325 324 323 323 322 319 317 315 314 314 313 313 313 313 314 315 315 315 316
326 325 325 324 324 323 321 320 320 320 319 318 316 313 312 311 310 309 318 320 320 320 326 329 325 323 323 322 322 320 316 314 313 312 311 311 311 311 312 312 313 313 314
327 325 325 327 327 326 324 321 319 320 317 315 315 312 308 308 308 310 311 318 316 315 315 324 324 323 323 321 321 319 316 313 312 310 310 309 309 310 311 312 312 313 314
327 326 326 326 327 325 324 321 319 319 317 316 315 313 307 306 307 307 307 313 317 314 311 312 313 313 320 320 319 318 317 313 310 309 309 309 309 310 310 311 313 314 314
328 326 327 326 325 326 326 324 320 318 316 314 310 306 305 304 304 306 307 306 308 312 309 309 307 304 309 318 318 316 315 313 310 308 308 309 309 310 311 312 312 313 314
329 328 327 327 326 324 324 324 322 318 317 314 309 302 301 302 303 304 304 306 305 307 307 306 304 302 302 304 305 314 312 312 309 308 309 309 309 309 310 311 312 312 313
333 331 327 326 327 326 324 324 324 320 318 315 311 307 301 300 300 301 303 303 304 303 305 305 304 301 300 300 305 308 309 307 308 309 308 308 307 308 309 311 311 312 313
330 330 329 328 325 324 323 323 325 324 318 315 314 312 310 306 300 298 301 303 303 302 303 302 302 299 298 298 302 303 305 305 305 306 306 306 306 307 309 310 311 312 312
329 329 329 327 327 325 324 322 322 322 322 320 315 311 311 309 304 300 298 300 302 303 303 301 300 297 297 297 298 302 305 302 302 302 304 305 306 306 308 309 310 310 310
326 327 327 330 328 326 327 328 327 324 325 324 319 315 311 309 309 303 299 297 299 297 296 295 295 295 295 297 300 304 302 300 300 302 304 305 307 307 307 307 308 308 307
319 324 326 325 325 325 327 326 325 324 322 322 321 317 315 313 311 309 304 299 296 294 295 292 293 293 295 296 297 298 299 298 298 301 305 306 306 305 304 305 306 306 306
318 319 321 322 325 325 325 324 322 322 322 321 318 316 314 312 308 308 305 299 292 291 292 291 292 293 294 294 296 297 295 299 298 299 301 303 304 302 302 301 302 303 303
314 312 315 318 319 319 319 318 318 318 317 314 311 309 303 300 301 301 302 301 302 291 290 290 290 292 293 293 294 293 292 294 297 298 299 301 300 299 299 299 299 300 300
306 307 307 307 307 308 311 311 310 308 308 303 301 299 297 296 296 297 298 299 299 296 292 290 289 289 290 292 292 292 292 294 296 298 298 297 297 297 297 297 298 298 298
298 301 303 303 302 303 303 302 300 300 298 296 296 295 293 294 293 293 294 294 293 293 291 287 288 288 288 289 291 292 291 290 290 294 295 295 295 296 296 296 296 297 297
291 292 294 293 292 292 293 296 296 295 294 293 293 292 292 293 291 291 291 290 289 289 291 286 286 286 287 288 288 288 289 290 289 291 293 294 294 294 294 295 295 296 296
289 290 290 289 289 290 290 290 292 292 292 291 291 291 290 290 289 288 288 287 287 288 288 287 285 287 287 287 287 287 287 285 287 291 291 292 292 293 294 295 294 294 294
289 289 290 290 290 290 290 290 290 289 290 290 290 290 289 289 288 287 287 287 287 285 285 285 285 285 285 286 286 282 281 283 282 286 288 289 291 291 292 293 293 292 292
291 291 291 291 291 291 290 288 289 288 288 288 288 289 290 291 292 290 288 286 286 285 285 285 284 284 283 282 281 281 280 281 281 282 282 281 282 283 284 288 289 290 291
290 291 291 291 291 292 293 292 288 286 287 286 285 286 287 287 289 290 291 290 288 285 285 283 281 281 281 280 279 279 278 276 276 281 280 280 282 281 282 282 289 291 292
287 287 289 290 290 292 293 292 289 283 282 283 284 284 285 286 285 284 286 287 287 288 287 283 280 280 279 279 278 275 278 275 276 280 280 278 280 280 281 284 289 290 291
285 286 286 286 287 291 292 291 289 284 283 284 283 282 281 281 282 284 284 283 283 283 284 285 282 281 280 281 281 279 278 279 279 279 280 273 278 279 280 281 287 289 289
285 285 284 282 282 284 289 289 284 280 280 279 281 281 281 281 287 288 281 279 279 279 284 286 286 287 288 289 287 279 275 273 273 277 279 277 277 278 279 278 280 286 288
285 282 279 281 286 281 289 289 284 281 278 279 280 280 286 283 286 285 279 278 276 277 278 280 280 280 281 281 286 280 276 268 270 271 278 276 274 278 275 277 278 281 279

GFSMA_sfc_thetae_078.txt.gz
Theta_e
321 324 325 325 325 326 325 325 325 324 323 323 323 321 320 318 318 320 325 331 336 336 332 330 327 326 326 325 323 322 322 322 321 321 321 320 320 320 319 320 320 320 320
322 324 323 325 325 325 325 324 323 324 322 322 322 319 319 315 316 316 321 327 333 335 332 330 328 327 326 325 323 321 320 321 320 319 319 318 317 318 318 317 318 318 318
322 322 322 321 324 324 325 323 323 322 322 321 319 316 315 312 312 313 316 323 327 330 332 330 328 327 326 325 324 321 319 318 318 317 316 315 315 315 315 315 316 316 316
324 321 321 321 322 322 322 320 321 319 319 319 318 316 313 311 309 310 312 320 322 323 328 331 329 327 326 325 325 322 319 317 315 315 314 313 313 313 313 313 313 314 314
326 325 323 322 321 322 321 321 318 318 317 316 316 314 310 310 309 309 311 316 319 319 318 325 327 327 327 324 324 324 320 317 315 313 313 312 311 312 312 312 313 313 314
326 325 324 324 325 323 322 319 317 317 317 316 316 314 309 307 307 306 307 316 317 317 316 315 319 318 324 325 324 323 321 317 314 312 312 311 311 311 311 312 313 314 314
326 325 324 324 325 325 325 323 319 317 315 314 310 308 305 305 304 305 306 306 315 317 315 314 314 311 315 323 324 321 321 318 314 312 311 310 311 311 312 312 312 313 313
326 325 324 325 325 323 323 322 321 316 316 313 311 305 306 305 304 305 303 305 305 311 312 312 311 307 307 310 311 321 319 318 315 312 310 310 310 311 311 311 312 313 313
331 327 325 324 324 324 324 323 323 320 320 314 311 311 301 302 301 302 302 302 303 303 306 307 306 305 305 305 309 313 315 314 312 310 310 310 309 309 310 311 312 312 313
329 330 329 327 324 323 322 322 323 322 317 315 313 315 308 305 302 301 300 304 306 305 305 304 304 302 301 301 305 307 309 306 306 308 307 306 308 309 310 311 312 312 313
328 328 328 326 325 323 322 321 323 322 322 322 315 310 309 309 305 304 305 300 303 303 304 305 304 303 301 300 301 305 305 305 303 303 305 306 309 312 313 312 312 312 312
325 326 325 324 325 326 325 323 321 323 323 323 322 318 315 311 310 305 301 300 301 298 296 296 297 298 298 300 302 304 306 305 304 305 305 306 307 308 310 312 310 310 310
319 325 323 323 322 322 324 325 325 324 322 321 321 319 317 316 313 311 310 302 299 298 297 294 295 296 298 299 301 303 303 303 304 303 305 309 309 309 309 309 309 309 309
317 317 319 320 321 325 324 323 322 321 320 320 320 320 318 314 310 309 307 304 295 293 294 294 293 294 295 297 299 301 299 301 301 304 305 306 305 305 305 305 304 304 304
312 311 312 312 313 314 316 317 313 311 313 309 306 305 304 301 302 302 303 303 302 294 292 291 290 293 294 295 297 296 294 297 300 300 301 301 301 302 302 300 301 300 301
305 306 305 305 304 306 306 305 302 304 304 301 300 299 297 297 297 298 298 299 299 298 294 291 290 290 292 293 294 293 293 295 297 299 300 300 299 298 298 298 298 298 298
296 298 299 297 297 298 302 301 300 300 298 297 296 295 294 295 294 294 294 294 294 294 290 287 289 289 289 290 291 292 292 292 292 295 297 296 296 296 296 297 297 297 297
290 291 291 290 290 291 292 296 296 296 295 294 293 293 292 293 291 291 291 289 289 289 290 287 287 287 288 289 289 289 290 290 289 291 293 294 295 294 294 295 296 296 296
289 290 290 290 289 290 290 290 290 289 291 292 291 291 291 291 289 289 288 288 288 288 288 288 284 287 287 288 287 287 287 285 287 290 291 291 292 293 293 294 295 295 294
289 289 289 289 289 289 289 289 288 287 288 288 288 289 289 289 288 287 287 287 287 286 286 285 285 285 285 286 285 282 280 282 281 285 287 288 290 291 292 292 292 292 292
290 290 290 289 289 289 289 287 288 288 288 288 289 289 289 291 292 290 286 286 287 286 285 285 284 284 280 282 280 279 279 279 279 280 281 281 281 282 283 287 288 290 291
290 291 291 290 291 292 293 292 288 287 286 286 285 286 287 286 289 292 292 290 288 285 281 281 279 279 279 279 279 278 278 275 275 280 280 280 280 280 281 281 288 291 291
288 288 289 290 291 291 293 292 289 281 280 283 283 278 283 286 285 284 286 287 287 288 287 281 279 278 277 278 276 273 277 273 275 279 279 277 279 279 280 283 288 289 290
286 287 286 287 288 291 292 291 288 281 279 278 278 278 279 280 282 283 282 281 281 281 282 284 280 280 279 279 279 277 277 278 278 279 279 272 277 278 280 281 286 288 289
285 285 285 283 282 283 289 288 283 279 279 279 281 280 280 280 287 287 280 279 278 279 284 287 286 287 288 289 286 279 275 273 273 277 278 277 276 277 278 278 280 286 288
280 280 279 280 286 281 289 288 283 281 278 279 279 280 286 283 286 285 279 277 276 277 278 280 279 279 281 281 286 280 276 268 269 270 277 279 278 277 273 277 278 279 280

GFSMA_sfc_thetae_081.txt.gz
Theta_e
320 323 323 325 325 325 324 324 325 325 322 321 321 321 320 318 318 321 324 329 336 337 334 331 328 326 326 325 323 322 322 322 321 321 321 320 320 319 320 320 320 321 321
320 322 323 323 323 324 324 323 323 322 321 320 321 321 320 318 316 319 321 325 333 336 335 332 330 328 327 326 324 322 321 321 320 320 319 318 318 318 318 318 318 318 319
322 322 322 322 324 324 324 323 322 321 320 321 319 320 317 315 313 316 317 322 326 331 334 332 331 329 327 326 325 323 321 320 319 318 317 316 315 316 316 315 316 316 316
322 321 321 321 322 322 323 321 320 319 318 318 318 318 316 313 310 311 313 318 322 324 329 333 333 330 328 327 327 325 321 319 317 316 315 313 313 313 313 314 314 314 315
324 321 321 321 320 320 320 320 319 318 316 316 317 317 314 311 310 309 309 312 319 321 319 325 329 329 329 327 327 327 323 319 316 315 314 312 312 312 312 313 313 314 315
326 323 321 320 320 319 318 317 318 316 317 316 317 316 313 310 308 307 307 311 314 318 317 317 319 321 326 328 326 326 325 322 317 315 313 312 312 312 312 313 314 315 316
327 324 323 322 323 320 320 320 317 316 314 314 312 309 308 308 307 305 306 306 312 315 315 315 314 315 317 326 327 325 325 323 317 313 312 311 311 312 312 313 314 314 315
325 324 323 323 322 323 322 321 320 316 315 313 313 309 310 312 306 306 304 305 304 312 313 314 312 312 311 313 316 324 322 322 319 314 312 310 311 311 312 312 313 313 315
327 325 323 323 322 323 322 322 320 318 319 313 311 315 306 305 302 304 301 301 303 302 306 310 310 310 307 307 310 312 314 314 315 313 311 312 311 310 311 312 312 314 314
329 329 326 323 322 322 321 321 321 321 320 320 314 315 312 309 306 305 302 302 302 303 304 304 305 304 304 305 308 309 312 313 314 313 313 311 310 311 312 314 314 315 314
327 328 329 326 324 322 321 320 319 322 322 322 317 315 313 309 306 306 308 307 303 301 303 304 305 305 305 304 305 308 311 312 313 312 311 308 308 310 312 311 312 313 314
323 325 325 325 325 324 323 321 320 321 322 322 320 318 316 311 309 307 304 307 302 300 297 298 300 299 301 301 305 306 310 310 310 309 310 311 311 311 311 313 315 313 311
317 321 322 322 321 321 322 322 323 322 319 320 321 320 318 316 314 311 310 308 301 298 297 296 296 296 299 300 302 305 307 308 309 310 311 313 311 311 313 312 310 312 311
316 315 317 319 320 320 320 320 321 320 319 318 316 316 316 312 311 311 309 306 297 295 294 296 293 295 297 299 301 305 304 307 306 306 308 309 309 306 306 306 308 306 305
311 312 313 313 313 313 315 316 313 312 309 307 304 304 303 301 302 302 303 304 303 297 295 292 291 294 295 296 300 297 297 301 302 303 303 303 304 303 304 302 302 302 302
304 304 304 305 305 306 306 305 305 306 302 301 300 299 296 298 298 298 299 299 299 298 295 291 290 291 293 294 296 294 294 296 298 301 301 301 301 300 299 299 299 299 299
295 296 295 296 297 299 300 299 299 300 299 297 297 296 295 295 293 294 295 294 294 294 291 287 289 289 290 291 292 293 293 293 293 295 298 297 297 297 297 297 297 297 298
290 290 291 291 291 292 293 295 294 296 295 294 294 294 293 294 292 292 291 290 289 290 291 288 287 287 288 289 290 290 291 292 290 292 293 294 295 295 295 295 295 296 297
289 290 290 290 290 290 290 289 289 291 292 292 292 291 291 291 289 288 288 284 284 288 289 288 286 287 287 288 287 288 287 286 287 290 291 291 292 292 293 294 295 295 295
289 289 289 289 289 288 288 288 288 288 288 287 287 287 287 286 285 284 284 284 285 285 284 283 284 285 286 286 286 282 281 281 281 284 286 288 289 290 291 292 292 292 292
289 289 289 289 288 289 289 288 289 289 288 288 288 290 290 291 292 289 285 284 284 283 285 285 284 284 283 281 280 279 278 278 278 279 279 280 281 281 282 286 287 289 291
290 289 289 290 291 292 293 292 289 287 287 287 286 286 287 286 289 292 291 291 289 282 280 279 282 278 278 277 278 278 276 273 273 279 279 279 280 279 280 281 288 290 291
289 289 290 290 290 291 293 292 289 282 284 284 279 278 282 285 283 282 286 288 288 289 287 280 278 277 277 277 275 272 276 272 274 278 278 277 279 279 280 282 287 289 290
287 287 286 287 288 290 292 291 288 279 278 277 276 277 279 279 282 282 281 281 281 280 282 283 280 279 279 279 279 276 276 277 278 279 279 272 277 278 279 280 286 287 289
286 285 285 283 282 284 289 288 282 278 279 279 280 280 280 280 287 287 280 279 278 278 284 287 286 287 287 288 286 282 277 273 273 277 278 277 276 276 278 278 280 286 288
284 282 280 280 286 281 289 287 283 280 278 279 279 279 286 283 286 285 279 277 276 276 277 279 279 279 280 281 286 280 275 267 268 270 277 275 275 276 272 276 278 279 279

GFSMA_sfc_thetae_084.txt.gz
Theta_e
322 322 323 324 325 325 324 323 323 324 322 320 319 319 318 317 317 318 321 327 335 338 335 332 329 327 325 325 323 321 321 321 320 321 321 320 321 320 321 320 321 321 322
319 322 322 322 323 324 324 322 322 322 321 319 318 319 319 319 318 316 319 323 331 336 337 334 332 329 327 326 324 322 321 321 320 320 319 319 318 318 319 319 319 319 319
320 320 322 321 322 323 323 321 320 320 319 319 317 318 319 317 316 314 316 319 324 330 335 335 333 331 329 328 326 324 321 320 320 318 317 316 316 316 316 316 317 317 317
323 321 321 321 322 322 322 320 320 318 317 317 317 318 318 316 313 311 313 316 320 324 329 335 335 332 330 329 328 326 323 320 319 317 316 314 314 314 314 314 314 315 316
325 322 321 321 320 320 320 320 318 318 316 316 316 317 317 315 313 311 309 311 314 320 320 326 330 331 332 330 329 328 326 322 318 316 314 313 312 312 312 313 314 314 316
327 323 320 320 319 318 317 317 317 316 316 316 317 316 315 314 311 309 308 308 310 315 318 318 318 321 327 330 329 328 327 325 320 318 314 313 312 311 312 312 314 315 316
328 324 322 320 318 318 318 317 316 315 314 313 313 312 311 311 310 308 307 306 307 311 314 316 315 315 317 327 329 328 327 327 323 318 314 311 311 311 312 313 314 314 315
325 324 323 321 320 320 318 317 316 314 314 313 312 310 312 314 308 307 305 305 305 307 312 313 313 313 313 313 317 326 326 324 324 319 315 314 313 312 312 312 313 313 314
325 324 323 322 321 322 321 320 319 317 315 313 312 317 308 308 307 309 305 302 303 302 305 309 313 313 312 311 315 317 319 319 322 322 318 313 314 313 312 312 314 315 316
327 326 324 322 321 321 321 320 320 320 320 320 314 315 314 312 310 308 304 302 302 302 304 302 305 307 306 308 311 313 316 317 318 320 316 315 314 313 313 312 313 314 313
327 328 327 324 322 320 320 320 318 318 319 319 315 312 310 310 309 307 309 310 305 301 300 300 303 305 305 305 307 311 314 316 319 319 319 316 314 313 314 314 316 316 315
323 324 325 325 324 323 321 320 319 318 318 318 320 318 315 312 309 307 306 307 307 302 299 296 297 297 300 303 306 309 313 315 317 318 317 315 314 314 315 316 315 316 315
315 318 321 321 322 321 321 321 320 319 318 320 319 320 317 317 315 312 310 308 305 300 297 296 296 298 300 299 303 307 310 313 314 314 315 316 315 314 312 313 313 312 313
314 317 316 318 319 320 320 320 319 320 319 316 313 313 314 309 310 310 309 307 301 297 293 295 294 295 297 299 301 305 304 309 310 311 311 309 308 308 308 308 308 307 306
311 311 312 313 313 315 318 316 314 310 308 307 305 304 304 301 301 302 304 305 304 298 296 293 292 294 295 298 300 298 298 305 305 303 304 304 304 305 304 304 303 302 303
302 304 305 306 306 307 307 307 306 304 301 301 301 300 297 297 296 297 298 300 300 300 296 292 291 292 294 295 297 295 296 298 299 301 302 302 301 301 300 300 300 300 300
294 294 295 297 299 301 302 301 301 302 300 298 298 297 296 296 295 294 292 292 292 292 292 288 289 290 291 292 293 293 294 293 293 296 298 299 299 299 298 298 298 298 297
290 290 292 292 292 293 294 295 295 295 296 295 295 294 293 294 292 291 292 290 287 290 291 288 288 288 288 290 290 290 291 292 291 292 294 294 295 296 296 295 295 296 296
289 290 290 290 290 290 290 289 290 292 292 292 292 292 291 291 289 289 288 288 286 286 285 284 284 287 287 288 287 288 288 287 288 289 291 291 292 292 293 293 294 295 295
288 288 288 288 288 288 288 289 289 289 288 288 288 287 286 286 284 284 283 283 284 283 283 282 282 285 286 287 286 284 283 282 281 284 285 287 290 290 290 291 292 292 292
288 288 288 288 288 288 290 289 290 289 289 288 289 290 290 291 292 289 285 283 283 282 282 282 281 281 282 281 281 279 278 278 278 279 279 280 281 281 281 286 287 289 290
289 289 289 290 291 292 293 292 290 288 288 287 286 286 286 287 290 293 292 291 287 281 278 275 273 276 277 277 277 277 276 273 273 279 278 278 279 279 280 281 287 290 291
290 290 290 290 290 291 293 292 290 286 285 282 279 279 282 284 283 282 287 288 288 289 286 280 278 277 277 277 275 272 275 271 274 278 278 276 279 278 280 282 287 289 290
288 288 287 287 288 291 292 291 288 280 278 277 277 277 279 279 282 281 281 280 280 279 282 283 280 279 279 278 278 275 276 277 278 278 278 271 277 278 279 279 285 287 290
286 286 286 285 284 285 290 288 283 279 279 278 280 279 280 280 287 286 280 279 278 278 284 287 286 287 287 287 284 282 281 273 273 276 278 276 276 276 278 278 279 286 288
285 284 281 282 287 283 288 287 283 280 278 279 279 279 286 282 286 285 279 277 275 276 277 279 278 279 280 282 285 279 275 266 268 270 276 276 274 275 272 276 278 279 279

GFSMA_sfc_thetae_087.txt.gz
Theta_e
333 335 337 337 338 338 337 336 336 335 334 332 328 327 326 327 327 328 330 327 333 338 336 334 331 328 326 326 324 322 322 322 321 322 322 321 321 321 321 322 322 322 322
331 332 333 333 334 335 336 334 333 333 332 331 329 326 328 329 329 328 328 329 329 335 337 336 334 331 329 328 326 323 321 321 321 321 320 320 320 320 320 320 320 320 321
329 329 331 331 331 333 333 333 331 331 330 329 328 326 326 328 327 326 326 327 330 329 335 337 335 333 331 329 328 325 322 321 320 319 318 318 317 317 317 317 317 318 318
332 328 327 328 330 330 331 331 330 329 328 327 327 328 328 328 327 326 323 324 326 329 331 334 337 334 333 331 330 328 326 323 321 319 317 316 315 315 315 315 316 316 317
332 331 329 329 329 329 329 329 328 328 326 326 326 327 327 327 327 324 324 322 323 325 328 329 330 332 334 332 331 330 329 325 322 320 318 315 314 313 313 314 315 315 316
334 331 331 330 328 327 326 326 326 325 326 326 323 324 326 326 326 324 324 322 320 320 323 326 328 329 327 331 331 331 330 329 324 320 318 316 314 313 313 312 314 316 316
335 332 330 329 327 326 326 325 325 324 324 324 322 324 324 325 324 324 323 321 319 319 319 321 323 326 327 327 330 330 330 329 328 322 319 317 314 313 313 313 314 314 314
334 332 331 329 327 326 324 324 323 323 323 322 322 320 318 323 322 320 320 318 318 316 316 317 319 321 324 322 323 328 330 328 327 324 319 317 316 315 314 314 313 314 315
330 330 330 329 328 327 328 326 325 323 323 321 322 323 312 312 315 319 315 313 313 313 313 314 316 317 319 320 319 321 323 326 327 326 322 319 317 316 316 315 316 314 315
329 329 329 328 328 328 327 327 327 326 325 323 319 318 321 319 314 314 314 312 309 310 311 311 311 313 314 315 315 315 319 321 323 324 326 322 319 319 318 317 316 315 315
333 332 330 328 327 327 327 327 325 325 325 325 323 317 316 315 314 311 309 314 313 307 306 306 307 310 309 312 313 313 317 319 322 324 324 322 321 319 317 317 316 317 317
330 331 331 332 331 328 327 326 326 325 325 325 325 322 320 317 312 311 309 310 312 310 304 302 303 304 305 306 307 309 313 316 319 322 323 323 318 315 316 316 317 316 316
320 323 324 328 329 330 330 328 327 326 325 324 324 324 323 322 319 316 313 311 310 305 302 298 300 302 303 303 305 307 308 313 315 318 318 317 315 312 311 312 313 313 312
317 318 320 323 325 326 327 327 327 326 325 322 320 316 315 311 312 314 314 310 306 303 301 299 299 300 300 302 303 305 308 310 311 312 311 309 308 307 307 307 308 307 306
313 313 315 316 316 319 322 322 319 313 312 311 310 309 307 304 304 306 308 311 308 303 303 296 300 298 299 299 302 302 304 307 306 305 305 305 304 304 304 303 302 303 303
305 306 307 308 308 308 310 310 308 307 306 305 305 305 302 301 301 302 303 303 305 305 299 296 295 295 297 297 298 296 298 298 301 302 302 302 302 301 301 300 301 301 301
298 299 301 302 303 304 305 307 306 305 303 302 302 300 298 298 297 297 298 299 298 299 298 290 292 292 293 294 294 295 295 295 295 297 298 299 299 299 298 298 298 298 298
295 295 297 297 297 298 300 302 301 301 300 299 299 298 296 296 295 295 296 294 293 295 297 291 290 290 291 291 292 292 292 293 294 292 294 294 295 295 295 295 295 295 296
293 294 294 294 294 294 295 295 296 296 296 296 296 295 294 294 292 292 291 291 291 291 293 293 289 290 290 290 290 291 290 289 289 289 291 291 292 292 292 293 294 294 295
292 292 292 292 292 292 292 293 293 293 292 291 291 291 291 291 290 289 289 290 290 291 291 290 290 289 288 289 288 287 287 287 287 287 287 288 290 290 290 291 291 293 293
291 291 291 291 291 292 292 292 292 291 291 291 291 292 291 291 292 291 289 289 289 289 289 289 287 287 286 286 286 285 285 285 286 286 286 288 288 288 288 288 288 289 290
291 292 292 293 292 293 294 294 292 291 290 289 288 288 288 289 293 293 293 291 289 288 286 287 285 285 284 284 285 284 284 283 282 286 285 286 286 287 288 288 287 290 291
292 291 292 292 292 292 294 293 292 288 287 286 285 285 286 287 286 287 290 289 290 290 288 286 284 284 283 284 284 282 283 283 283 285 284 284 286 285 287 286 287 289 290
289 290 288 289 291 292 293 291 289 285 283 283 283 284 285 285 285 285 285 284 284 286 286 285 285 284 285 284 285 284 284 284 285 284 285 282 285 284 286 286 285 288 289
287 287 288 288 289 290 291 289 284 283 283 282 283 284 285 285 288 285 283 283 282 282 287 288 287 287 287 287 286 285 284 283 282 282 284 282 283 283 284 284 285 286 288
286 286 285 286 288 287 288 287 284 283 282 282 283 285 286 286 286 286 282 281 280 281 283 283 282 283 284 286 285 284 283 281 281 281 283 281 282 282 281 284 284 285 286

GFSMA_sfc_thetae_090.txt.gz
Theta_e
336 338 339 340 341 341 340 339 338 337 337 336 332 327 327 328 330 331 333 330 332 337 338 336 332 329 327 327 324 323 322 322 322 323 322 322 322 322 322 322 322 322 324
334 336 337 338 338 338 338 337 335 334 334 335 333 328 327 330 331 332 333 333 329 333 338 338 336 333 330 329 327 324 323 322 322 321 321 320 320 320 320 320 320 321 321
336 336 333 334 335 335 334 336 335 334 332 331 330 330 327 330 332 332 333 332 332 328 334 338 337 335 333 331 330 327 324 323 322 321 320 319 319 318 318 318 317 318 318
339 337 335 332 333 334 334 334 333 332 331 331 330 331 331 331 332 333 332 332 332 331 331 335 337 336 335 334 332 331 328 325 324 322 320 317 316 316 316 316 316 317 316
339 338 337 336 334 333 333 334 333 332 330 330 330 331 332 332 332 331 331 332 332 330 332 331 331 333 334 334 333 332 331 327 325 322 320 318 317 316 316 315 315 315 316
340 339 339 338 337 334 334 333 332 332 330 330 328 328 331 332 333 333 332 332 331 330 329 330 330 329 329 333 333 332 332 331 327 324 321 319 317 316 315 314 315 316 316
342 341 339 338 338 335 334 333 331 330 330 330 328 329 330 331 331 332 333 332 330 328 328 327 327 327 328 329 331 332 332 331 330 325 322 319 318 316 315 314 315 314 314
342 340 339 338 337 335 334 332 330 329 329 331 326 326 323 327 329 330 329 328 326 326 325 323 324 324 325 326 326 328 329 330 330 329 324 321 318 318 317 315 314 314 315
338 337 338 338 337 335 334 334 332 330 327 329 328 327 318 317 322 325 324 323 322 322 319 318 319 320 321 322 322 322 322 325 328 329 328 322 321 319 318 317 316 317 317
335 336 336 336 336 335 334 335 334 332 330 327 328 327 329 325 318 315 320 322 318 316 315 317 317 316 317 319 317 316 317 321 325 328 328 325 323 322 321 320 319 318 317
339 336 334 334 333 333 333 333 332 331 331 330 329 328 324 321 319 315 313 320 320 314 312 312 311 314 314 315 317 315 315 319 322 325 327 327 326 323 323 319 317 318 318
337 338 337 337 336 334 333 333 333 332 331 330 330 329 325 322 321 317 314 315 316 315 311 310 310 310 310 311 309 309 311 315 318 321 324 324 324 323 317 316 317 317 315
328 331 331 332 332 333 333 334 333 332 331 329 329 327 327 326 325 323 318 317 315 314 311 306 307 308 307 308 308 306 308 311 314 317 319 320 317 313 313 313 312 311 311
321 322 323 326 328 328 330 332 332 331 331 330 328 326 323 316 316 317 317 315 310 311 310 309 305 305 304 304 305 306 309 309 312 313 314 311 309 308 307 307 307 306 306
316 318 320 321 323 325 327 328 327 323 323 317 315 313 311 309 311 310 310 312 312 308 308 304 305 302 301 302 301 304 303 305 307 307 306 305 305 305 304 303 303 303 303
311 313 315 316 317 317 318 318 314 312 310 309 309 308 307 307 306 307 307 308 309 308 303 301 298 298 299 299 299 298 298 299 301 303 302 302 302 302 302 301 301 301 301
306 308 307 310 311 311 311 310 309 308 307 305 308 308 305 303 302 301 302 304 305 306 303 293 294 295 297 298 299 300 298 297 297 298 299 298 298 298 298 298 298 298 298
303 303 304 305 305 305 306 308 306 307 307 306 305 303 300 299 299 301 302 301 301 302 301 295 293 294 295 295 296 295 295 295 296 294 295 295 295 296 295 295 295 296 296
301 301 301 302 301 301 303 304 305 304 304 303 303 302 300 299 297 297 298 297 297 296 299 297 292 293 294 295 295 296 294 294 292 290 291 291 292 292 292 293 294 294 295
299 299 299 299 298 299 299 300 301 300 299 298 298 297 297 297 296 296 295 295 296 297 297 296 294 293 295 294 294 292 292 292 291 290 289 288 290 291 291 291 292 292 293
297 297 297 297 297 297 297 298 297 297 296 294 294 294 294 293 293 294 295 294 295 295 295 295 293 293 292 291 291 290 289 289 290 289 289 290 290 291 291 290 290 290 290
296 297 296 296 296 295 295 295 296 296 295 293 292 293 293 294 294 294 293 291 292 292 291 292 291 290 288 289 289 288 287 286 286 289 288 288 290 289 291 291 288 290 291
296 295 295 295 294 295 296 295 294 292 290 288 289 289 290 290 292 292 292 291 291 290 289 290 288 288 287 288 287 286 286 286 285 288 287 287 289 288 291 289 289 289 290
293 292 290 292 293 294 294 294 291 290 289 289 289 289 288 287 288 287 288 287 288 288 288 287 288 287 287 287 287 287 287 287 288 288 287 285 289 287 289 290 286 289 290
289 289 291 292 292 292 292 291 289 288 286 286 287 288 289 289 287 286 287 285 285 287 289 288 288 288 287 288 288 288 287 286 285 285 287 285 287 286 288 287 288 286 288
288 288 288 290 291 291 290 288 287 286 285 285 286 287 287 288 288 285 285 285 283 284 285 285 285 285 287 287 286 287 287 284 284 284 286 283 284 284 284 288 287 288 288

GFSMA_sfc_thetae_093.txt.gz
Theta_e
334 334 336 339 340 340 340 339 337 336 335 335 332 326 325 327 329 330 332 332 334 336 339 337 333 330 329 327 325 323 323 322 323 323 323 322 322 322 322 322 322 323 323
334 336 337 337 337 338 337 336 334 333 332 333 332 329 326 327 329 331 333 332 331 333 337 339 338 335 332 330 328 324 323 323 322 321 321 320 320 320 320 320 320 321 322
334 335 334 335 335 335 333 334 333 332 330 329 329 329 327 327 330 331 333 333 331 329 333 338 338 337 335 333 332 329 326 325 323 322 321 319 319 318 318 317 317 318 319
338 337 335 332 333 334 333 333 332 331 330 330 329 330 330 329 329 331 333 333 334 332 330 335 337 338 337 335 334 333 329 326 325 323 322 320 318 318 317 316 316 316 317
339 338 337 335 332 333 333 333 332 331 331 331 331 331 332 332 333 332 332 333 334 333 333 331 332 334 335 336 335 334 333 330 327 325 322 320 318 317 316 315 315 315 316
340 339 338 337 336 333 333 333 333 333 331 330 328 328 331 333 334 333 333 333 333 333 332 332 331 329 329 334 334 334 333 332 330 327 324 322 319 318 316 315 315 315 316
341 340 339 338 338 335 334 334 333 331 331 331 329 329 330 332 332 333 334 333 333 331 330 330 329 329 329 330 333 333 333 333 331 330 326 323 321 319 318 317 316 316 315
343 340 340 339 338 337 335 335 333 331 330 332 327 328 323 328 330 330 332 330 330 329 327 326 325 326 327 327 325 328 329 331 332 331 329 325 322 321 319 318 316 315 316
342 342 341 340 339 338 335 336 334 331 328 331 331 327 320 318 323 327 325 325 325 324 321 320 319 320 321 323 323 322 322 323 327 330 329 327 325 322 321 320 318 317 318
338 336 337 337 337 337 336 336 336 334 332 328 330 328 330 328 321 318 324 323 321 318 317 316 318 318 317 319 318 315 316 319 323 327 329 328 328 325 323 322 321 319 319
337 335 335 335 334 335 335 335 335 334 332 330 330 329 326 326 323 319 315 320 321 316 314 314 314 314 314 314 313 312 313 317 321 323 325 327 326 328 326 324 319 317 316
338 338 337 335 334 334 333 333 334 333 332 332 331 330 325 322 319 318 316 317 318 316 313 312 311 310 310 311 309 309 310 313 316 319 322 324 325 324 324 320 320 318 317
332 333 334 333 334 334 334 334 333 333 332 330 329 328 328 327 325 322 320 317 316 316 312 308 307 307 307 307 307 307 309 312 314 317 322 321 317 316 316 316 316 314 312
322 325 325 326 329 330 330 331 331 330 330 328 328 327 324 320 321 319 318 317 311 310 310 308 305 303 302 303 305 307 309 311 311 312 314 313 310 309 310 310 308 307 306
318 319 320 321 323 324 325 327 328 328 327 324 320 319 315 312 313 313 312 313 312 306 306 305 303 301 301 301 301 303 302 306 307 307 307 306 306 306 305 304 304 303 303
314 316 317 318 318 319 319 322 317 314 312 309 310 308 307 307 308 309 309 309 308 308 305 302 298 299 300 299 299 298 299 299 302 303 303 303 303 303 302 301 301 300 300
309 311 311 313 313 314 313 312 311 310 308 308 309 308 306 307 305 304 305 305 306 306 302 294 296 296 297 299 299 300 299 298 298 299 299 299 299 298 298 298 298 298 298
305 305 307 308 308 308 311 310 307 307 307 307 306 304 302 302 302 303 304 303 304 304 302 296 294 294 296 296 297 297 295 296 296 295 297 297 297 297 296 296 296 296 296
303 303 304 304 304 304 306 308 308 308 307 306 304 303 301 301 300 300 300 299 298 298 300 297 292 294 294 295 295 295 293 293 292 291 291 291 292 293 293 293 293 294 295
301 301 301 301 301 301 302 303 304 304 303 301 301 301 300 300 298 298 297 297 297 297 297 296 294 294 294 294 293 291 290 290 289 290 290 289 290 291 292 292 292 292 292
299 299 299 299 299 299 299 300 301 300 298 296 296 296 296 295 297 296 296 295 296 295 295 295 292 292 291 290 289 288 286 287 287 287 286 287 287 288 289 291 291 290 290
298 298 298 298 297 297 295 297 298 297 297 295 294 294 294 294 294 294 294 293 294 293 292 292 290 290 287 287 286 285 285 284 283 287 285 285 287 286 288 288 290 289 291
297 296 296 296 295 296 296 296 296 293 291 290 289 290 291 292 293 292 292 292 291 291 291 289 287 286 285 286 285 284 283 283 282 285 284 283 286 284 287 288 289 289 290
295 294 292 293 294 294 295 295 293 291 291 291 291 291 289 289 288 289 287 287 287 287 287 287 287 286 286 286 286 285 284 284 285 285 285 281 285 284 286 286 288 288 291
290 290 291 292 292 292 294 293 291 289 288 287 288 289 288 287 288 289 287 285 285 286 289 290 289 289 289 289 288 286 284 283 282 282 284 282 283 282 284 284 285 287 288
289 290 289 291 292 291 292 291 290 288 286 285 287 287 288 289 287 286 285 284 282 283 284 284 284 285 287 286 287 285 284 281 282 281 283 281 282 280 279 284 283 284 284

GFSMA_sfc_thetae_096.txt.gz
Theta_e
327 326 336 337 335 335 334 333 332 330 329 328 326 321 318 319 322 323 327 331 336 338 339 338 333 330 330 327 326 324 324 323 324 323 323 323 323 323 323 323 324 324 324
328 327 329 333 333 335 333 331 328 327 326 327 326 322 319 319 321 323 325 327 332 335 337 339 339 335 332 331 328 326 325 323 324 322 322 321 321 321 321 321 322 322 323
326 329 329 329 329 329 328 328 326 325 323 323 322 322 320 318 322 325 325 326 327 329 334 338 339 339 336 334 333 330 327 325 324 322 321 320 319 319 319 318 319 319 320
331 329 328 327 328 327 326 326 325 324 323 322 321 322 322 320 320 322 325 326 326 327 329 335 339 339 337 337 335 334 331 327 326 324 322 320 319 318 317 317 317 317 318
333 331 330 328 326 326 326 327 325 324 323 323 324 323 324 324 325 327 325 326 326 326 326 329 331 334 336 337 336 336 334 331 328 326 324 322 320 318 317 317 316 316 318
334 333 332 331 327 326 325 326 325 325 323 323 325 323 323 325 326 325 326 327 327 326 325 326 326 327 329 334 335 335 335 333 331 329 327 325 322 320 318 317 316 316 316
336 334 333 332 331 328 327 327 326 325 323 324 321 321 323 325 325 326 327 326 326 325 323 322 321 321 324 330 333 333 334 334 332 330 329 327 324 321 319 318 317 317 315
338 336 334 333 332 331 329 329 327 325 325 325 321 320 317 321 324 325 325 323 320 320 320 318 316 317 318 321 321 325 325 327 331 332 329 329 326 323 322 320 318 318 316
337 337 335 333 332 332 330 330 329 326 322 324 324 321 314 313 317 319 318 318 317 314 313 313 313 314 315 316 317 316 318 320 324 328 330 328 329 326 324 322 321 319 317
334 334 334 334 333 332 330 329 330 327 325 323 324 325 323 321 314 312 317 315 313 313 311 311 312 312 312 312 313 313 315 319 323 325 327 327 327 329 327 325 323 321 320
334 333 333 332 332 332 332 331 329 329 328 325 324 322 321 320 319 315 312 312 313 309 309 308 308 307 309 307 305 309 313 316 320 322 323 325 325 327 329 327 325 321 319
333 333 333 332 332 331 331 330 330 329 327 326 326 326 322 319 317 315 314 314 310 309 306 305 306 304 304 304 306 309 312 313 315 318 320 324 325 326 327 325 323 321 319
324 329 331 330 329 331 331 331 330 329 329 328 328 327 325 323 323 320 316 313 310 308 303 302 302 301 303 302 303 308 312 314 316 319 323 322 320 321 321 321 319 317 315
321 321 321 321 323 326 328 328 329 329 329 328 326 325 324 322 321 320 316 313 309 308 305 301 299 298 301 302 305 305 307 311 313 315 315 314 313 314 313 312 310 309 308
314 314 316 317 318 319 320 323 324 326 326 325 324 322 317 313 313 313 313 313 311 305 305 302 297 300 300 300 301 301 301 307 308 308 308 308 308 307 307 306 305 304 304
311 312 313 314 314 314 314 315 317 315 315 312 312 310 308 308 308 309 308 308 308 308 303 299 296 298 299 299 300 298 299 300 303 305 304 304 304 304 303 302 302 301 302
304 306 307 308 309 309 310 311 311 311 310 308 309 307 306 306 304 303 302 303 304 305 301 293 295 296 296 297 298 298 298 297 296 299 300 300 299 300 300 300 300 299 299
301 301 302 304 304 304 306 308 307 308 307 306 305 304 302 302 300 301 302 301 302 301 300 294 293 293 295 295 296 294 294 296 294 297 298 298 298 297 297 297 296 296 296
300 299 300 299 300 300 301 303 306 306 306 305 304 302 300 301 299 299 296 294 295 296 297 293 290 293 293 294 293 292 290 288 290 292 292 292 293 293 293 293 293 293 294
297 297 297 297 297 298 298 299 302 302 300 300 300 300 300 299 297 294 293 292 293 292 292 292 292 292 291 290 290 288 286 286 285 289 290 290 290 291 291 292 292 291 292
296 296 296 296 296 296 296 296 297 296 295 294 295 295 293 295 298 295 293 290 292 291 291 289 291 289 287 287 285 284 282 282 282 282 282 283 283 284 285 291 290 290 290
295 295 295 295 294 296 297 298 297 293 293 291 289 290 293 294 295 296 296 296 294 290 288 291 284 285 285 283 282 281 280 277 277 282 281 281 283 282 284 285 291 290 290
293 292 292 293 294 295 296 297 296 292 291 289 289 289 291 293 291 289 293 293 293 294 292 288 286 282 281 282 282 279 280 277 277 281 281 279 282 281 283 287 290 289 290
293 292 288 290 293 294 296 296 294 290 290 290 290 289 287 286 288 286 285 283 283 285 286 286 282 282 283 283 283 281 281 280 281 281 281 276 281 281 282 283 289 289 290
289 288 290 290 291 292 295 294 291 288 287 286 286 286 285 284 290 290 285 283 283 283 290 291 290 290 290 290 287 282 278 277 277 279 280 279 279 279 281 281 282 288 288
288 289 289 291 292 290 294 293 290 286 284 283 283 285 290 286 289 290 283 282 281 281 282 281 281 285 285 286 288 281 279 272 274 275 279 275 276 276 273 280 281 282 282

GFSMA_sfc_thetae_099.txt.gz
Theta_e
333 335 334 334 333 333 333 331 331 330 327 326 324 319 316 317 320 327 327 330 337 341 340 337 333 332 330 328 327 326 325 324 325 324 324 324 324 323 324 324 325 324 324
325 328 334 334 332 332 332 331 329 326 326 325 324 320 317 317 319 320 325 327 333 337 339 340 339 335 333 331 328 326 325 324 324 323 322 322 322 321 321 321 322 323 324
325 325 331 330 330 331 331 328 325 323 321 321 321 321 318 316 319 322 323 324 328 330 335 338 339 339 337 335 333 330 327 326 324 323 322 321 320 319 319 319 320 320 321
327 326 326 327 327 326 324 324 323 322 320 319 318 319 319 317 318 320 322 323 324 325 329 335 339 339 338 337 336 335 332 328 326 325 323 321 320 319 318 318 318 318 320
330 327 327 325 325 324 324 324 322 322 320 319 321 321 321 321 320 323 323 323 323 324 324 328 331 334 336 337 336 336 335 332 329 328 326 324 321 320 318 317 316 317 319
331 329 329 328 324 324 324 324 323 322 321 321 324 322 321 322 323 323 324 325 325 325 324 325 325 326 329 334 335 335 335 333 332 330 329 327 324 321 320 319 317 317 317
332 331 330 329 325 324 324 325 325 323 322 322 321 320 322 323 322 324 324 324 324 326 322 321 322 321 321 329 331 332 333 333 332 331 331 329 327 324 322 321 319 319 317
334 332 331 330 330 326 325 325 324 323 323 323 320 318 315 318 321 322 323 323 319 320 315 314 314 314 316 317 319 321 324 326 327 329 329 330 329 326 324 323 321 320 319
336 335 333 332 331 331 328 327 326 324 321 322 322 319 312 312 314 318 317 316 316 313 310 311 312 314 312 311 312 313 318 321 324 325 327 328 328 329 327 326 323 322 320
334 335 334 333 332 332 331 329 330 327 324 321 323 324 321 319 315 314 317 314 313 310 309 309 309 309 309 307 309 312 315 319 322 324 325 325 326 328 330 328 325 323 320
333 333 332 332 331 331 331 330 330 328 327 325 324 322 320 320 320 316 313 313 310 307 306 306 305 305 306 304 304 308 313 316 319 320 322 324 325 328 328 330 328 325 323
331 332 331 330 329 329 329 329 330 329 329 328 326 324 320 318 316 315 314 314 313 308 305 305 304 302 302 302 307 309 312 314 315 318 322 323 325 326 326 328 327 325 322
322 329 330 329 328 329 329 329 328 327 327 325 325 325 326 323 321 319 316 314 311 304 302 300 299 299 302 302 304 308 312 317 319 321 323 322 323 323 323 324 323 321 319
320 324 323 324 325 327 328 328 326 327 326 325 325 325 324 323 322 320 317 313 309 307 305 300 297 298 301 303 305 305 307 311 313 315 316 316 317 316 315 315 314 312 311
314 313 315 316 316 317 318 319 320 321 322 323 323 322 320 318 317 317 316 315 312 305 305 299 297 300 300 300 302 301 302 308 309 309 310 309 309 308 308 308 307 306 306
310 311 312 312 312 312 312 313 313 313 315 314 314 316 312 310 311 311 310 311 311 310 305 300 296 298 299 298 301 299 300 301 305 306 305 304 304 304 304 304 303 303 303
305 305 306 307 307 307 308 308 309 310 311 310 310 310 308 308 306 304 305 305 306 307 303 294 295 297 297 297 298 298 298 297 298 301 302 301 300 301 301 301 301 301 301
301 301 302 303 303 303 304 306 305 306 308 308 308 306 304 304 303 303 303 302 300 303 301 294 293 294 295 296 296 294 294 296 294 298 300 300 299 299 298 298 297 297 296
299 300 299 298 298 299 299 300 303 307 305 306 305 303 302 302 300 301 300 298 298 298 299 294 291 294 293 294 294 294 292 289 290 294 294 294 294 294 294 294 294 294 295
297 296 296 296 296 297 297 297 299 301 301 301 302 301 301 300 299 298 297 296 293 293 294 293 292 291 292 293 292 288 286 286 285 288 290 289 290 291 292 292 292 292 292
296 295 295 295 294 294 296 295 296 296 296 296 295 295 296 298 299 297 295 291 291 290 289 291 291 290 289 286 286 285 284 282 282 282 282 282 283 282 284 291 290 291 291
293 294 293 294 293 295 297 298 297 293 292 291 290 291 293 296 297 299 297 296 293 290 287 285 287 282 284 284 283 282 281 277 278 282 280 280 282 281 282 283 292 291 291
291 290 290 291 291 292 297 297 297 294 292 290 289 289 290 292 292 292 295 295 295 296 293 289 287 285 282 282 282 280 279 278 277 281 280 279 280 280 282 285 291 290 290
289 290 289 288 289 293 297 297 295 291 291 291 291 290 290 287 287 286 284 283 284 285 285 285 284 282 283 283 283 282 281 280 280 281 280 275 279 280 281 282 290 289 290
290 290 290 287 288 291 296 295 292 289 289 288 289 288 288 286 291 291 283 282 282 284 290 291 290 290 290 289 286 282 279 278 277 279 280 278 277 278 279 280 282 288 289
289 289 287 288 291 291 295 294 290 287 285 285 285 286 290 286 291 291 283 282 281 281 282 282 283 286 286 287 288 282 280 273 274 275 279 275 275 276 272 279 280 281 281

GFSMA_sfc_thetae_102.txt.gz
Theta_e
334 332 331 330 330 329 329 327 327 327 326 324 321 316 315 317 323 326 327 331 337 341 339 336 333 332 330 329 327 326 325 326 325 325 324 324 324 324 324 324 324 325 324
335 333 331 331 330 330 330 329 329 329 327 325 323 320 315 315 318 324 324 326 333 338 341 340 338 335 333 331 329 327 325 326 324 324 323 323 322 322 322 322 322 323 323
331 331 332 331 331 330 331 330 328 323 322 321 322 322 318 315 316 319 323 324 327 330 336 339 339 339 337 335 333 330 328 326 325 324 322 321 321 320 319 320 320 320 321
325 324 330 330 330 329 328 326 322 320 319 318 317 317 318 316 315 317 321 322 323 325 329 335 339 339 338 338 337 336 332 329 327 326 324 322 321 320 318 318 318 319 320
326 325 325 328 326 325 323 323 321 321 319 318 319 319 319 318 317 319 319 321 322 323 322 327 331 334 337 337 336 336 335 333 330 328 327 325 323 321 320 319 318 318 319
327 326 326 324 323 323 322 322 321 321 320 320 322 321 320 321 322 321 322 323 323 323 324 323 324 325 328 333 334 335 335 333 333 331 329 328 325 322 321 321 319 319 318
329 328 327 327 322 322 323 323 323 322 321 321 320 319 320 321 320 321 322 322 323 324 324 322 321 320 320 328 329 330 331 331 331 332 332 330 329 326 323 322 321 320 319
332 329 328 327 326 323 323 323 323 322 323 322 319 316 313 317 319 321 321 322 320 319 316 315 313 315 315 316 317 321 323 325 327 328 330 330 330 329 326 324 323 322 320
335 333 330 330 330 327 325 325 325 324 321 322 321 318 311 311 314 316 315 315 315 313 312 312 311 312 312 309 310 312 317 321 323 325 326 328 329 329 329 327 326 324 322
334 333 332 332 332 331 329 328 329 327 324 321 323 324 321 320 316 314 317 313 312 311 310 309 307 307 306 305 309 312 314 318 321 323 324 325 327 328 329 330 328 326 324
332 332 332 331 331 331 330 330 329 328 327 324 323 321 320 320 320 315 313 311 309 308 307 307 307 306 304 304 305 308 313 315 318 321 322 323 325 327 328 329 330 327 324
330 330 331 330 329 329 328 328 328 327 327 326 326 325 322 318 317 316 313 314 312 307 305 305 304 303 301 303 307 311 315 316 316 319 323 322 323 326 326 328 329 328 325
322 327 329 328 326 328 328 327 327 326 326 325 325 325 325 323 320 318 316 313 311 305 302 301 301 301 302 302 304 309 313 317 319 322 323 324 323 324 324 326 327 325 322
318 321 324 322 322 322 324 324 323 325 326 324 323 325 324 324 321 319 317 313 309 306 302 300 297 299 300 302 305 306 308 312 314 316 317 316 315 316 317 318 318 317 315
315 316 317 317 317 318 318 318 318 317 318 320 322 321 320 319 318 318 318 316 315 306 305 298 297 300 301 301 302 302 303 308 310 310 310 310 309 309 310 310 310 309 308
310 311 311 311 312 313 312 312 312 312 310 312 314 316 316 314 315 313 314 313 312 311 305 299 297 298 299 299 301 300 301 302 306 307 306 305 305 305 305 306 306 305 305
307 306 308 308 307 307 306 307 308 309 309 309 310 312 312 310 309 308 307 307 308 309 305 294 296 297 297 298 298 298 298 297 299 302 303 302 302 302 302 303 303 303 303
300 302 301 302 302 302 302 303 305 304 305 309 309 306 308 306 306 305 305 305 304 304 302 294 293 294 295 297 297 295 295 295 296 299 301 301 301 300 300 300 299 298 298
298 299 299 298 298 298 298 299 300 303 305 306 307 305 305 304 302 302 302 301 301 300 299 295 292 294 294 295 294 293 291 289 291 296 296 296 296 296 296 296 296 296 296
295 295 296 296 296 295 296 296 297 300 301 302 302 302 302 302 301 300 299 298 297 297 297 294 292 292 292 293 293 289 287 287 284 287 289 289 291 292 293 293 293 292 292
294 294 294 294 293 294 295 294 294 295 295 295 295 296 297 299 300 299 297 295 295 294 293 293 291 291 289 289 289 288 285 282 281 282 282 282 283 282 284 291 291 291 291
292 293 292 293 292 294 298 298 297 293 292 291 290 293 294 297 298 300 298 297 295 290 288 290 289 288 288 287 286 284 281 278 279 282 281 280 281 281 282 283 291 292 291
291 290 289 290 290 291 297 298 298 294 293 291 289 290 291 293 294 294 296 296 297 298 294 290 288 288 285 284 282 280 281 279 279 281 280 279 281 280 282 285 292 290 290
288 288 290 289 288 291 297 298 296 292 292 292 291 291 291 289 289 288 285 284 284 284 286 289 288 286 284 284 284 283 282 280 280 281 280 277 280 280 281 281 290 289 289
288 290 290 289 287 288 295 296 293 290 289 289 290 290 289 288 292 290 284 283 283 284 290 291 289 290 290 290 286 283 281 281 278 279 280 279 278 278 279 280 281 289 290
290 289 288 287 289 288 295 296 292 288 287 286 286 287 292 288 292 291 283 281 282 283 283 284 284 286 287 288 289 283 282 278 277 276 279 276 276 276 272 278 280 280 281

GFSMA_sfc_thetae_105.txt.gz
Theta_e
329 328 327 326 326 326 325 324 323 322 322 323 321 318 314 318 322 325 325 330 337 340 337 335 333 331 330 329 327 326 326 326 326 325 325 324 324 324 324 324 325 325 325
332 330 328 328 327 327 328 327 326 326 326 325 323 319 314 314 318 323 324 325 333 338 341 339 337 335 333 331 329 327 326 326 325 324 324 323 322 322 322 323 323 324 324
333 332 329 328 328 328 328 328 327 325 323 323 321 321 319 314 314 317 322 323 326 330 336 339 339 338 336 335 333 330 328 327 326 325 323 322 321 320 320 320 321 321 323
332 330 329 328 329 329 328 327 325 322 319 317 316 317 317 317 314 314 319 322 323 325 328 335 338 338 338 338 337 335 332 329 328 326 325 323 321 320 319 319 319 320 321
327 328 329 329 329 327 326 325 322 320 318 318 318 317 318 318 316 317 316 318 320 322 322 326 329 332 335 337 336 336 334 333 330 329 328 326 323 321 321 320 319 320 320
325 325 324 326 327 324 323 321 320 320 319 319 320 320 320 320 321 320 319 321 321 321 322 323 322 324 327 331 333 334 334 332 333 332 330 328 326 324 322 322 320 320 319
326 325 325 324 323 322 322 321 321 320 320 320 319 319 320 321 319 319 320 321 322 323 323 324 324 322 321 327 328 329 330 330 331 332 332 331 330 327 325 323 322 322 320
328 326 326 325 322 321 321 321 322 321 322 321 319 316 313 316 318 317 319 320 317 316 317 316 315 318 317 313 315 320 322 325 326 327 329 331 331 330 328 326 325 323 322
332 331 330 329 326 323 322 323 323 323 321 322 321 319 312 311 313 315 313 315 315 314 314 311 313 313 311 309 309 311 317 321 324 326 326 327 328 329 330 329 327 325 324
333 333 331 331 330 329 327 326 327 326 324 321 322 324 322 320 315 313 315 311 310 310 310 311 310 308 308 307 308 311 314 317 321 324 325 325 326 327 329 329 329 328 326
331 332 332 330 330 330 330 330 328 327 326 323 322 321 321 320 320 316 313 311 309 308 308 308 308 306 305 306 306 309 314 315 318 321 323 324 325 326 327 328 329 329 327
329 330 330 329 329 329 329 329 329 328 327 326 325 323 320 318 317 317 315 313 310 306 306 305 305 304 303 303 309 311 315 320 317 319 323 323 323 325 327 328 329 329 328
323 326 327 327 326 325 324 324 322 320 323 324 324 324 324 322 321 319 317 314 311 305 303 302 302 302 303 303 305 309 313 317 321 322 325 324 322 323 325 327 327 328 328
319 321 321 321 321 321 322 320 319 320 321 322 322 321 322 322 322 321 319 315 309 306 302 303 299 300 301 303 305 308 308 312 315 316 317 316 315 316 317 319 321 320 318
316 317 318 318 317 317 317 317 317 317 317 319 320 321 321 322 322 321 317 314 313 306 305 299 298 299 300 302 303 303 304 309 310 311 311 311 310 309 311 312 312 312 310
311 312 311 311 311 311 311 310 310 310 310 310 310 311 312 315 316 316 316 316 313 313 308 300 298 298 300 301 302 301 302 305 307 307 307 306 306 306 306 307 307 307 307
307 307 307 307 307 306 307 306 306 306 306 306 310 310 311 312 311 310 310 310 310 310 307 295 296 297 298 298 299 299 299 298 300 304 304 304 303 303 304 305 305 305 305
302 301 302 302 301 301 301 300 301 303 303 305 308 308 308 307 307 307 306 307 306 306 303 295 294 295 296 297 297 296 296 296 297 301 302 302 303 302 302 301 301 300 300
298 299 298 297 297 297 297 297 297 299 301 302 303 306 305 305 304 303 302 302 302 301 300 296 292 294 294 296 294 294 292 290 293 299 299 299 299 298 298 298 298 297 298
297 295 295 295 294 294 295 295 295 296 297 298 298 298 299 301 301 301 300 300 299 298 298 295 293 292 293 294 293 290 288 287 286 288 290 290 291 294 295 294 294 293 293
294 294 293 293 292 293 295 294 293 293 293 293 293 293 295 297 300 301 298 297 297 296 296 294 292 291 289 290 290 289 286 284 283 282 282 283 284 283 285 291 291 292 291
292 292 291 292 291 294 298 299 297 292 291 290 290 290 292 295 297 300 300 299 297 294 292 291 290 289 289 289 287 287 284 283 281 282 281 281 282 282 283 283 291 292 292
290 289 288 289 289 290 297 298 298 291 290 292 291 291 292 293 294 294 295 295 296 298 296 291 290 290 288 288 286 284 283 282 280 281 281 279 281 281 282 285 292 291 290
288 287 290 290 287 290 296 297 297 289 289 291 292 292 291 291 290 290 287 287 286 286 287 290 290 290 288 286 287 284 283 281 281 281 281 278 280 280 281 282 291 290 290
287 287 290 290 287 287 294 297 295 288 287 288 290 290 290 289 291 291 286 285 285 285 291 291 291 291 291 291 287 284 281 281 278 280 281 280 279 279 280 281 282 290 290
287 289 289 289 289 287 293 296 294 289 286 287 287 287 292 290 292 292 284 284 283 283 283 285 283 286 287 289 289 283 282 279 277 277 280 278 278 277 275 279 280 280 281

GFSMA_sfc_thetae_108.txt.gz
Theta_e
325 325 324 324 323 323 322 321 320 320 320 321 320 318 313 316 321 324 324 329 336 339 336 335 333 332 331 329 328 328 327 326 325 325 324 324 324 325 325 326 326 325 326
327 326 324 324 324 325 325 323 322 322 324 324 323 320 314 313 317 321 323 324 332 337 340 338 337 335 333 331 329 327 327 326 325 324 324 323 323 323 323 324 324 324 325
330 328 326 326 326 326 326 325 325 325 323 323 321 321 320 314 313 317 322 322 324 329 335 339 339 338 337 336 334 331 329 328 327 325 324 322 321 321 321 321 322 323 323
332 329 328 327 328 327 327 326 324 322 320 318 317 317 317 317 314 313 316 320 322 324 327 334 337 338 337 337 335 334 333 330 329 328 326 324 322 321 320 320 320 322 322
332 331 329 328 328 327 326 325 323 321 318 317 317 317 317 317 317 315 315 317 319 321 322 325 329 331 334 335 335 335 333 334 331 330 328 326 324 322 321 321 319 321 320
327 329 328 328 328 326 325 323 322 320 319 319 319 319 319 319 319 318 318 318 319 320 320 322 323 324 328 330 331 333 333 332 332 332 331 329 327 325 323 323 321 321 320
325 326 326 326 326 326 325 323 320 319 318 318 318 319 319 321 318 318 318 319 320 322 321 323 323 322 322 324 327 328 329 329 329 330 331 331 330 328 327 324 323 323 322
325 325 324 323 323 322 322 321 320 319 320 320 318 317 315 316 317 315 316 318 315 316 318 320 321 317 316 314 315 319 322 324 326 326 327 329 330 330 330 328 326 325 324
326 326 325 325 322 322 321 320 320 321 320 321 321 319 313 312 315 316 313 315 316 314 313 314 315 314 313 310 311 312 316 320 324 325 326 327 327 328 329 330 329 327 326
330 329 330 329 327 325 325 324 326 325 324 321 323 323 322 320 315 313 314 311 311 312 312 312 311 312 310 308 309 312 314 315 320 323 324 325 325 326 328 328 330 329 327
332 331 330 329 328 329 329 329 327 326 325 324 323 321 321 321 321 317 313 313 311 310 310 310 310 308 307 306 306 312 317 318 318 320 323 324 324 325 326 327 328 329 329
328 330 331 331 330 330 329 329 328 327 326 325 323 323 320 317 317 317 315 314 312 309 308 307 307 306 307 305 309 313 317 320 318 318 322 323 324 324 325 327 329 328 329
326 327 327 326 325 326 326 325 324 323 322 323 324 322 323 322 321 319 316 314 312 307 304 304 304 303 304 304 306 309 314 319 322 323 325 324 321 321 323 326 328 328 328
322 324 323 322 322 322 321 319 318 319 321 320 318 319 319 319 320 318 316 314 310 307 302 304 300 301 302 303 305 309 310 314 316 317 318 317 315 315 316 319 320 320 322
317 320 319 318 317 317 316 316 316 315 317 319 319 319 319 319 320 320 320 319 314 310 306 303 299 300 301 303 305 304 306 311 311 311 311 311 311 310 311 312 314 313 313
312 313 312 312 311 310 309 309 308 308 307 307 308 309 310 310 312 312 315 316 316 314 310 302 299 299 301 301 304 302 304 307 309 309 308 307 308 307 307 308 309 309 309
307 307 307 306 306 305 304 305 305 305 307 306 307 310 310 310 307 308 309 310 310 311 309 296 297 298 299 299 300 300 300 300 302 306 305 305 305 305 305 306 306 307 307
302 302 302 301 300 299 298 299 299 300 301 301 303 306 307 307 305 306 306 306 306 307 305 298 294 295 296 298 298 297 296 297 299 303 303 304 304 304 304 303 303 302 302
298 298 298 297 296 296 295 295 295 296 297 298 299 299 301 301 300 302 303 302 302 302 301 297 293 295 295 297 295 294 293 293 295 302 302 302 301 300 300 299 299 300 299
296 295 295 295 294 293 294 293 294 293 294 294 295 294 294 295 296 300 300 300 300 299 299 296 294 293 293 295 294 290 288 288 287 289 292 292 294 296 297 297 296 296 296
293 294 293 292 292 293 295 293 293 291 291 291 291 292 292 295 299 300 299 297 297 297 297 295 293 292 291 291 291 290 287 285 284 285 284 285 284 284 287 292 293 292 293
292 292 291 291 291 293 299 299 295 291 290 290 289 290 290 294 295 299 300 300 298 295 293 292 291 290 290 290 289 288 285 283 283 284 283 282 283 282 284 284 291 292 292
290 289 288 289 288 289 298 298 297 289 289 288 288 288 291 293 293 293 294 294 295 296 298 293 291 291 290 289 288 286 285 284 284 282 281 280 281 281 283 285 292 293 292
288 289 290 290 287 289 295 297 296 288 287 287 288 288 290 291 291 291 289 288 287 287 288 291 291 292 292 290 290 288 286 283 282 282 281 279 281 281 282 283 291 292 291
287 286 289 290 289 286 293 296 293 289 287 285 288 290 290 290 292 293 287 286 285 286 290 292 292 292 292 292 288 286 283 283 281 280 281 281 280 280 281 282 283 290 290
287 287 289 290 290 287 292 295 295 290 288 287 285 287 290 292 293 293 285 284 284 284 285 285 285 285 286 289 290 283 283 281 278 277 281 280 279 279 278 280 281 281 282

GFSMA_sfc_thetae_111.txt.gz
Theta_e
335 336 335 335 335 334 333 330 329 328 328 329 329 328 324 329 331 333 335 329 336 338 336 334 333 332 331 330 329 328 327 326 325 325 325 325 325 325 326 326 326 326 326
334 333 332 332 331 331 330 328 327 328 331 333 332 328 324 324 327 331 333 333 332 337 339 338 337 335 333 331 330 328 328 326 326 325 324 324 323 324 324 324 325 325 326
333 332 330 329 330 331 331 331 331 333 333 333 333 331 330 326 323 324 330 332 332 329 335 339 339 338 337 336 334 332 330 329 328 327 325 323 323 322 323 322 323 324 324
333 331 330 330 332 333 334 333 332 332 332 330 330 330 329 328 326 322 324 328 330 331 331 334 336 337 337 337 336 334 334 332 330 328 327 325 323 322 322 321 322 322 323
334 333 332 333 333 333 333 332 332 331 330 329 327 327 326 325 325 323 323 324 327 329 331 328 328 331 334 335 335 333 334 335 333 331 329 328 325 323 323 322 321 322 322
336 336 334 333 333 332 332 331 331 329 329 327 323 324 326 327 327 326 325 323 325 327 328 330 328 328 328 332 332 333 332 332 332 333 332 331 329 326 324 324 323 322 322
334 336 335 334 333 332 332 331 329 328 326 326 325 326 326 326 326 323 325 328 328 329 330 329 330 331 331 329 330 330 330 330 329 329 331 332 332 330 328 325 325 324 323
330 331 332 331 332 331 330 329 328 325 325 325 324 321 320 321 320 319 321 325 325 324 324 327 327 325 321 323 323 321 323 325 326 326 326 327 330 331 331 330 327 326 325
329 329 329 330 329 329 329 328 327 327 325 325 326 324 317 315 318 318 316 317 319 319 319 318 320 318 318 316 315 315 317 321 324 325 325 326 326 327 330 331 330 329 327
329 330 330 330 328 329 328 327 327 326 325 324 326 326 327 326 317 317 316 314 314 314 314 314 313 313 312 312 311 312 314 316 320 323 324 324 325 326 327 328 330 330 329
331 331 331 332 330 330 328 328 326 326 328 327 327 324 325 324 322 318 314 316 314 313 314 312 312 310 309 309 310 313 317 320 320 321 322 323 324 324 325 327 328 329 329
331 332 331 332 332 331 330 330 330 329 329 328 328 328 323 319 319 318 316 316 316 314 311 311 310 309 308 309 312 313 316 321 320 319 321 323 324 325 325 326 327 329 329
329 330 331 331 331 331 331 330 330 328 329 326 326 326 327 325 322 320 317 315 314 316 308 308 309 310 308 310 311 311 314 320 321 324 326 324 321 321 322 323 326 329 329
328 329 328 328 328 329 328 327 325 325 325 325 323 323 323 324 324 323 320 318 314 315 310 310 307 308 308 308 309 311 315 315 319 320 319 318 316 315 317 318 320 325 327
325 326 326 323 324 323 322 322 321 321 322 321 320 319 318 319 319 320 320 319 315 309 310 311 308 305 306 306 307 309 308 313 313 313 313 312 312 312 312 313 315 316 316
321 320 318 317 315 315 316 315 314 313 313 312 313 313 312 313 314 316 317 316 315 312 308 311 307 304 304 304 306 305 306 308 310 310 310 309 309 309 309 310 311 312 313
314 314 313 312 310 308 309 310 310 310 310 310 312 312 310 312 312 313 313 313 313 313 309 301 301 301 300 302 302 302 302 303 306 307 307 307 306 307 308 308 308 309 310
309 309 307 305 304 303 304 304 304 305 306 306 307 309 308 308 309 309 310 309 309 308 307 304 297 298 299 301 301 299 297 299 301 304 305 305 306 306 306 305 305 305 305
304 304 303 301 300 300 300 300 301 301 302 303 303 303 302 303 304 305 305 306 306 304 303 299 295 296 296 298 297 296 295 295 298 303 304 304 304 303 302 301 301 302 302
300 299 299 298 298 298 298 298 298 299 299 299 299 299 299 299 300 302 302 302 302 302 301 299 296 294 295 297 296 292 290 291 289 291 295 297 298 300 300 300 299 299 298
297 297 296 296 297 298 297 297 297 297 297 296 296 296 297 297 298 301 301 301 301 300 299 297 294 293 292 292 292 292 289 287 286 288 289 289 289 290 293 296 295 294 295
295 296 295 296 296 298 300 299 296 295 295 294 294 295 295 295 297 298 300 300 300 299 297 295 294 292 292 292 291 290 286 285 284 288 287 285 286 287 289 292 292 293 293
294 293 293 294 294 297 299 299 296 294 293 293 292 293 294 295 295 295 295 294 293 295 296 297 294 294 293 292 291 289 287 288 288 285 286 285 286 287 288 288 292 293 293
292 292 292 292 292 295 298 298 296 293 292 291 292 292 293 293 294 294 293 291 289 289 290 290 293 294 294 293 292 291 290 285 284 283 285 285 286 285 287 289 291 293 292
290 290 292 292 291 292 295 297 295 292 291 291 291 292 292 292 293 294 290 289 287 287 290 294 293 293 293 294 291 288 286 286 283 283 284 286 284 285 286 286 289 293 291
290 292 292 292 292 291 293 296 296 293 291 291 290 290 290 291 294 294 289 288 286 286 286 286 286 287 288 292 290 287 288 287 284 283 285 286 283 284 283 285 286 288 290

GFSMA_sfc_thetae_117.txt.gz
Theta_e
338 339 338 339 337 337 335 334 333 333 332 332 332 331 331 333 333 334 335 333 337 338 336 335 334 333 332 331 330 329 328 326 325 325 325 325 326 327 327 327 327 327 327
338 339 337 340 338 337 335 332 331 331 331 331 330 329 328 330 330 332 334 333 335 338 338 337 336 335 334 333 331 330 329 328 327 325 324 324 324 324 325 325 325 326 326
338 339 338 338 336 336 332 331 329 330 330 331 331 330 329 329 328 329 331 334 333 332 337 340 340 338 337 336 335 333 332 331 330 328 326 324 323 324 324 323 324 324 325
338 337 336 335 334 332 330 329 328 329 332 334 334 334 333 334 332 330 330 330 333 333 332 337 339 339 339 339 338 338 336 334 333 331 329 327 325 324 324 323 323 323 324
335 334 333 332 331 330 329 329 329 331 333 333 333 333 333 332 331 330 329 330 331 332 334 331 332 334 336 337 338 338 337 337 336 334 332 330 328 325 325 325 323 323 323
333 332 331 329 330 331 332 334 333 335 334 333 330 328 331 333 333 332 329 329 330 331 332 334 332 330 329 332 335 336 336 334 336 335 335 333 332 329 327 325 325 324 324
331 330 330 331 333 333 333 333 334 333 333 334 330 330 330 332 331 331 332 331 331 332 332 333 333 334 329 330 331 332 332 332 332 331 331 332 333 332 331 329 327 326 325
332 332 334 334 334 334 333 334 334 333 334 335 328 329 324 326 329 329 329 328 329 328 327 327 329 331 332 328 322 321 322 326 329 330 330 329 329 330 331 332 330 329 327
338 337 337 335 336 336 335 336 335 334 331 334 331 328 321 320 325 328 326 324 324 325 324 322 324 323 321 318 318 317 317 320 323 328 330 329 329 329 329 330 331 330 329
338 339 339 338 338 337 336 335 336 337 335 328 329 330 331 329 321 319 325 324 323 322 322 321 319 318 317 315 314 313 315 317 321 325 327 328 328 328 328 328 328 329 330
335 336 335 334 334 336 337 336 334 330 329 329 330 330 328 328 327 322 318 320 321 323 322 318 317 314 313 314 314 314 316 318 321 324 326 328 327 327 327 327 327 328 328
333 333 334 334 334 335 333 331 328 330 330 331 332 330 328 325 323 321 318 320 320 323 323 320 318 317 317 316 313 312 314 316 321 323 325 325 325 325 324 324 325 325 326
330 331 331 332 332 332 332 330 329 330 331 331 330 329 330 328 328 323 320 318 318 321 319 318 319 320 316 314 312 311 313 316 319 322 323 324 323 321 320 320 321 322 324
332 332 331 332 329 330 330 330 329 330 330 329 328 328 329 327 326 325 321 318 315 317 318 318 319 317 315 315 314 311 313 315 317 322 325 322 318 317 317 317 318 319 321
330 331 331 330 330 330 329 330 329 327 328 330 328 325 325 323 323 323 322 321 317 310 310 315 317 315 315 314 313 313 313 313 314 315 315 314 314 313 313 314 315 316 317
327 328 328 329 329 329 328 329 326 326 324 324 323 323 321 319 318 319 318 316 316 312 308 314 316 314 312 310 311 311 311 309 312 312 311 311 311 310 310 311 313 314 315
326 326 326 325 325 324 325 324 322 322 321 317 317 317 315 316 315 315 316 314 312 312 308 310 311 310 309 309 307 308 307 307 308 309 309 308 308 308 309 310 311 312 314
325 325 323 321 320 321 321 319 317 316 316 314 314 314 313 311 312 313 313 312 309 310 307 304 307 305 305 306 306 303 302 302 304 306 307 306 307 307 308 307 307 308 311
320 319 319 317 316 315 315 315 313 313 312 312 311 311 311 310 310 310 309 307 307 306 306 304 302 301 301 301 299 298 297 298 299 302 305 306 307 306 305 305 305 305 304
316 315 314 311 310 309 309 308 308 308 308 308 308 308 307 306 306 307 306 306 304 304 304 303 302 300 299 300 299 295 293 294 293 296 300 302 303 303 303 303 303 301 302
312 309 307 306 305 305 304 305 305 305 305 303 303 303 303 299 299 300 302 303 302 300 300 299 297 298 296 295 294 294 291 290 290 291 290 292 293 294 298 300 298 298 299
304 304 303 303 303 301 302 304 304 303 302 302 300 300 300 297 298 298 300 299 299 298 297 297 296 295 295 295 294 291 288 287 287 290 289 288 289 289 291 294 296 296 297
303 302 302 302 301 300 301 301 302 301 300 299 298 298 299 298 297 299 298 297 296 295 295 294 293 295 295 296 293 289 288 288 288 287 288 287 287 286 289 292 294 295 294
301 300 300 302 301 300 300 299 299 299 298 298 298 298 298 298 298 297 297 296 296 295 294 294 293 292 292 294 294 292 291 288 285 285 287 285 286 286 287 288 293 294 294
299 298 299 299 300 299 299 298 298 298 297 296 297 297 297 297 296 295 295 291 293 294 292 293 292 292 294 296 296 290 286 286 284 284 284 285 285 285 286 287 289 294 295
296 298 297 299 299 298 299 298 298 298 296 296 295 296 294 295 295 295 294 293 289 291 289 289 288 288 289 289 290 287 287 286 285 284 285 285 284 284 283 286 287 289 290

GFSMA_sfc_thetae_120.txt.gz
Theta_e
337 336 334 332 331 330 330 328 327 327 326 325 325 325 326 326 326 330 330 332 336 338 336 335 334 334 333 332 331 329 328 327 326 326 326 326 327 328 328 328 327 327 327
336 336 333 332 330 331 329 327 325 325 324 324 324 324 322 324 325 327 329 330 334 337 338 337 336 335 334 333 332 330 329 328 327 326 325 324 325 325 325 326 326 326 326
335 333 334 334 332 332 327 324 323 323 322 325 323 322 321 320 322 323 328 328 332 332 337 339 339 338 337 336 335 333 332 331 330 328 327 325 324 324 324 324 325 325 324
336 333 333 335 332 327 325 323 321 321 324 326 326 325 326 327 324 321 323 325 329 330 332 338 340 340 340 339 339 338 336 335 333 332 330 328 325 324 324 323 323 323 323
333 334 333 330 327 325 323 322 321 322 325 327 327 326 326 324 324 326 323 322 324 326 327 330 332 334 336 337 338 338 337 336 335 335 334 332 329 327 325 324 323 323 323
331 328 327 326 325 324 324 325 324 326 328 327 328 325 324 325 325 323 323 324 323 324 325 329 329 328 330 333 333 335 335 334 334 333 333 333 332 331 329 327 326 325 325
329 326 325 324 325 326 326 327 327 326 326 327 324 322 323 325 324 324 325 325 325 327 327 328 330 329 327 330 331 331 332 332 331 331 331 331 331 332 331 331 329 327 326
328 324 324 325 327 328 328 327 328 326 327 328 322 320 317 320 322 323 323 323 322 323 323 324 325 327 326 323 322 323 325 326 328 330 331 330 329 329 330 330 331 330 329
326 327 328 329 328 329 327 328 329 328 325 326 325 322 315 313 319 321 320 319 319 319 318 318 322 321 320 319 319 318 319 322 325 326 327 329 329 328 328 329 329 330 330
329 332 332 331 331 331 330 329 331 329 327 323 326 327 324 322 315 314 318 316 317 317 316 316 315 318 317 316 315 315 317 319 323 326 328 328 328 327 328 328 329 329 328
333 333 333 332 332 331 331 330 326 326 326 325 324 324 322 321 323 317 312 313 315 316 316 314 313 312 311 311 310 313 315 319 323 326 328 329 329 327 326 327 326 326 327
331 331 330 331 331 330 328 327 327 327 326 326 326 324 322 318 319 317 315 314 313 315 316 315 313 311 311 310 312 313 314 316 319 323 327 328 327 326 325 324 324 324 324
327 327 329 330 329 329 328 327 326 326 325 325 326 325 325 324 325 321 318 315 314 317 314 313 313 313 313 310 309 310 312 315 317 321 325 327 326 323 321 321 321 321 322
327 328 328 328 328 328 328 327 325 326 326 325 325 326 326 323 323 321 317 312 309 310 312 311 311 310 310 309 310 311 309 315 316 322 324 324 319 318 317 317 318 318 319
328 327 328 327 326 326 327 326 325 325 325 324 325 325 322 320 319 318 316 316 312 305 303 307 307 308 309 308 309 311 311 313 314 315 315 315 314 313 314 314 314 315 316
327 327 327 327 325 326 326 326 325 324 323 322 321 321 319 314 314 314 313 313 312 308 303 306 306 306 306 307 307 309 309 310 312 313 312 311 311 310 310 311 312 314 315
326 326 327 327 327 326 326 324 323 322 321 318 317 317 313 312 310 310 310 309 310 310 306 304 305 306 304 305 306 306 306 306 308 310 310 309 308 309 309 310 311 312 314
326 324 324 323 323 322 322 320 318 319 316 313 311 310 309 309 307 307 307 305 307 307 306 303 303 304 303 303 303 303 302 302 303 306 307 307 308 308 309 307 307 308 311
324 323 322 320 320 320 319 318 316 313 311 310 309 308 306 306 305 304 303 301 302 305 304 302 301 300 300 298 298 298 297 298 299 301 305 306 308 307 306 305 306 305 305
318 318 318 317 315 315 314 312 310 307 306 305 305 304 303 303 302 302 302 301 300 299 300 300 299 299 298 299 298 296 294 294 294 296 300 303 305 305 304 304 303 302 303
312 311 309 308 308 307 305 304 304 303 302 301 300 301 299 297 299 300 299 297 297 296 297 297 296 293 292 292 294 295 292 291 291 292 292 293 295 295 298 301 300 300 300
306 305 304 304 302 301 304 305 303 301 300 299 297 297 296 297 298 300 300 300 297 294 292 294 292 293 294 295 293 292 289 287 288 291 290 290 290 290 292 295 298 298 298
305 304 304 301 299 300 304 305 302 300 297 296 296 296 296 297 296 296 299 298 297 297 296 291 292 292 293 294 292 289 288 288 289 289 289 288 287 287 290 292 296 296 296
301 302 301 300 298 299 302 302 301 297 296 295 295 296 295 294 295 295 294 292 292 293 292 292 289 289 289 289 290 292 291 289 286 286 288 286 286 286 288 288 294 295 295
295 296 298 299 297 296 299 300 297 295 294 293 295 295 295 294 297 296 292 288 290 291 294 294 293 292 293 294 295 290 287 286 285 285 285 285 285 285 286 287 289 294 295
296 297 295 296 297 295 299 299 297 295 293 293 292 293 297 294 297 296 291 291 288 286 286 286 285 286 287 287 290 286 287 286 286 285 285 285 284 284 283 285 287 288 287